     2              OBSERVATION DATA    GPS                 RINEX VERSION / TYPE
ASHTORIN MIT 06 - JUN - 97 10:30                            PGM / RUN BY / DATE
                                                            COMMENT
--> THIS IS THE START OF A NEW SITE <---                    COMMENT
--> THIS IS THE START OF A NEW SITE <---                    COMMENT
Original Marker Name: GS08                                  COMMENT
Campaign Name: China Lake May 1997                          COMMENT
4-Character Station Name: GS08                              COMMENT
6-Character Antenna Code: ASHGD3                            COMMENT
Vertical Measurement Point: TGP                             COMMENT
Vertical Offset to Rinex Ref. Point: 0.0640                 COMMENT
Radial Measurement Point: OOH                               COMMENT
Radial Offset to Rinex Ref. Point: 0.1737                   COMMENT
Antenna Height from Field Measurement: 0.6930 m             COMMENT
Additional Antenna Identification Info.:                    COMMENT
The Whopper (700718AB)                                      COMMENT
Original XYZ: -2435897.9000 -4555584.6800 3731282.9400      COMMENT
New XYZ position is based on association with SCEC monument COMMENT
E1F1W1J5+0011. Position of that monument is believed to be  COMMENT
valid to within 1 m horizontally; vertical accuracy         COMMENT
should be no worse than 3-times this value.                 COMMENT
                                                            COMMENT
Revised Rinex header created by UCSD GPS archive for        COMMENT
GSAC on 31-Jul-2000 (2000:213) 17:23:35 GMT                 COMMENT
For assistance contact dagnew@ucsd.edu                      COMMENT
or anderson@python.ucsd.edu                                 COMMENT
                                                            COMMENT
3187 S                                                      MARKER NAME
gs08                                                        MARKER NUMBER
MHB US DEFENSE MAPPING AGENCY                               OBSERVER / AGENCY
453 ASHTECH Z-XII3 1G001C7                                  REC # / TYPE / VERS
292 ASHTECH GEODETIC III                                    ANT # / TYPE
 -2436056.5893 -4555502.9878  3731342.1307                  APPROX POSITION XYZ
        0.6069        0.0000        0.0000                  ANTENNA: DELTA H/E/N
     1     1     0                                          WAVELENGTH FACT L1/2
     7    L1    L2    C1    P1    P2    D1    D2            # / TYPES OF OBSERV
    30                                                      INTERVAL
  1997     5     7    15    26    0.000000                  TIME OF FIRST OBS
  1997     5     7    21    30   60.000000                  TIME OF LAST OBS
                                                            END OF HEADER
 97  5  7 15 26  0.0000000  0  6 19  2 31  7 27 26                  -0.001830732
      7119.27019         0.000 1  20085769.179           0.000           0.000
     -2066.376       -1610.163
     -7298.98019     -1054.15752  19428360.563           0.0005          0.0005
       720.475         561.409
      7829.87819         0.000 1  22091217.768           0.000           0.000
     -3282.183       -2557.545
     -6947.87419         0.000 1  20569019.040           0.000           0.000
      3177.848        2476.245
      -842.84619         0.000 1  18360264.122           0.000           0.000
       301.638         235.043
     -6464.89119         0.000 1  22079841.231           0.000           0.000
      2669.731        2080.310
 97  5  7 15 26 30.0000000  0  8 19  2 18 31  7 27 26 15            -0.001754898
     69194.821 9     42461.95958  20097580.670           0.0005   20097588.7285
     -2072.618       -1615.027
    -28881.396 9    -18304.47256  19424251.805           0.0004          0.0005
       717.502         559.092
     28899.46918         0.000 1  22807366.755           0.000           0.000
     -3757.451       -2927.884
    106355.897 9     67365.02756  22109960.921           0.0005          0.0005
     -3287.103       -2561.379
   -102210.947 9    -65132.46357  20550899.435           0.0005   20550907.4725
      3172.146        2471.802
     -9775.921 9     -6106.02058  18358562.125           0.0005   18358569.6595
       293.182         228.454
    -86455.875 9    -54676.71156  22064627.777           0.0005          0.0005
      2662.211        2074.450
    -35749.80118    -13294.08252  22597088.739           0.0005          0.0005
      2053.980        1600.504
 97  5  7 15 27 30.0000000  3  2
GS08                                                        MARKER NAME
--> THIS IS THE START OF A NEW SITE <---                    COMMENT
 97  5  7 15 27 30.0000000  0  7 19  2 31  7 27 26 15                0.000048664
    193933.158 9    139660.64248  21920069.891    21920074.2495   21920080.4604
     -2085.809       -1625.306
    -71671.082 9         0.000 1  21214866.587           0.000           0.000
       708.921         552.406
    303885.387 9    221284.02856  23946303.919    23946304.7045   23946311.2585
     -3297.367       -2569.377
   -292129.916 9   -213121.21647  22313514.172    22313514.6605   22313521.7834
      3159.065        2461.609
    -26806.886 9    -19376.91148  20154077.778    20154078.9225   20154084.1394
       274.814         214.141
   -245729.674 9   -178786.10756  23833073.370    23833074.7825   23833081.1195
      2647.554        2063.029
   -158540.223 9   -108975.27756  24372471.420           0.0004          0.0005
      2039.588        1589.289
 97  5  7 15 28  0.0000000  0  8 19  2 18 31  7 27 26 15             0.000047317
    256613.968 9    188502.80758  21932003.105    21932002.0935   21932008.2135
     -2092.222       -1630.303
    -92865.780 9    -16402.13158  21210832.339    21210833.0475   21210839.0065
       704.688         549.108
    366562.952 8    252372.99156  24670387.379    24670386.4935   24670393.9715
     -3745.466       -2918.545
    402875.177 9    298418.88056  23965144.245    23965142.1095   23965147.9575
     -3301.573       -2572.654
   -386800.593 9   -286890.55557  22295494.834    22295499.4675   22295506.4855
      3153.045        2456.918
    -34911.221 9    -25691.98458  20152534.608    20152536.8855   20152542.0005
       266.026         207.293
   -325037.716 9   -240584.54856  23817975.954    23817983.0725   23817989.3575
      2640.172        2057.277
   -219620.473 9   -156570.18056  24360850.812    24360848.4735   24360857.2175
      2032.972        1584.134
 97  5  7 15 28 30.0000000  0  8 19  2 18 31  7 27 26 15             0.000045969
    319493.805 9    237500.07048  21943966.864    21943967.7854   21943973.8374
     -2098.994       -1635.580
   -113924.499 9    -32811.51448  21206824.614    21206825.8115   21206831.7414
       699.921         545.393
    478881.054 8    339893.45145  24691753.542    24691761.6125   24691766.9324
     -3742.014       -2915.855
    502012.898 9    375669.04046  23984007.574    23984007.5074   23984013.1144
     -3306.860       -2576.774
   -481284.526 9   -360514.36147  22277515.927    22277519.8064   22277526.6854
      3146.609        2451.903
    -42732.969 9    -31786.85448  20151046.595    20151048.5454   20151053.5914
       256.039         199.511
   -404109.758 9   -302199.13146  23802930.893    23802936.2394   23802942.3054
      2631.748        2050.713
   -280483.592 9   -203995.88556  24349268.892    24349268.9184   24349274.2475
      2025.238        1578.108
 97  5  7 15 29  0.0000000  0  8 19  2 18 31  7 27 26 15             0.000044522
    382552.820 9    286636.94948  21955966.083    21955967.5154   21955973.5984
     -2104.765       -1640.077
   -134859.152 9    -49124.22448  21202840.722    21202842.0804   21202848.0384
       695.872         542.238
    591080.651 9    427321.62446  24713105.733    24713110.6494   24713117.3384
     -3737.876       -2912.631
    601284.452 9    453023.42246  24002896.612    24002898.1434   24002903.8514
     -3311.240       -2580.187
   -575608.611 9   -434013.63147  22259567.048    22259570.5254   22259577.3254
      3141.854        2448.198
    -50277.211 9    -37665.48848  20149611.268    20149612.9974   20149618.0484
       247.030         192.491
   -482950.601 9   -363633.53846  23787929.905    23787933.3934   23787939.4364
      2624.227        2044.852
   -341138.003 8   -251259.14546  24337725.138    24337726.5665   24337731.9334
      2018.575        1572.916
 97  5  7 15 29 30.0000000  0  8 19  2 18 31  7 27 26 15             0.000043025
    445825.329 9    335940.18348  21968006.389    21968007.9284   21968014.0044
     -2113.247       -1646.686
   -155650.418 9    -65325.20548  21198884.212    21198885.6914   21198891.5394
       690.474         538.032
    703195.565 8    514683.84245  24734440.847    24734445.3854   24734451.6254
     -3736.422       -2911.498
    700725.539 9    530509.91946  24021818.190    24021821.0884   24021826.8324
     -3318.005       -2585.458
   -669761.979 9   -507379.86747  22241650.872    22241653.7804   22241660.4514
      3135.143        2442.968
    -57515.857 9    -43305.99148  20148233.795    20148235.6004   20148240.6134
       235.555         183.549
   -561513.242 9   -424851.16046  23772980.369    23772983.3984   23772989.5414
      2613.392        2036.409
   -401558.724 8   -298340.07546  24326226.299    24326227.6464   24326234.7244
      2009.634        1565.948
 97  5  7 15 30  0.0000000  0  8 19  2 18 31  7 27 26 15             0.000041476
    509303.641 9    385403.74648  21980085.719    21980087.5344   21980093.6114
     -2119.551       -1651.598
   -176321.305 9    -81432.37348  21194950.530    21194952.1754   21194957.9334
       686.666         535.064
    815229.067 8    601982.59545  24755761.268    24755764.7324   24755771.6184
     -3733.767       -2909.429
    800331.931 8    608125.23145  24040772.303    24040775.5744   24040781.3284
     -3323.231       -2589.531
   -763751.633 9   -580618.52947  22223765.467    22223768.1324   22223774.6934
      3129.716        2438.740
    -64439.796 9    -48701.26648  20146916.361    20146918.1044   20146923.0284
       225.028         175.346
   -639786.724 9   -485843.46747  23758085.719    23758088.5374   23758094.6224
      2603.874        2028.993
   -461748.111 9   -345240.95345  24314772.900    24314774.9194   24314780.5894
      2002.065        1560.051
 97  5  7 15 30 30.0000000  0  8 19  2 18 31  7 27 26 15             0.000039877
    572980.370 9    435022.04047  21992203.112    21992204.9074   21992210.9574
     -2126.166       -1656.753
   -196876.715 9    -97449.58048  21191038.847    21191040.6074   21191046.3064
       683.081         532.271
    927198.206 8    689231.23746  24777068.793    24777071.8364   24777078.4874
     -3731.716       -2907.831
    900093.809 8    685861.72545  24059756.719    24059759.8524   24059765.6364
     -3328.016       -2593.259
   -857573.852 9   -653726.71548  22205911.532    22205914.2964   22205920.8004
      3124.290        2434.512
    -71046.499 9    -53849.35548  20145659.027    20145660.9264   20145665.8584
       214.806         167.381
   -717776.389 9   -546614.58347  23743244.751    23743247.5624   23743253.7474
      2594.823        2021.940
   -521698.325 9   -391955.39846  24303364.466    24303366.8214   24303372.3894
      1994.184        1553.910
 97  5  7 15 31  0.0000000  0  8 19  2 18 31  7 27 26 15             0.000038232
    636870.491 9    484806.47048  22004361.134    22004362.8594   22004368.9464
     -2133.285       -1662.300
   -217313.144 9   -113374.06748  21187149.893    21187151.6664   21187157.3934
       679.216         529.259
   1039122.708 8    776444.95345  24798366.714    24798370.1244   24798377.4654
     -3730.112       -2906.581
   1000002.926 9    763712.94546  24078769.234    24078771.9904   24078777.6064
     -3332.871       -2597.042
   -951205.305 9   -726686.27248  22188094.402    22188096.8194   22188103.2804
      3117.530        2429.244
    -77330.043 9    -58745.63148  20144463.491    20144465.1824   20144470.1984
       203.785         158.793
   -795487.595 9   -607168.79147  23728456.947    23728459.6284   23728465.8244
      2585.736        2014.859
   -581402.802 8   -438478.29545  24292002.983    24292005.2744   24292011.2364
      1985.824        1547.395
 97  5  7 15 31 30.0000000  0  8 19  2 18 31  7 27 26 15             0.000036554
    701000.957 9    534778.24348  22016564.619    22016566.5474   22016572.5404
     -2141.546       -1668.737
   -237607.755 9   -129188.03448  21183288.014    21183289.7174   21183295.4984
       674.095         525.269
   1151028.344 8    863644.08845  24819660.734    24819664.9794   24819672.4444
     -3729.790       -2906.330
   1100086.103 9    841699.78446  24097813.939    24097817.1534   24097822.8214
     -3338.833       -2601.688
  -1044593.587 9   -799456.34148  22170323.242    22170325.6164   22170332.0414
      3108.667        2422.338
    -83249.061 9    -63357.85948  20143337.104    20143338.8644   20143343.8604
       191.237         149.016
   -872887.459 9   -667480.37347  23713728.394    23713731.0904   23713737.1934
      2574.906        2006.420
   -640822.887 8   -484779.69446  24280695.867    24280697.9404   24280704.0934
      1975.843        1539.618
 97  5  7 15 32  0.0000000  0  8 19  2 18 31  7 27 26 15             0.000034827
    765351.436 9    584921.44648  22028809.806    22028812.0334   22028818.0694
     -2148.906       -1674.472
   -257754.786 9   -144887.00648  21179454.184    21179455.8924   21179461.6764
       668.605         520.991
   1262895.925 8    950813.58545  24840948.489    24840952.7094   24840959.7504
     -3728.226       -2905.111
   1200318.674 9    919803.03946  24116887.239    24116890.8904   24116896.4394
     -3343.864       -2605.608
  -1137731.636 9   -872031.41448  22152599.714    22152601.9614   22152608.4624
      3100.241        2415.772
    -88815.074 9    -67695.02448  20142277.872    20142279.7414   20142284.6704
       179.548         139.907
   -949995.308 9   -727564.40047  23699055.512    23699058.1234   23699064.1304
      2565.237        1998.886
   -699961.700 8   -530861.76846  24269441.583    24269444.0994   24269450.4724
      1966.334        1532.208
 97  5  7 15 32 30.0000000  0  8 19  2 18 31  7 27 26 15             0.000033071
    829946.098 9    635254.93148  22041101.905    22041104.0604   22041110.0074
     -2157.451       -1681.131
   -277725.658 9   -160448.72148  21175653.991    21175655.5884   21175661.3784
       662.524         516.252
   1374721.798 8   1037950.48045  24862228.737    24862232.4904   24862240.0654
     -3726.869       -2904.054
   1300721.553 9    998038.99946  24135993.905    24135996.9444   24136002.5434
     -3350.080       -2610.452
  -1230609.302 9   -944403.59748  22134925.374    22134927.9274   22134934.4364
      3091.246        2408.763
    -94017.943 9    -71749.21648  20141287.665    20141289.6804   20141294.5724
       166.947         130.089
  -1026797.892 9   -787410.52146  23684440.407    23684443.0894   23684449.0994
      2554.554        1990.562
   -758801.623 8   -576710.98545  24258244.048    24258246.8254   24258253.6364
      1956.072        1524.212
 97  5  7 15 33  0.0000000  0  8 19  2 18 31  7 27 26 15             0.000031303
    894797.574 9    685788.53448  22053442.948    22053444.9354   22053450.8484
     -2165.723       -1687.576
   -297499.209 9   -175856.67648  21171891.203    21171892.8374   21171898.5844
       655.959         511.137
   1486496.720 8   1125047.80646  24883500.153    24883502.9564   24883509.9804
     -3724.389       -2902.121
   1401322.757 9   1076429.50946  24155138.286    24155140.6964   24155146.4884
     -3356.604       -2615.535
  -1323200.487 9  -1016552.54448  22117306.049    22117308.4054   22117314.9604
      3081.819        2401.417
    -98833.269 9    -75501.42848  20140371.239    20140373.3914   20140378.2744
       154.383         120.298
  -1103263.623 9   -846994.22647  23669889.728    23669892.2314   23669898.0654
      2543.402        1981.872
   -817324.645 9   -622313.42646  24247107.957    24247110.4094   24247116.6674
      1945.682        1516.116
 97  5  7 15 33 30.0000000  0  8 19  2 18 31  7 27 26 15             0.000029534
    959907.908 9    736523.83648  22065832.903    22065835.0304   22065840.9864
     -2175.103       -1694.885
   -317065.194 9   -191102.90048  21168168.073    21168169.5734   21168175.2724
       648.361         505.216
   1598198.883 8   1212088.29945  24904755.918    24904759.1984   24904766.7624
     -3722.488       -2900.640
   1502137.917 9   1154986.70846  24174323.900    24174325.2764   24174330.9784
     -3364.539       -2621.719
  -1415504.410 9  -1088477.67448  22099741.098    22099743.6234   22099750.1024
      3071.631        2393.479
   -103275.504 9    -78962.91048  20139525.925    20139528.1114   20139532.9524
       141.651         110.377
  -1179379.860 9   -906305.55947  23655405.473    23655407.8434   23655413.6164
      2530.989        1972.199
   -875525.644 8   -667664.80846  24236033.167    24236035.4044   24236041.6894
      1934.296        1507.244
 97  5  7 15 34  0.0000000  0  8 19  2 18 31  7 27 26 15             0.000027777
   1025298.760 9    787477.73548  22078276.190    22078278.5234   22078284.4574
     -2184.807       -1702.447
   -336412.842 9   -206178.98248  21164486.260    21164487.8634   21164493.5114
       641.236         499.664
   1709828.780 8   1299072.59745  24925998.485    24926001.8044   24926009.1384
     -3719.934       -2898.650
   1603190.716 9   1233729.13146  24193553.991    24193555.0284   24193560.6354
     -3372.782       -2628.142
  -1507507.945 9  -1160168.72948  22082233.700    22082235.9604   22082242.3594
      3061.487        2385.574
   -107334.583 9    -82125.83348  20138753.560    20138755.7404   20138760.5394
       128.593         100.202
  -1255127.028 9   -965329.30647  23640990.891    23640993.6534   23640999.3944
      2518.291        1962.305
   -933389.265 9   -712753.33446  24225022.460    24225024.3454   24225030.5404
      1922.861        1498.333
 97  5  7 15 34 30.0000000  0  8 19  2 18 31  7 27 26 15             0.000026048
   1090997.292 9    838671.37648  22090778.207    22090780.6904   22090786.5374
     -2195.134       -1710.494
   -355553.387 9   -221093.68648  21160843.827    21160845.5464   21160851.1774
       634.653         494.535
   1821394.079 8   1386006.52245  24947229.033    24947232.2964   24947239.4834
     -3717.868       -2897.040
   1704495.427 9   1312667.81346  24212831.748    24212832.6794   24212838.2214
     -3381.013       -2634.555
  -1599190.569 9  -1231609.71248  22064787.329    22064789.2914   22064795.7444
      3050.392        2376.929
   -110990.803 9    -84974.84248  20138057.939    20138059.9754   20138064.7794
       114.848          89.492
  -1330484.577 9  -1024049.45147  23626650.940    23626653.5074   23626659.2784
      2505.450        1952.299
   -990901.423 9   -757568.04746  24214078.969    24214080.2334   24214086.1344
      1911.058        1489.136
 97  5  7 15 35  0.0000000  0  8 19  2 18 31  7 27 26 15             0.000024349
   1157016.971 9    890115.26548  22103341.508    22103343.8994   22103349.7934
     -2206.212       -1719.126
   -374482.608 9   -235843.72348  21157241.632    21157243.4414   21157249.0764
       627.316         488.818
   1932909.575 8   1472901.59945  24968450.540    24968453.0674   24968460.5034
     -3716.629       -2896.075
   1806052.738 9   1391803.34646  24232157.445    24232158.4994   24232164.0074
     -3389.554       -2641.211
  -1690526.881 9  -1302780.84248  22047406.250    22047408.4944   22047415.0514
      3038.873        2367.953
   -114223.404 9    -87493.76548  20137442.625    20137444.8514   20137449.6784
       100.609          78.397
  -1405449.830 9  -1082463.93547  23612385.528    23612388.0674   23612393.7814
      2492.308        1942.058
  -1048044.177 8   -802094.82846  24203205.216    24203206.2884   24203212.4344
      1898.368        1479.248
 97  5  7 15 35 30.0000000  0  8 19  2 18 31  7 27 26 15             0.000022673
   1223364.823 9    941814.86948  22115967.129    22115969.6114   22115975.4484
     -2217.284       -1727.754
   -393206.181 9   -250433.50948  21153678.701    21153680.4184   21153686.1464
       620.540         483.538
   2044390.510 8   1559769.79245  24989665.872    24989667.5004   24989674.8144
     -3715.786       -2895.418
   1907849.482 9   1471125.43746  24251529.058    24251529.9214   24251535.3504
     -3397.288       -2647.237
  -1781531.509 9  -1373693.52548  22030088.666    22030090.9124   22030097.5074
      3027.743        2359.280
   -117029.097 9    -89680.02548  20136908.693    20136911.0054   20136915.8284
        85.895          66.931
  -1480025.653 9  -1140574.94847  23598193.884    23598196.7534   23598202.4724
      2479.033        1931.714
  -1104810.954 9   -846328.63746  24192402.481    24192403.8774   24192410.2154
      1885.647        1469.335
 97  5  7 15 36  0.0000000  0  8 19  2 18 31  7 27 26 15             0.000020998
   1290026.440 9    993758.97048  22128652.649    22128654.9214   22128660.7804
     -2227.124       -1735.421
   -411739.858 9   -264875.33548  21150151.777    21150153.5734   21150159.3354
       614.551         478.871
   2155832.072 8   1646607.30246  25010873.613    25010874.1334   25010881.4214
     -3714.073       -2894.083
   2009852.151 9   1550607.97846  24270939.185    24270940.4374   24270945.8934
     -3403.215       -2651.856
  -1872221.782 9  -1444361.25148  22012830.923    22012833.1594   22012839.7674
      3017.880        2351.595
   -119396.607 9    -91524.84448  20136458.241    20136460.4854   20136465.3744
        71.762          55.918
  -1554218.737 9  -1198387.72647  23584075.336    23584078.3424   23584084.2144
      2466.838        1922.211
  -1161210.467 9   -890276.35546  24181670.141    24181671.4844   24181677.6584
      1873.903        1460.184
 97  5  7 15 36 30.0000000  0  8 19  2 18 31  7 27 26 15             0.000019311
   1356978.695 9   1045929.53447  22141393.509    22141395.5714   22141401.3694
     -2236.514       -1742.738
   -430078.684 9   -279165.32248  21146661.982    21146663.8534   21146669.6144
       607.741         473.564
   2267231.713 8   1733412.13145  25032071.681    25032072.8824   25032080.5234
     -3712.756       -2893.057
   2112027.681 9   1630225.21546  24290383.021    24290383.8054   24290389.3764
     -3408.676       -2656.111
  -1962614.782 9  -1514797.32948  21995629.392    21995631.9224   21995638.5634
      3008.272        2344.108
   -121344.164 9    -93042.42948  20136087.627    20136089.8724   20136094.7694
        57.885          45.105
  -1628047.337 9  -1255916.47447  23570026.573    23570029.2034   23570035.1714
      2454.874        1912.889
  -1217253.800 9   -933946.47546  24171005.142    24171006.5704   24171012.7854
      1862.027        1450.930
 97  5  7 15 37  0.0000000  0  8 19  2 18 31  7 27 26 15             0.000017608
   1424212.303 9   1098319.34247  22154187.869    22154189.7544   22154195.5254
     -2245.532       -1749.765
   -448193.659 9   -293280.87848  21143215.070    21143216.7724   21143222.4464
       600.206         467.693
   2378606.897 8   1820197.88845  25053263.838    25053266.6454   25053274.7364
     -3712.054       -2892.510
   2214372.871 9   1709974.65746  24309858.419    24309859.4784   24309864.9274
     -3414.223       -2660.434
  -2052723.879 9  -1585012.19248  21978481.855    21978484.7294   21978491.3744
      2999.202        2337.041
   -122872.536 9    -94233.38048  20135796.689    20135799.0684   20135803.9094
        44.284          34.507
  -1701494.470 9  -1313148.00447  23556050.515    23556052.7524   23556058.7704
      2441.737        1902.652
  -1272927.428 9   -977328.52746  24160411.241    24160412.4714   24160418.3954
      1849.788        1441.393
 97  5  7 15 37 30.0000000  0  8 19  2 18 31  7 27 26 15             0.000015910
   1491735.055 9   1150934.45147  22167036.885    22167038.9494   22167044.7264
     -2255.394       -1757.450
   -466061.305 9   -307203.71848  21139814.956    21139816.7184   21139822.3234
       591.679         461.049
   2489983.296 8   1906984.60745  25074459.325    25074460.9404   25074468.9454
     -3712.260       -2892.670
   2316901.718 9   1789867.20846  24329369.898    24329370.0914   24329375.5324
     -3420.679       -2665.464
  -2142531.572 9  -1654992.18248  21961391.962    21961394.9134   21961401.5384
      2988.444        2328.658
   -123974.020 9    -95091.68148  20135587.295    20135589.4814   20135594.3244
        29.821          23.237
  -1774517.805 9  -1370049.29047  23542154.614    23542156.7664   23542162.8314
      2427.185        1891.313
  -1328213.566 8  -1020408.61646  24149889.981    24149891.7174   24149897.8154
      1836.582        1431.103
 97  5  7 15 38  0.0000000  0  8 19  2 18 31  7 27 26 15             0.000014212
   1559522.719 9   1203755.98547  22179936.396    22179938.5914   22179944.2584
     -2263.976       -1764.137
   -483698.723 9   -320947.14948  21136458.608    21136460.4104   21136466.0384
       584.083         455.130
   2601329.763 8   1993748.01445  25095648.629    25095649.4464   25095657.7454
     -3710.986       -2891.677
   2419597.444 9   1869889.78946  24348911.792    24348912.4064   24348917.9334
     -3425.991       -2669.603
  -2232039.559 9  -1724738.63648  21944359.422    21944362.1014   21944368.7424
      2978.469        2320.885
   -124678.191 9    -95640.39048  20135453.388    20135455.4574   20135460.3364
        17.038          13.276
  -1847139.802 9  -1426637.84947  23528334.968    23528337.2124   23528343.3364
      2414.114        1881.128
  -1383133.660 9  -1063203.54646  24139438.338    24139440.6324   24139446.8124
      1824.499        1421.688
 97  5  7 15 38 30.0000000  0  8 19  2 18 31  7 27 26 15             0.000012532
   1627592.262 9   1256797.16147  22192889.624    22192891.8194   22192897.3834
     -2274.621       -1772.432
   -501089.024 9   -334498.03048  21133149.348    21133151.1084   21133156.8284
       574.954         448.016
   2712655.672 8   2080495.34845  25116831.990    25116834.1994   25116842.6564
     -3710.981       -2891.674
   2522476.993 9   1950055.61446  24368489.257    24368489.8004   24368495.3184
     -3433.373       -2675.356
  -2321221.354 9  -1794230.91948  21927388.964    21927391.3554   21927397.9424
      2966.436        2311.508
   -124975.647 9    -95872.18648  20135396.780    20135398.8694   20135403.7744
         2.095           1.632
  -1919342.285 9  -1482899.50847  23514595.320    23514597.5274   23514603.5434
      2398.973        1869.330
  -1437665.127 9  -1105695.55146  24129061.561    24129063.7404   24129070.0964
      1810.391        1410.694
 97  5  7 15 39  0.0000000  0  8 19  2 18 31  7 27 26 15             0.000010868
   1695947.637 9   1310061.06947  22205897.521    22205899.4084   22205904.9484
     -2282.861       -1778.853
   -518257.453 9   -347876.02448  21129882.199    21129884.0424   21129889.7914
       569.385         443.677
   2823933.271 8   2167205.05045  25138006.814    25138009.7414   25138018.2114
     -3707.717       -2889.130
   2625545.542 9   2030368.70146  24388102.798    24388103.2764   24388108.7394
     -3438.423       -2679.291
  -2410079.064 9  -1863470.66348  21910480.045    21910482.3044   21910488.8524
      2956.838        2304.030
   -124862.401 9    -95783.94448  20135418.274    20135420.4394   20135425.3834
       -10.109          -7.877
  -1991135.536 9  -1538842.29847  23500933.366    23500935.7934   23500941.7184
      2387.047        1860.037
  -1491816.863 9  -1147891.72846  24118756.978    24118759.1314   24118765.4464
      1799.294        1402.047
 97  5  7 15 39 30.0000000  0  8 19  2 18 31  7 27 26 15             0.000009201
   1764581.442 9   1363541.93847  22218957.863    22218959.9554   22218965.5214
     -2292.302       -1786.209
   -535239.668 9   -361108.91548  21126650.637    21126652.4334   21126658.1874
       563.159         438.825
   2935125.200 8   2253847.97946  25159163.133    25159169.0384   25159177.1534
     -3704.614       -2886.712
   2728795.956 8   2110823.52346  24407750.007    24407751.2024   24407756.6684
     -3444.666       -2684.155
  -2498613.637 9  -1932458.62348  21893632.739    21893634.7794   21893641.2314
      2945.818        2295.443
   -124353.696 9    -95387.55748  20135515.164    20135517.2684   20135522.2334
       -23.552         -18.352
  -2062565.496 9  -1594501.99147  23487340.892    23487343.1374   23487349.0204
      2375.293        1850.878
  -1545611.850 9  -1189809.92146  24108520.055    24108522.3824   24108528.4204
      1787.298        1392.700
 97  5  7 15 40  0.0000000  0  8 19  2 18 31  7 27 26 15             0.000007528
   1833504.806 9   1417248.43047  22232073.274    22232075.6014   22232081.2214
     -2302.278       -1793.983
   -552030.159 9   -374192.41648  21123455.551    21123457.3754   21123463.0474
       556.377         433.541
   3046233.276 8   2340425.60745  25180307.641    25180312.1044   25180320.6354
     -3702.345       -2884.944
   2832240.564 8   2191429.64746  24427435.375    24427436.1854   24427441.6264
     -3451.404       -2689.406
  -2586814.595 9  -2001186.61748  21876848.816    21876850.7464   21876857.1424
      2934.531        2286.648
   -123423.100 9    -94662.41648  20135692.415    20135694.3994   20135699.3394
       -38.193         -29.761
  -2133636.926 9  -1649882.31447  23473816.135    23473818.7554   23473824.5264
      2362.867        1841.195
  -1599034.201 8  -1231437.70346  24098353.840    24098356.3124   24098362.4444
      1774.373        1382.628
 97  5  7 15 40 30.0000000  0  8 19  2 18 31  7 27 26 15             0.000005854
   1902733.724 9   1471193.02547  22245246.954    22245249.4324   22245255.0274
     -2312.578       -1802.009
   -568614.637 9   -387115.37748  21120299.771    21120301.4894   21120307.1424
       549.537         428.211
   3157265.186 8   2426943.82545  25201436.961    25201440.8704   25201449.6084
     -3699.788       -2882.952
   2935891.104 9   2272196.24046  24447159.162    24447160.3224   24447165.5404
     -3458.419       -2694.872
  -2674679.690 9  -2069652.89848  21860128.844    21860130.6314   21860137.0354
      2923.404        2277.977
   -122046.257 9    -93589.55748  20135954.258    20135956.3754   20135961.3394
       -53.351         -41.572
  -2204327.566 9  -1704965.91447  23460364.750    23460366.7924   23460372.4104
      2350.101        1831.248
  -1652066.427 8  -1272761.51946  24088261.816    24088264.3654   24088270.6734
      1761.377        1372.502
 97  5  7 15 41  0.0000000  0  8 19  2 18 31  7 27 26 15             0.000004167
   1972251.836 9   1525362.96447  22258475.900    22258478.2344   22258483.9884
     -2321.676       -1809.098
   -585009.127 9   -399890.29848  21117179.907    21117181.7314   21117187.4134
       543.533         423.532
   3268227.744 8   2513408.00245  25222550.155    25222556.5254   25222565.1414
     -3697.624       -2881.265
   3039742.523 9   2353119.36146  24466922.908    24466922.6714   24466927.7864
     -3464.691       -2699.759
  -2762226.627 9  -2137871.26648  21843469.251    21843471.0284   21843477.4374
      2913.124        2269.967
   -120234.050 9    -92177.46148  20136299.218    20136301.3204   20136306.2254
       -67.225         -52.383
  -2274648.422 9  -1759761.37947  23446983.002    23446985.2234   23446990.7844
      2337.934        1821.767
  -1704720.322 8  -1313790.53046  24078242.135    24078244.7064   24078251.1294
      1748.984        1362.845
 97  5  7 15 41 30.0000000  0  8 19  2 18 31  7 27 26 15             0.000002473
   2042034.099 9   1579738.72147  22271755.054    22271757.4364   22271763.2284
     -2329.736       -1815.379
   -601221.366 9   -412523.20148  21114094.769    21114096.6544   21114102.3694
       537.915         419.155
   3379123.346 8   2599820.06545  25243653.749    25243659.5924   25243667.5884
     -3694.871       -2879.120
   3143770.205 9   2434179.83546  24486719.048    24486718.5264   24486723.7084
     -3469.877       -2703.800
  -2849464.609 9  -2205848.88848  21826868.091    21826870.1724   21826876.6074
      2903.382        2262.376
   -118009.743 9    -90444.24048  20136722.355    20136724.6524   20136729.5134
       -80.421         -62.666
  -2344590.794 9  -1814261.91747  23433673.396    23433675.7104   23433681.2164
      2325.301        1811.923
  -1756998.273 8  -1354526.55946  24068293.871    24068296.5304   24068303.2724
      1736.793        1353.345
 97  5  7 15 42  0.0000000  0  8 19  2 18 31  7 27 26 15             0.000000774
   2112075.365 9   1634316.31047  22285083.661    22285085.8834   22285091.7244
     -2339.007       -1822.603
   -617249.487 9   -425012.64648  21111044.866    21111046.6324   21111052.3554
       531.250         413.961
   3489961.286 8   2686187.08145  25264745.706    25264751.4824   25264759.8374
     -3693.642       -2878.163
   3247967.475 9   2515372.43446  24506545.919    24506546.7574   24506551.9604
     -3475.925       -2708.513
  -2936397.421 9  -2273588.72048  21810325.265    21810327.4634   21810333.8534
      2892.822        2254.147
   -115373.270 9    -88389.85048  20137224.259    20137226.3844   20137231.1914
       -94.494         -73.632
  -2414122.008 9  -1868442.07647  23420442.151    23420444.3854   23420449.8634
      2310.862        1800.672
  -1808892.221 8  -1394963.38246  24058418.595    24058421.4144   24058428.3164
      1723.506        1342.992
 97  5  7 15 42 30.0000000  0  8 19  2 18 31  7 27 26 15            -0.000000925
   2182383.232 9   1689101.64347  22298462.833    22298465.0044   22298470.9624
     -2348.397       -1829.920
   -633089.480 9   -437355.49448  21108030.569    21108032.4214   21108038.1304
       524.578         408.762
   3600754.761 8   2772519.59045  25285830.573    25285834.7954   25285842.6954
     -3692.984       -2877.650
   3352333.519 8   2596696.65546  24526405.262    24526406.9754   24526412.4054
     -3482.147       -2713.361
  -3023024.954 9  -2341090.67048  21793840.430    21793842.8414   21793849.1604
      2881.930        2245.660
   -112334.531 9    -86022.00848  20137802.446    20137804.6724   20137809.4034
      -108.462         -84.516
  -2483236.760 9  -1922297.71247  23407289.772    23407292.3034   23407297.7644
      2296.480        1789.465
  -1860401.801 9  -1435100.72146  24048616.714    24048619.5884   24048626.4644
      1710.104        1332.549
 97  5  7 15 42 59.9990000  0  8 19  2 18 31  7 27 26 15            -0.000002612
   2252952.322 9   1744090.51247  22311891.958    22311893.9164   22311899.8214
     -2356.402       -1836.157
   -648740.216 9   -449550.87148  21105052.506    21105054.2514   21105059.8904
       518.917         404.351
   3711516.081 8   2858826.95345  25306911.270    25306911.9804   25306920.2424
     -3690.911       -2876.035
   3456869.262 9   2678152.96346  24546297.286    24546299.4684   24546304.9634
     -3486.969       -2717.119
  -3109329.530 9  -2408340.96748  21777417.455    21777419.6674   21777425.9134
      2871.938        2237.874
   -108891.254 9    -83338.93948  20138457.910    20138459.9734   20138464.5934
      -121.068         -94.339
  -2551928.817 9  -1975823.97747  23394218.411    23394220.6874   23394226.1264
      2283.192        1779.111
  -1911516.703 8  -1474930.51046  24038889.847    24038892.8254   24038899.6504
      1697.690        1322.875
 97  5  7 15 43 29.9990000  0  8 19  2 18 31  7 27 26 15            -0.000004288
   2323791.641 9   1799289.96247  22325372.350    22325374.2394   22325380.1924
     -2365.829       -1843.503
   -664201.409 9   -461598.54748  21102110.302    21102112.1534   21102117.7144
       512.161         399.086
   3822222.857 8   2945091.86045  25327978.534    25327979.1954   25327987.2474
     -3689.157       -2874.668
   3561570.110 8   2759737.99845  24566221.245    24566223.4664   24566228.8994
     -3492.703       -2721.587
  -3195315.565 9  -2475343.05448  21761054.986    21761057.0974   21761063.2784
      2860.858        2229.240
   -105044.408 9    -80341.39748  20139189.936    20139192.0614   20139196.6514
      -135.128        -105.294
  -2620206.581 9  -2029027.43247  23381225.796    23381227.9564   23381233.3774
      2269.161        1768.177
  -1962241.563 8  -1514456.38046  24029237.393    24029240.1904   24029246.9664
      1684.234        1312.390
 97  5  7 15 43 59.9990000  0  7 19  2 31  7 27 26 15               -0.000005978
   2394895.603 9   1854695.63747  22338903.019    22338904.9694   22338910.8364
     -2374.509       -1850.267
   -679477.451 9   -473501.94948  21099203.452    21099205.2534   21099210.7334
       505.927         394.229
   3666414.985 7   2841435.25745  24586173.406    24586174.8404   24586179.9034
     -3497.307       -2725.174
  -3280990.155 9  -2542102.45348  21744752.142    21744753.8134   21744759.9804
      2850.618        2221.261
   -100790.307 9    -77026.52548  20139999.558    20140001.6674   20140006.2384
      -148.698        -115.869
  -2688097.314 9  -2081929.28247  23368307.040    23368308.9504   23368314.3324
      2256.788        1758.536
  -2012588.955 9  -1553688.06246  24019657.133    24019659.5404   24019666.3524
      1671.958        1302.824
 97  5  7 15 44 29.9990000  0  7 19  2 31  7 27 26 15               -0.000007690
   2466270.729 9   1910312.59647  22352485.168    22352487.2584   22352493.0604
     -2383.883       -1857.571
   -694544.553 9   -485242.54248  21096336.343    21096338.1354   21096343.5144
       498.533         388.467
   3771407.63317   2923247.69154  24606152.752    24606153.9425          0.0005
     -3502.337       -2729.094
  -3366331.638 9  -2608602.28648  21728512.115    21728513.8864   21728520.0834
      2838.813        2212.062
    -96106.677 9    -73376.94948  20140890.814    20140893.0064   20140897.5244
      -163.584        -127.468
  -2755600.013 9  -2134528.76947  23355461.175    23355463.5864   23355469.0344
      2243.382        1748.090
  -2062543.269 8  -1592613.46346  24010151.130    24010153.4334   24010160.4444
      1658.253        1292.145
 97  5  7 15 44 59.9990000  0  7 19  2 31  7 27 26 15               -0.000009429
   2537903.055 9   1966129.98247  22366116.457    22366118.4764   22366124.2764
     -2392.398       -1864.206
   -709410.655 9   -496826.51448  21093507.611    21093509.2844   21093514.5714
       491.920         383.314
   3876522.54416   3005155.46854  24626156.571           0.0005          0.0005
     -3506.022       -2731.965
  -3451348.800 9  -2674849.39648  21712333.824    21712335.6114   21712341.8664
      2828.306        2203.875
    -91001.587 9    -69398.96548  20141862.489    20141864.5544   20141868.9544
      -177.447        -138.270
  -2822724.571 9  -2186833.60347  23342687.950    23342690.1754   23342695.5854
      2231.082        1738.505
  -2112110.674 9  -1631237.39346  24000718.518    24000721.1164   24000728.0114
      1645.571        1282.263
 97  5  7 15 45 29.9990000  0  6 19  2  7 27 26 15                  -0.000011198
   2609808.311 9   2022160.03147  22379799.826    22379801.7944   22379807.3854
     -2401.391       -1871.214
   -724072.930 9   -508251.66448  21090717.656    21090719.3334   21090724.4164
       485.302         378.157
  -3536039.210 9  -2740841.90248  21696217.841    21696219.7644   21696225.8834
      2817.260        2195.267
    -85466.084 9    -65085.59648  20142916.183    20142918.1454   20142922.3374
      -191.870        -149.509
  -2889476.404 9  -2238848.02447  23329985.529    23329987.9204   23329993.0814
      2218.683        1728.844
  -2161285.867 9  -1669555.70346  23991361.100    23991363.5724   23991370.1334
      1632.411        1272.009
 97  5  7 15 45 59.9990000  0  6 19  2  7 27 26 15                  -0.000012988
   2681987.089 9   2078403.21247  22393535.266    22393537.2124   22393542.6434
     -2410.048       -1877.959
   -738524.786 9   -519512.84148  21087967.946    21087969.4434   21087974.3844
       478.627         372.956
  -3620376.893 9  -2806559.55348  21680168.956    21680171.0204   21680177.0094
      2805.651        2186.222
    -79488.076 9    -60427.42848  20144054.350    20144055.9604   20144059.9584
      -206.138        -160.627
  -2955837.524 9  -2290557.96547  23317357.506    23317359.9994   23317364.9404
      2205.713        1718.737
  -2210051.592 9  -1707554.94146  23982081.472    23982083.9644   23982090.2844
      1618.996        1261.555
 97  5  7 15 46 29.9990000  0  6 19  2  7 27 26 15                  -0.000014792
   2754412.766 9   2134838.78047  22407317.554    22407319.5844   22407324.7984
     -2418.552       -1884.586
   -752794.519 9   -530632.10648  21085252.699    21085254.1124   21085258.9744
       472.698         368.336
  -3704377.411 9  -2872014.48748  21664184.521    21664186.4224   21664192.2784
      2794.234        2177.325
    -73101.185 9    -55450.63948  20145269.923    20145271.4864   20145275.3804
      -219.678        -171.178
  -3021808.130 9  -2341963.62447  23304803.888    23304806.3814   23304811.0804
      2192.210        1708.216
  -2258422.787 9  -1745246.78346  23972877.404    23972879.5004   23972885.5484
      1605.678        1251.178
 97  5  7 15 46 59.9990000  0  6 19  2  7 27 26 15                  -0.000016590
   2827101.458 9   2191479.29447  22421150.218    22421151.9734   22421157.0794
     -2427.497       -1891.556
   -766892.769 9   -541617.74748  21082569.993    21082571.3644   21082576.1994
       466.989         363.888
  -3788030.937 9  -2937199.03948  21648266.056    21648267.8264   21648273.4744
      2782.345        2168.061
    -66307.367 9    -50156.76848  20146562.821    20146564.4184   20146568.2304
      -233.493        -181.942
  -3087366.781 9  -2393048.26947  23292329.085    23292331.1754   23292335.6304
      2178.165        1697.271
  -2306391.839 9  -1782625.22946  23963749.187    23963751.1844   23963757.4414
      1592.084        1240.585
 97  5  7 15 47 29.9990000  0  6 19  2  7 27 26 15                  -0.000018378
   2900046.589 9   2248319.63647  22435031.283    22435033.1014   22435038.1404
     -2435.333       -1897.662
   -780832.693 9   -552480.01848  21079917.484    21079918.6994   21079923.5344
       462.248         360.193
  -3871321.004 9  -3002100.37848  21632416.882    21632418.3264   21632423.7944
      2770.294        2158.671
    -59107.497 9    -44546.49048  20147933.250    20147934.6344   20147938.3384
      -246.459        -192.046
  -3152505.823 9  -2443805.95347  23279933.884    23279935.6114   23279940.0374
      2164.242        1686.422
  -2353955.340 9  -1819687.65546  23954698.504    23954700.2764   23954706.3444
      1578.783        1230.221
 97  5  7 15 47 59.9990000  0  6 19  2  7 27 26 15                  -0.000020143
   2973230.871 9   2305346.32147  22448958.121    22448959.6414   22448964.7874
     -2444.322       -1904.666
   -794617.201 9   -563221.19448  21077294.479    21077295.6354   21077300.3854
       456.047         355.361
  -3954244.258 9  -3066715.88348  21616637.161    21616638.6394   21616643.9654
      2757.521        2148.718
    -51510.613 9    -38626.84948  20149379.046    20149380.3164   20149383.9754
      -260.666        -203.116
  -3217204.215 9  -2494220.28247  23267622.199    23267623.9634   23267628.2424
      2148.410        1674.086
  -2401110.732 9  -1856432.08546  23945725.596    23945726.8604   23945732.9594
      1564.270        1218.912
 97  5  7 15 48 29.9990000  0  6 19  2  7 27 26 15                  -0.000021880
   3046674.825 9   2362575.34847  22462933.971    22462935.6424   22462940.7874
     -2452.715       -1911.206
   -808230.855 9   -573829.22548  21074704.062    21074705.0924   21074709.7934
       450.947         351.387
  -4036811.375 9  -3131053.87148  21600925.248    21600926.6554   21600931.9064
      2746.332        2139.999
    -43497.382 9    -32382.78348  20150903.882    20150905.2094   20150908.8804
      -274.257        -213.707
  -3281442.052 9  -2544275.71247  23255398.784    23255399.9044   23255404.0514
      2133.644        1662.580
  -2447842.496 9  -1892846.43046  23936832.903    23936834.0934   23936840.0704
      1550.559        1208.228
 97  5  7 15 48 59.9990000  0  6 19  2  7 27 26 15                  -0.000023614
   3120374.717 9   2420003.81347  22476958.960    22476960.3454   22476965.4104
     -2460.821       -1917.523
   -821687.758 9   -584315.12448  21072143.392    21072144.3924   21072149.0304
       445.717         347.312
  -4119039.260 9  -3195127.52748  21585277.904    21585279.1934   21585284.3714
      2735.193        2131.319
    -35064.448 9    -25811.67748  20152508.781    20152509.9354   20152513.6434
      -288.383        -224.714
  -3345245.572 9  -2593992.72047  23243256.873    23243258.4274   23243262.6984
      2119.626        1651.657
  -2494159.340 9  -1928937.45246  23928019.248    23928020.3674   23928026.1044
      1536.846        1197.542
 97  5  7 15 49 29.9990000  0  6 19  2  7 27 26 15                  -0.000025362
   3194315.163 9   2477619.71347  22491029.211    22491030.7474   22491035.9064
     -2468.825       -1923.760
   -834978.870 9   -594671.83648  21069614.134    21069615.2564   21069619.8074
       440.084         342.923
  -4200933.224 9  -3258940.98648  21569693.790    21569695.2314   21569700.3324
      2724.232        2122.778
    -26201.255 9    -18905.30948  20154195.614    20154196.5914   20154200.3074
      -302.723        -235.888
  -3408627.923 9  -2643381.56747  23231195.398    23231197.1394   23231201.4774
      2105.524        1640.668
  -2540058.883 9  -1964703.31546  23919284.436    23919286.0464   23919291.7204
      1522.930        1186.699
 97  5  7 15 49 59.9990000  0  6 19  2  7 27 26 15                  -0.000027122
   3268510.648 9   2535434.35647  22505148.134    22505149.6954   22505154.8224
     -2477.575       -1930.578
   -848087.886 9   -604886.65548  21067119.713    21067120.7034   21067125.2184
       433.967         338.156
  -4282499.339 9  -3322498.98648  21554172.270    21554173.7064   21554178.7654
      2713.601        2114.494
    -16894.108 9    -11652.99848  20155966.623    20155967.7434   20155971.4144
      -317.623        -247.498
  -3471577.763 9  -2692433.38247  23219216.215    23219218.2144   23219222.6084
      2091.409        1629.669
  -2585533.072 9  -2000137.73546  23910630.767    23910632.6114   23910638.1744
      1508.848        1175.726
 97  5  7 15 50 29.9990000  0  6 19  2  7 27 26 15                  -0.000028907
   3342970.575 9   2593455.05047  22519317.780    22519319.0054   22519324.2004
     -2486.934       -1937.871
   -861021.045 9   -614964.43148  21064658.509    21064659.5824   21064664.1234
       427.711         333.281
  -4363748.253 9  -3385809.81748  21538711.288    21538712.5674   21538717.6804
      2702.140        2105.564
     -7151.687 9     -4061.50648  20157820.527    20157821.7074   20157825.3814
      -332.357        -258.979
  -3534122.893 9  -2741169.83947  23207314.340    23207316.3624   23207320.6994
      2077.694        1618.982
  -2630593.212 9  -2035249.46746  23902055.746    23902058.1154   23902063.6344
      1494.577        1164.605
 97  5  7 15 50 59.9990000  0  6 19  2  7 27 26 15                  -0.000030691
   3417726.607 9   2651706.47347  22533543.631    22533544.6904   22533549.7444
     -2496.210       -1945.099
   -873750.777 9   -624883.69148  21062236.015    21062237.1554   21062241.7254
       421.315         328.297
  -4444622.173 9  -3448828.44048  21523321.637    21523322.8314   21523327.9794
      2689.894        2096.021
      3047.332 9      3885.77348  20159761.129    20159762.4784   20159766.2444
      -347.201        -270.546
  -3596237.758 9  -2789571.03247  23195494.724    23195496.3634   23195500.6954
      2063.575        1607.981
  -2675209.669 9  -2070015.54746  23893565.367    23893567.8274   23893573.3594
      1480.168        1153.378
 97  5  7 15 51 29.9990000  0  6 19  2  7 27 26 15                  -0.000032482
   3492755.079 9   2710170.19747  22547820.710    22547822.1204   22547827.1804
     -2506.102       -1952.807
   -886293.251 9   -634657.04648  21059849.284    21059850.3664   21059854.9744
       414.468         322.962
  -4525139.107 9  -3511568.89848  21507999.712    21508001.0124   21508006.1484
      2677.480        2086.348
     13680.382 9     12171.25348  20161784.421    20161785.8804   20161789.6924
      -361.906        -282.005
  -3657923.530 9  -2837637.86047  23183756.231    23183757.8884   23183762.3204
      2048.479        1596.217
  -2719401.486 9  -2104450.73446  23885155.816    23885158.3064   23885163.7264
      1465.502        1141.950
 97  5  7 15 51 59.9990000  0  6 19  2  7 27 26 15                  -0.000034262
   3568082.771 9   2768867.06747  22562154.999    22562156.4234   22562161.6174
     -2515.215       -1959.908
   -898634.711 9   -644273.76648  21057500.728    21057501.8454   21057506.5194
       408.836         318.574
  -4605286.226 9  -3574021.19548  21492748.035    21492749.5104   21492754.5934
      2666.074        2077.460
     24745.886 9     20793.71448  20163890.238    20163891.6154   20163895.4634
      -375.444        -292.554
  -3719167.111 9  -2885360.12947  23172101.792    23172103.5634   23172107.9404
      2034.974        1585.694
  -2763155.446 9  -2138544.70046  23876829.638    23876832.0244   23876837.6074
      1451.837        1131.302
 97  5  7 15 52 29.9990000  0  6 19  2  7 27 26 15                  -0.000036042
   3643685.552 9   2827778.31347  22576541.636    22576543.1144   22576548.3424
     -2524.455       -1967.108
   -910796.313 9   -653750.33848  21055186.433    21055187.5374   21055192.2824
       402.261         313.450
  -4685073.116 9  -3636192.78048  21477565.017    21477566.5384   21477571.6224
      2653.242        2067.461
     36233.063 9     29744.75648  20166076.235    20166077.5614   20166081.4744
      -390.254        -304.094
  -3779988.428 9  -2932753.34847  23160527.936    23160529.6614   23160533.9064
      2020.027        1574.047
  -2806482.146 9  -2172305.72346  23868585.139    23868587.2054   23868592.8644
      1436.809        1119.591
 97  5  7 15 52 59.9990000  0  6 19  2  7 27 26 15                  -0.000037828
   3719537.271 9   2886883.51147  22590975.600    22590977.1334   22590982.4434
     -2532.456       -1973.342
   -922775.177 9   -663084.52248  21052906.761    21052907.9604   21052912.7344
       396.235         308.755
  -4764486.297 9  -3698073.17248  21462453.048    21462454.6064   21462459.7924
      2640.891        2057.837
     48164.005 9     39041.58248  20168346.407    20168347.8414   20168351.9224
      -405.261        -315.788
  -3840369.720 9  -2979803.70147  23149037.505    23149039.4004   23149043.6114
      2005.324        1562.590
  -2849368.223 9  -2205723.43346  23860424.286    23860426.3544   23860431.7024
      1422.064        1108.102
 97  5  7 15 53 29.9990000  0  6 19  2  7 27 26 15                  -0.000039624
   3795636.328 9   2946181.45647  22605456.600    22605458.2884   22605463.5544
     -2540.836       -1979.872
   -934565.596 9   -672271.85948  21050663.008    21050664.3164   21050669.0384
       389.731         303.686
  -4843524.179 9  -3759661.11748  21447412.661    21447414.1344   21447419.3754
      2628.074        2047.850
     60546.074 9     48689.93548  20170702.640    20170704.0264   20170708.1774
      -420.158        -327.396
  -3900311.839 9  -3026511.84847  23137631.178    23137632.8314   23137637.0464
      1990.862        1551.321
  -2891809.066 9  -2238794.21746  23852348.453    23852350.1544   23852355.3324
      1407.108        1096.448
 97  5  7 15 53 59.9990000  0  6 19  2  7 27 26 15                  -0.000041437
   3871977.206 9   3005667.81447  22619983.883    22619985.5324   22619990.6744
     -2548.510       -1985.852
   -946172.836 9   -681316.45548  21048454.260    21048455.5354   21048460.1944
       384.194         299.372
  -4922179.314 9  -3820950.82348  21432444.985    21432446.5624   21432451.7614
      2615.677        2038.190
     73372.506 9     58684.54548  20173143.173    20173144.7424   20173148.9514
      -434.996        -338.958
  -3959829.566 9  -3072889.29147  23126305.310    23126307.0314   23126311.3224
      1976.901        1540.442
  -2933805.993 9  -2271519.05846  23844356.988    23844358.2384   23844363.9674
      1392.667        1085.195
 97  5  7 15 54 29.9990000  0  6 19  2  7 27 26 15                  -0.000043271
   3948542.473 9   3065329.03247  22634553.839    22634555.4884   22634560.5014
     -2556.145       -1991.801
   -957609.843 9   -690228.40748  21046277.980    21046279.1824   21046283.8514
       377.969         294.521
  -5000462.036 9  -3881950.34248  21417548.059    21417549.8594   21417555.0214
      2602.893        2028.228
     86643.289 9     69025.40248  20175668.499    20175670.0174   20175674.2884
      -449.862        -350.542
  -4018914.516 9  -3118929.51047  23115061.897    23115063.5404   23115067.9144
      1961.995        1528.827
  -2975365.722 9  -2303903.24046  23836448.245    23836449.6704   23836455.4104
      1377.921        1073.705
 97  5  7 15 54 59.9990000  0  6 19  2  7 27 26 15                  -0.000045112
   4025358.559 9   3125185.70047  22649171.614    22649173.1554   22649178.1204
     -2565.207       -1998.863
   -968850.957 9   -698987.72048  21044138.935    21044140.1084   21044144.8014
       371.400         289.403
  -5078354.306 9  -3942645.60148  21402725.679    21402727.4184   21402732.5744
      2589.922        2018.121
    100363.522 9     79716.48148  20178279.332    20178280.8544   20178285.1774
      -464.709        -362.111
  -4077552.777 9  -3164621.63547  23103903.117    23103905.0704   23103909.4614
      1947.134        1517.247
  -3016472.024 9  -2335934.11846  23828626.355    23828627.2984   23828633.1544
      1362.542        1061.721
 97  5  7 15 55 29.9990000  0  6 19  2  7 27 26 15                  -0.000046944
   4102456.985 9   3185262.35647  22663843.070    22663844.4494   22663849.3944
     -2574.333       -2005.974
   -979894.083 9   -707592.74948  21042037.656    21042038.6874   21042043.4184
       365.012         284.425
  -5155864.568 9  -4003043.19748  21387975.898    21387977.6764   21387982.8144
      2577.588        2008.510
    114519.760 9     90747.30748  20180973.355    20180974.7194   20180979.0594
      -478.986        -373.236
  -4135739.697 9  -3209962.07947  23092830.725    23092832.5024   23092836.9164
      1932.182        1505.596
  -3057122.207 8  -2367609.57646  23820890.856    23820891.6924   23820897.8604
      1347.545        1050.035
 97  5  7 15 55 59.9990000  0  6 19  2  7 27 26 15                  -0.000048774
   4179824.584 9   3245548.76547  22678565.399    22678567.0334   22678571.8434
     -2583.328       -2012.983
   -990754.255 9   -716055.22548  21039971.067    21039972.0614   21039976.7884
       359.203         279.898
  -5233013.233 9  -4063159.03148  21373294.974    21373296.7214   21373301.8714
      2565.815        1999.336
    129106.447 9    102113.54148  20183749.036    20183750.5054   20183754.8594
      -493.338        -384.419
  -4193475.234 9  -3254950.80547  23081843.823    23081845.7254   23081850.3124
      1917.053        1493.808
  -3097316.586 9  -2398929.85446  23813241.236    23813242.7934   23813249.2744
      1332.264        1038.128
 97  5  7 15 56 29.9990000  0  6 19  2  7 27 26 15                  -0.000050600
   4257456.928 9   3306041.47147  22693338.575    22693339.9654   22693344.9144
     -2592.256       -2019.940
  -1001441.230 9   -724382.73548  21037937.199    21037938.4214   21037943.1764
       353.168         275.196
  -5309807.917 9  -4122999.03748  21358681.563    21358683.2024   21358688.3044
      2553.523        1989.758
    144119.332 9    113811.88948  20186606.129    20186607.3754   20186611.7634
      -507.716        -395.623
  -4250762.506 9  -3299590.22947  23070942.300    23070944.3224   23070948.9664
      1902.029        1482.101
  -3137058.595 9  -2429897.64646  23805678.426    23805680.2684   23805686.6794
      1317.045        1026.269
 97  5  7 15 56 59.9990000  0  6 19  2  7 27 26 15                  -0.000052419
   4335359.287 9   3366744.58347  22708162.916    22708164.3064   22708169.2774
     -2601.145       -2026.866
  -1011958.936 9   -732578.35048  21035935.932    21035936.9784   21035941.7794
       348.139         271.277
  -5386228.597 9  -4182547.61248  21344139.412    21344140.8754   21344145.9594
      2541.309        1980.241
    159570.311 9    125851.59848  20189546.268    20189547.6444   20189552.0404
      -522.287        -406.977
  -4307599.183 9  -3343878.53747  23060126.908    23060128.6974   23060133.3584
      1887.045        1470.425
  -3176339.794 9  -2460506.40246  23798203.844    23798205.3634   23798211.5294
      1301.795        1014.386
 97  5  7 15 57 29.9990000  0  6 19  2  7 27 26 15                  -0.000054230
   4413523.718 9   3427651.89047  22723037.062    22723038.5744   22723043.5604
     -2609.662       -2033.503
  -1022325.320 9   -740656.05448  21033963.070    21033964.2904   21033969.1404
       342.858         267.162
  -5462276.744 9  -4241805.89648  21329668.055    21329669.4624   21329674.5064
      2528.541        1970.292
    175467.478 9    138238.98948  20192571.369    20192572.7824   20192577.2404
      -537.566        -418.882
  -4363972.280 9  -3387805.62647  23049399.575    23049401.3264   23049405.8494
      1871.299        1458.155
  -3215159.552 9  -2490755.54146  23790817.025    23790818.2814   23790824.4374
      1286.099        1002.155
 97  5  7 15 57 59.9990000  0  6 19  2  7 27 26 15                  -0.000056040
   4491928.854 9   3488746.78647  22737957.251    22737958.6474   22737963.6464
     -2617.569       -2039.664
  -1032540.041 9   -748615.57148  21032019.338    21032020.4934   21032025.3214
       337.837         263.250
  -5537944.944 9  -4300768.11548  21315268.996    21315270.3384   21315275.3964
      2515.766        1960.337
    191812.706 9    150975.51948  20195681.660    20195683.1634   20195687.6564
      -552.291        -430.357
  -4419884.145 9  -3431373.30747  23038760.265    23038761.6304   23038766.1764
      1855.892        1446.150
  -3253516.590 9  -2520644.14346  23783517.673    23783519.0224   23783525.2394
      1270.889         990.303
 97  5  7 15 58 29.9990000  0  6 19  2  7 27 26 15                  -0.000057844
   4570576.133 9   3550030.33547  22752923.241    22752924.7664   22752929.7544
     -2625.051       -2045.494
  -1042589.161 9   -756446.05148  21030107.041    21030108.1634   21030113.0084
       332.473         259.070
  -5613214.196 9  -4359419.46848  21300945.573    21300947.0794   21300952.1434
      2502.735        1950.183
    208612.756 9    164066.45448  20198878.564    20198880.1714   20198884.5974
      -567.134        -441.923
  -4475317.958 9  -3474568.46947  23028211.490    23028212.8594   23028217.4774
      1840.300        1434.000
  -3291407.641 9  -2550169.63346  23776306.914    23776308.5634   23776314.6594
      1255.705         978.471
 97  5  7 15 58 59.9990000  0  6 19  2  7 27 26 15                  -0.000059645
   4649458.844 9   3611497.35347  22767934.094    22767935.7314   22767940.7234
     -2633.864       -2052.361
  -1052455.915 9   -764134.42748  21028229.305    21028230.5204   21028235.4614
       325.164         253.375
  -5688086.738 9  -4417761.69748  21286697.638    21286699.2934   21286704.3684
      2488.816        1939.337
    225866.975 9    177511.29148  20202162.064    20202163.6514   20202167.9384
      -583.069        -454.339
  -4530269.668 9  -3517387.98447  23017754.312    23017755.8574   23017760.5704
      1823.213        1420.685
  -3328828.053 9  -2579328.37446  23769185.988    23769187.6934   23769193.8054
      1238.899         965.376
 97  5  7 15 59 29.9990000  0  6 19  2  7 27 26 15                  -0.000061444
   4728582.017 9   3673151.74947  22782991.052    22782992.3764   22782997.4944
     -2640.989       -2057.914
  -1062112.805 9   -771659.27648  21026391.858    21026392.8424   21026397.8364
       318.520         248.197
  -5762568.317 9  -4475799.27648  21272524.287    21272525.8854   21272530.9524
      2476.534        1929.767
    243570.116 9    191305.94048  20205531.063    20205532.5314   20205536.7134
      -597.243        -465.384
  -4584737.533 9  -3559830.47047  23007389.158    23007390.9044   23007395.6734
      1807.962        1408.802
  -3365763.226 9  -2608109.01846  23762157.030    23762158.9854   23762165.1434
      1223.329         953.243
 97  5  7 15 59 59.9990000  0  6 19  2  7 27 26 15                  -0.000063256
   4807928.918 9   3734980.47147  22798090.621    22798091.6104   22798096.8194
     -2649.249       -2064.350
  -1071560.941 9   -779021.45848  21024594.035    21024594.9374   21024599.9374
       311.055         242.381
  -5836676.764 9  -4533546.10448  21258422.084    21258423.5054   21258428.5524
      2463.622        1919.705
    261704.714 9    205436.78648  20208981.957    20208983.4484   20208987.6004
      -612.094        -476.956
  -4638746.103 9  -3601915.07347  22997111.916    22997113.5134   22997118.1474
      1792.199        1396.519
  -3402228.794 9  -2636523.71246  23755218.351    23755219.8224   23755226.0474
      1207.351         940.793
 97  5  7 16  0 29.9990000  0  6 19  2  7 27 26 15                  -0.000065099
   4887499.986 9   3796983.86547  22813232.415    22813233.4494   22813238.7984
     -2656.580       -2070.062
  -1080813.157 9   -786230.98048  21022833.350    21022834.3374   21022839.2974
       304.820         237.522
  -5910429.299 9  -4591015.59548  21244387.518    21244388.8494   21244393.8944
      2452.266        1910.857
    280259.417 9    219894.98648  20212512.822    20212514.3064   20212518.4214
      -625.719        -487.573
  -4692319.564 9  -3643660.61547  22986917.437    22986918.8414   22986923.3924
      1778.520        1385.860
  -3438241.921 9  -2664585.86746  23748365.640    23748366.7424   23748372.8194
      1192.578         929.282
 97  5  7 16  0 59.9990000  0  6 19  2  7 27 26 15                  -0.000066964
   4967333.305 9   3859191.61347  22828424.435    22828425.1554   22828430.6174
     -2665.554       -2077.055
  -1089848.733 9   -793271.68848  21021113.853    21021114.9994   21021119.8734
       297.774         232.032
  -5983807.395 9  -4648193.31748  21230423.792    21230425.4254   21230430.4714
      2439.556        1900.953
    299253.912 9    234695.88948  20216127.352    20216128.8594   20216132.9414
      -640.680        -499.231
  -4745451.485 9  -3685062.10947  22976806.486    22976808.1124   22976812.7424
      1763.540        1374.187
  -3473777.857 9  -2692276.18946  23741603.647    23741604.5884   23741610.6414
      1176.488         916.744
 97  5  7 16  1 29.9990000  0  6 19  2  7 27 26 15                  -0.000068841
   5047444.763 9   3921616.10647  22843668.237    22843669.8154   22843675.3454
     -2674.943       -2084.371
  -1098682.343 9   -800155.01548  21019432.897    21019434.0984   21019438.8594
       291.452         227.105
  -6056790.889 9  -4705063.55048  21216535.351    21216537.0494   21216542.1494
      2426.095        1890.464
    318712.537 9    249858.44448  20219830.116    20219831.6714   20219835.7454
      -656.489        -511.550
  -4798127.890 9  -3726108.65247  22966782.534    22966784.1004   22966788.6804
      1748.362        1362.360
  -3508825.959 9  -2719586.38246  23734933.814    23734935.1834   23734941.2624
      1160.249         904.090
 97  5  7 16  1 59.9990000  0  6 19  2  7 27 26 15                  -0.000070733
   5127824.030 9   3984249.27947  22858963.823    22858965.5064   22858971.0204
     -2683.750       -2091.234
  -1107349.157 9   -806908.37748  21017783.611    21017784.8324   21017789.5604
       286.313         223.101
  -6129381.391 9  -4761627.56148  21202721.859    21202723.4374   21202728.5924
      2413.091        1880.331
    338631.405 9    265379.62448  20223620.597    20223622.0614   20223626.1944
      -671.387        -523.159
  -4850363.596 9  -3766811.80347  22956842.546    22956843.9994   22956848.5064
      1733.894        1351.086
  -3543406.777 9  -2746532.46446  23728353.339    23728354.8084   23728360.7254
      1144.980         892.192
 97  5  7 16  2 29.9990000  0  6 19  2  7 27 26 15                  -0.000072630
   5208475.002 9   4047094.16947  22874310.816    22874312.9174   22874318.5124
     -2692.198       -2097.817
  -1115849.156 9   -813531.74548  21016166.070    21016167.2504   21016172.0294
       281.211         219.125
  -6201559.561 9  -4817870.28048  21188987.056    21188988.3644   21188993.5514
      2399.458        1869.707
    359010.057 9    281259.08248  20227498.604    20227499.9414   20227504.1584
      -686.518        -534.949
  -4902147.244 9  -3807162.68947  22946988.262    22946989.8564   22946994.3724
      1718.956        1339.446
  -3577505.309 9  -2773102.71646  23721864.399    23721865.9924   23721871.8614
      1128.989         879.732
 97  5  7 16  2 59.9990000  0  6 19  2  7 27 26 15                  -0.000074523
   5289375.395 9   4110133.41647  22889705.856    22889707.8974   22889713.2614
     -2700.581       -2104.349
  -1124206.955 9   -820044.30848  21014575.522    21014576.7394   21014581.5544
       276.420         215.392
  -6273320.169 9  -4873787.62148  21175331.433    21175332.8004   21175337.9644
      2385.025        1858.461
    379854.050 9    297501.14248  20231465.033    20231466.3804   20231470.6684
      -702.613        -547.491
  -4953462.605 9  -3847148.68047  22937223.292    22937224.8114   22937229.3874
      1702.525        1326.643
  -3611118.966 9  -2799295.14146  23715467.547    23715469.5864   23715475.5044
      1112.357         866.772
 97  5  7 16  3 29.9990000  0  6 19  2  7 27 26 15                  -0.000076416
   5370495.541 9   4173343.86747  22905142.816    22905144.7334   22905149.9934
     -2708.110       -2110.216
  -1132440.691 9   -826460.20848  21013008.686    21013009.8764   21013014.6934
       271.746         211.750
  -6344674.485 9  -4929388.37648  21161753.096    21161754.5094   21161759.7024
      2371.338        1847.796
    401150.840 9    314096.03248  20235517.594    20235518.9644   20235523.3344
      -717.574        -559.149
  -5004307.629 9  -3886768.18447  22927547.827    22927549.3294   22927553.8984
      1686.528        1314.178
  -3644254.764 9  -2825115.25446  23709162.124    23709164.0504   23709169.8204
      1096.176         854.163
 97  5  7 16  3 59.9990000  0  6 19  2  7 27 26 15                  -0.000078290
   5451849.358 9   4236736.43147  22920624.075    22920625.7774   22920630.9494
     -2715.082       -2115.648
  -1140508.352 9   -832746.69648  21011473.514    21011474.6884   21011479.4624
       266.413         207.595
  -6415608.363 9  -4984661.51348  21148254.667    21148256.1924   21148261.4524
      2358.038        1837.432
    422891.747 9    331036.99348  20239654.606    20239656.1114   20239660.5434
      -731.410        -569.930
  -5054652.917 9  -3925998.27947  22917967.307    22917968.9034   22917973.5134
      1670.180        1301.439
  -3676894.013 9  -2850548.42046  23702951.062    23702952.9674   23702958.8444
      1080.143         841.670
 97  5  7 16  4 29.9990000  0  6 19  2  7 27 26 15                  -0.000080162
   5533398.050 9   4300280.84347  22936142.453    22936143.9884   22936149.1474
     -2722.002       -2121.041
  -1148427.118 9   -838917.16448  21009966.585    21009967.8374   21009972.5504
       261.007         203.382
  -6486158.109 9  -5039635.32948  21134829.283    21134831.0014   21134836.2794
      2344.894        1827.190
    445044.667 9    348299.00048  20243870.365    20243871.6994   20243876.1634
      -745.981        -581.284
  -5104512.321 9  -3964849.75447  22908479.142    22908480.9534   22908485.5694
      1653.326        1288.306
  -3709062.270 9  -2875614.56746  23696830.034    23696831.6864   23696837.2984
      1063.962         829.061
 97  5  7 16  4 59.9990000  0  6 19  2  7 27 26 15                  -0.000082018
   5615169.537 9   4363998.84947  22951702.743    22951704.6864   22951709.7784
     -2729.545       -2126.918
  -1156168.212 9   -844949.17948  21008493.537    21008494.7514   21008499.4724
       254.756         198.511
  -6556308.116 9  -5094297.66448  21121480.258    21121481.9224   21121487.2384
      2331.705        1816.913
    467636.358 9    365902.90448  20248169.312    20248170.8224   20248175.2764
      -760.110        -592.293
  -5153855.737 9  -4003299.16647  22899089.487    22899091.2034   22899095.8394
      1636.278        1275.022
  -3740738.046 9  -2900296.96446  23690802.184    23690804.1464   23690809.5554
      1047.609         816.319
 97  5  7 16  5 29.9990000  0  6 19  2  7 27 26 15                  -0.000083854
   5697181.921 9   4427904.58647  22967308.994    22967311.2324   22967316.1454
     -2737.906       -2133.433
  -1163695.582 9   -850814.65448  21007061.122    21007062.3384   21007067.0984
       247.385         192.768
  -6626054.243 9  -5148645.28148  21108207.996    21108209.7434   21108215.0304
      2318.097        1806.309
    490651.361 9    383836.66648  20252548.983    20252550.5114   20252554.9264
      -774.255        -603.316
  -5202685.543 9  -4041348.37047  22889797.208    22889799.2574   22889803.9224
      1619.238        1261.744
  -3771913.235 9  -2924589.29446  23684870.914    23684871.8054   23684877.2904
      1030.844         803.255
 97  5  7 16  5 59.9990000  0  6 19  2  7 27 26 15                  -0.000085677
   5779445.499 9   4492006.02747  22982963.237    22982965.5524   22982970.4944
     -2746.377       -2140.034
  -1171013.879 9   -856517.22248  21005668.462    21005669.7294   21005674.4984
       240.665         187.531
  -6695385.563 9  -5202669.67448  21095014.943    21095016.5354   21095021.7484
      2304.026        1795.345
    514096.635 9    402105.69648  20257010.522    20257012.0104   20257016.4674
      -789.040        -614.836
  -5251017.596 9  -4079009.70947  22880599.974    22880602.0544   22880606.6904
      1603.081        1249.154
  -3802587.590 9  -2948491.35946  23679034.197    23679034.5894   23679040.1104
      1014.072         790.186
 97  5  7 16  6 29.9990000  0  6 19  2  7 27 26 15                  -0.000087505
   5861971.311 9   4556311.81547  22998667.228    22998669.7644   22998674.7254
     -2754.917       -2146.689
  -1178144.538 9   -862073.57348  21004311.619    21004312.8504   21004317.5984
       234.914         183.050
  -6764296.648 9  -5256366.61048  21081901.552    21081903.2754   21081908.3874
      2290.181        1784.557
    537998.885 9    420730.81248  20261559.094    20261560.5114   20261564.9544
      -804.143        -626.605
  -5298881.730 9  -4116306.43447  22871492.146    22871493.8464   22871498.4214
      1588.151        1237.520
  -3832759.277 9  -2972001.74846  23673293.089    23673293.2604   23673298.6394
       997.567         777.325
 97  5  7 16  6 59.9990000  0  6 19  2  7 27 26 15                  -0.000089340
   5944761.993 9   4620824.00647  23014421.827    23014424.2914   23014429.3154
     -2763.698       -2153.531
  -1185089.654 9   -867485.35148  21002989.997    21002991.2564   21002995.9674
       228.826         178.306
  -6832769.925 9  -5309722.39048  21068871.653    21068873.2484   21068878.2884
      2275.514        1773.128
    562360.450 9    439713.84348  20266194.841    20266196.4324   20266200.8084
      -819.455        -638.536
  -5346287.838 9  -4153246.25447  22862471.064    22862472.8214   22862477.2924
      1572.900        1225.636
  -3862421.757 9  -2995115.35946  23667648.244    23667648.7544   23667653.9844
       980.572         764.082
 97  5  7 16  7 29.9990000  0  6 19  2  7 27 26 15                  -0.000091197
   6027802.157 9   4685530.59747  23030224.299    23030226.3894   23030231.4364
     -2771.541       -2159.642
  -1191873.493 9   -872771.45848  21001699.272    21001700.3504   21001704.9864
       224.320         174.795
  -6900820.724 9  -5362748.97848  21055921.902    21055923.5444   21055928.5454
      2262.025        1762.617
    587185.221 9    459057.80648  20270918.895    20270920.4564   20270924.8224
      -834.894        -650.567
  -5393252.749 9  -4189842.28547  22853533.981    22853535.6584   22853540.1444
      1558.741        1214.603
  -3891584.552 9  -3017839.57946  23662098.292    23662099.1364   23662104.4494
       964.351         751.442
 97  5  7 16  7 59.9990000  0  6 19  2  7 27 26 15                  -0.000093080
   6111094.110 9   4750433.37047  23046074.672    23046076.2694   23046081.4124
     -2781.280       -2167.231
  -1198509.728 9   -877942.54748  21000436.538    21000437.5114   21000442.1204
       217.858         169.759
  -6968452.880 9  -5415449.34248  21043051.859    21043053.5604   21043058.5424
      2246.840        1750.784
    612495.993 9    478780.48048  20275735.468    20275736.9404   20275741.3264
      -852.432        -664.233
  -5439771.917 9  -4226090.98647  22844681.402    22844683.2924   22844687.7914
      1542.246        1201.750
  -3920244.036 9  -3040171.62946  23656644.274    23656645.4454   23656650.5844
       946.159         737.267
 97  5  7 16  8 29.9990000  0  6 19  2  7 27 26 15                  -0.000094970
   6194639.910 9   4815533.95847  23061973.067    23061974.5894   23061979.6424
     -2788.223       -2172.641
  -1204973.016 9   -882978.87248  20999206.430    20999207.5834   20999212.1924
       212.923         165.914
  -7035672.113 9  -5467827.94748  21030260.641    21030262.1264   21030267.1264
      2234.327        1741.034
    638298.907 9    498886.64048  20280645.608    20280647.1204   20280651.4644
      -867.635        -676.079
  -5485805.980 9  -4261961.68047  22835921.714    22835923.3914   22835927.7744
      1526.386        1189.392
  -3948385.871 9  -3062100.31146  23651288.839    23651290.2534   23651295.2464
       929.894         724.593
 97  5  7 16  8 59.9990000  0  6 19  2  7 27 26 15                  -0.000096867
   6278401.547 9   4880802.72647  23077912.072    23077913.8494   23077918.9704
     -2795.843       -2178.579
  -1211274.106 9   -887888.80748  20998007.284    20998008.4884   20998013.1774
       207.241         161.486
  -7102507.365 9  -5519907.34548  21017542.382    21017543.7114   21017548.7904
      2221.637        1731.146
    664560.301 9    519350.05148  20285643.039    20285644.5124   20285648.8404
      -883.051        -688.092
  -5531337.639 9  -4297440.90147  22827257.588    22827259.0404   22827263.3644
      1509.160        1175.969
  -3976024.161 9  -3083636.64346  23646029.548    23646030.7474   23646035.8634
       912.798         711.271
 97  5  7 16  9 29.9990000  0  6 19  2  7 27 26 15                  -0.000098758
   6362404.211 9   4946259.30947  23093897.545    23093899.0814   23093904.2244
     -2803.947       -2184.894
  -1217397.805 9   -892660.52248  20996841.913    20996843.1314   20996847.9564
       201.364         156.907
  -7168961.039 9  -5571689.41148  21004896.700    21004897.9384   21004903.0494
      2208.792        1721.137
    691287.499 9    540176.43348  20290729.043    20290730.5114   20290734.8614
      -898.331        -699.998
  -5576351.504 9  -4332516.64347  22818691.447    22818693.1464   22818697.4664
      1492.029        1162.620
  -4003145.126 9  -3104769.85146  23640868.915    23640869.9244   23640875.0274
       895.612         697.879
 97  5  7 16  9 59.9990000  0  6 19  2  7 27 26 15                  -0.000100645
   6446631.206 9   5011890.68947  23109924.902    23109926.8884   23109932.1224
     -2810.908       -2190.318
  -1223354.796 9   -897302.32648  20995708.299    20995709.4764   20995714.4284
       196.073         152.784
  -7235035.258 9  -5623175.79848  20992322.954    20992324.4074   20992329.5884
      2196.206        1711.329
    718454.833 9    561345.78748  20295898.916    20295900.2344   20295904.6014
      -912.552        -711.079
  -5620855.645 9  -4367195.18547  22810223.109    22810224.2854   22810228.6504
      1475.177        1149.489
  -4029762.410 9  -3125510.59346  23635803.926    23635804.8614   23635809.7744
       879.115         685.025
 97  5  7 16 10 29.9990000  0  6 19  2  7 27 26 15                  -0.000102516
   6531084.306 9   5077698.26947  23125996.386    23125997.9664   23126002.9834
     -2818.847       -2196.504
  -1229132.962 9   -901804.79748  20994608.747    20994609.8954   20994614.9094
       189.816         147.909
  -7300704.207 9  -5674346.38148  20979826.537    20979828.0064   20979833.2264
      2182.084        1700.325
    746073.750 9    582867.00848  20301154.404    20301155.8934   20301160.3164
      -928.241        -723.305
  -5664829.947 9  -4401460.87347  22801854.726    22801856.1434   22801860.7484
      1457.063        1135.374
  -4055863.424 9  -3145849.03346  23630837.249    23630837.8474   23630843.0244
       861.386         671.210
 97  5  7 16 10 59.9990000  0  6 19  2  7 27 26 15                  -0.000104375
   6615772.839 9   5143689.29347  23142111.599    23142113.6304   23142118.7034
     -2827.336       -2203.119
  -1234736.079 9   -906170.86348  20993542.635    20993543.6984   20993548.6674
       183.684         143.130
  -7365945.549 9  -5725183.76848  20967411.529    20967412.9854   20967418.2344
      2167.244        1688.762
    774155.748 9    604749.06748  20306498.124    20306499.6964   20306504.1124
      -944.148        -735.700
  -5708283.101 9  -4435320.46947  22793585.447    22793587.2304   22793591.9364
      1439.902        1122.002
  -4081439.845 9  -3165778.71746  23625970.283    23625970.7044   23625976.0784
       843.583         657.337
 97  5  7 16 11 29.9990000  0  6 19  2  7 27 26 15                  -0.000106238
   6700694.873 9   5209862.26447  23158271.906    23158273.9254   23158278.8124
     -2834.496       -2208.698
  -1240181.796 9   -910414.28148  20992506.270    20992507.4544   20992512.4034
       178.900         139.403
  -7430761.243 9  -5775689.48248  20955077.434    20955078.9404   20955084.2094
      2153.199        1677.817
    802705.119 9    626995.31848  20311930.974    20311932.4874   20311936.8194
      -959.674        -747.798
  -5751249.282 9  -4468800.60847  22785409.215    22785411.0564   22785415.7354
      1423.913        1109.543
  -4106503.071 9  -3185308.49046  23621200.356    23621201.4464   23621206.7154
       826.764         644.232
 97  5  7 16 11 59.9990000  0  6 19  2  7 27 26 15                  -0.000108097
   6785839.188 9   5276208.45147  23174474.663    23174476.4134   23174481.3084
     -2841.530       -2214.179
  -1245470.738 9   -914535.53248  20991499.828    20991501.0454   20991505.9274
       173.828         135.450
  -7495135.195 9  -5825850.98048  20942827.271    20942828.8914   20942834.2144
      2138.554        1666.406
    831733.132 9    649614.53448  20317455.015    20317456.3854   20317460.6434
      -975.217        -759.909
  -5793709.304 9  -4501886.33447  22777329.635    22777331.1824   22777335.8554
      1407.119        1096.456
  -4131043.646 9  -3204430.99346  23616530.494    23616531.4254   23616536.8224
       809.444         630.736
 97  5  7 16 12 29.9990000  0  6 19  2  7 27 26 15                  -0.000109956
   6871197.439 9   5342721.32047  23190717.674    23190719.5204   23190724.4114
     -2848.902       -2219.924
  -1250594.887 9   -918528.38248  20990524.844    20990525.9794   20990530.8224
       167.956         130.875
  -7559060.019 9  -5875662.51048  20930662.701    20930664.3554   20930669.7024
      2123.309        1654.526
    861230.439 9    672599.43248  20323068.050    20323069.5974   20323073.7574
      -991.025        -772.227
  -5835662.399 9  -4534577.06147  22769346.534    22769347.8214   22769352.5224
      1389.931        1083.063
  -4155054.322 9  -3223140.64346  23611961.229    23611962.4564   23611967.7294
       791.392         616.669
 97  5  7 16 12 59.9990000  0  6 19  2  7 27 26 15                  -0.000111806
   6956773.630 9   5409404.03547  23207002.160    23207004.2034   23207009.1674
     -2856.699       -2225.999
  -1255552.272 9   -922391.28048  20989581.358    20989582.6074   20989587.4234
       161.895         126.152
  -7622535.287 9  -5925123.73248  20918583.872    20918585.4134   20918590.7514
      2107.889        1642.511
    891189.133 9    695943.86048  20328768.880    20328770.5954   20328774.7054
     -1006.752        -784.482
  -5877110.849 9  -4566874.55947  22761459.086    22761460.5444   22761465.1064
      1372.773        1069.693
  -4178533.859 9  -3241436.36346  23607492.829    23607494.3704   23607499.6584
       773.292         602.565
 97  5  7 16 13 29.9990000  0  6 19  2  7 27 26 15                  -0.000113654
   7042570.735 9   5476258.88047  23223328.743    23223330.8664   23223335.8484
     -2863.433       -2231.246
  -1260324.860 9   -926110.18648  20988673.227    20988674.4484   20988679.2224
       155.924         121.499
  -7685549.543 9  -5974225.72848  20906592.491    20906594.1704   20906599.5224
      2092.613        1630.608
    921613.697 9    719651.30048  20334558.528    20334560.2244   20334564.3204
     -1021.740        -796.161
  -5918040.592 9  -4598767.86747  22753670.264    22753671.8824   22753676.3454
      1355.590        1056.304
  -4201473.102 9  -3259311.06746  23603127.528    23603129.1434   23603134.3584
       755.676         588.838
 97  5  7 16 13 59.9990000  0  6 19  2  7 27 26 15                  -0.000115497
   7128573.128 9   5543273.70846  23239694.884    23239696.5954   23239701.5054
     -2869.679       -2236.113
  -1264913.296 9   -929685.59348  20987800.102    20987801.3044   20987806.0544
       150.207         117.044
  -7748100.678 9  -6022966.85248  20894689.495    20894691.1384   20894696.4584
      2077.748        1619.024
    952479.096 9    743702.24548  20340432.094    20340433.7574   20340437.8874
     -1035.778        -807.100
  -5958458.928 9  -4630262.67147  22745978.791    22745980.5194   22745984.9984
      1339.433        1043.714
  -4223886.384 9  -3276775.99046  23598862.909    23598864.0874   23598869.3674
       738.842         575.721
 97  5  7 16 14 29.9990000  0  6 19  2  7 27 26 15                  -0.000117360
   7214775.901 9   5610444.65247  23256098.287    23256100.4014   23256105.4794
     -2877.879       -2242.503
  -1269319.398 9   -933118.91648  20986961.677    20986962.8954   20986967.5664
       142.968         111.404
  -7810206.711 9  -6071361.13948  20882871.437    20882872.8034   20882878.1114
      2062.132        1606.856
    983784.649 9    768096.17548  20346389.158    20346390.9954   20346395.2234
     -1051.923        -819.680
  -5998389.524 9  -4661377.42247  22738380.604    22738381.9894   22738386.5214
      1321.983        1030.117
  -4245788.185 9  -3293842.32046  23594694.772    23594696.1294   23594701.7194
       720.708         561.591
 97  5  7 16 14 59.9990000  0  6 19  2  7 27 26 15                  -0.000119218
   7301243.793 9   5677822.17747  23272552.645    23272554.7444   23272559.8414
     -2886.248       -2249.024
  -1273507.130 9   -936382.08748  20986164.951    20986166.0114   20986170.6784
       136.536         106.392
  -7871841.689 9  -6119388.37748  20871142.582    20871144.0504   20871149.3734
      2047.250        1595.260
   1015584.065 9    792874.92248  20352440.393    20352442.2044   20352446.5064
     -1067.745        -832.009
  -6037795.300 9  -4692083.23647  22730881.738    22730883.3074   22730887.8204
      1305.465        1017.245
  -4267136.736 9  -3310477.56146  23590632.142    23590633.4804   23590639.3934
       702.899         547.714
 97  5  7 16 15 29.9990000  0  6 19  2  7 27 26 15                  -0.000121099
   7387942.696 9   5745379.74847  23289050.714    23289053.1334   23289058.0424
     -2894.317       -2255.312
  -1277515.227 9   -939505.27748  20985402.124    20985403.2694   20985408.0124
       130.354         101.575
  -7933047.797 9  -6167081.42948  20859495.419    20859496.9594   20859502.2354
      2032.722        1583.939
   1047842.657 9    818011.47648  20358579.158    20358580.7884   20358585.1154
     -1083.343        -844.163
  -6076723.201 9  -4722416.66247  22723473.556    22723475.6114   22723480.1084
      1289.232        1004.596
  -4287969.514 9  -3326710.90946  23586667.871    23586669.1244   23586674.8754
       685.474         534.135
 97  5  7 16 15 59.9990000  0  6 19  2  7 27 26 15                  -0.000122978
   7474904.534 9   5813142.17547  23305600.008    23305601.4214   23305606.4414
     -2902.893       -2261.995
  -1281329.583 9   -942477.50448  20984676.306    20984677.4594   20984682.2454
       124.091          96.694
  -7993815.849 9  -6214433.15048  20847931.639    20847933.1924   20847938.4424
      2018.632        1572.960
   1080588.146 9    843527.43948  20364810.401    20364811.9954   20364816.3354
     -1099.626        -856.851
  -6115144.554 9  -4752355.37847  22716162.346    22716164.2894   22716168.8614
      1272.141         991.279
  -4308261.225 9  -3342522.64447  23582806.028    23582807.6834   23582813.5654
       667.320         519.990
 97  5  7 16 16 29.9990000  0  6 19  2  7 27 26 15                  -0.000124841
   7562137.964 9   5881116.24346  23322200.072    23322201.5664   23322206.4374
     -2911.962       -2269.061
  -1284947.542 9   -945296.69648  20983987.786    20983988.9914   20983993.8214
       117.971          91.925
  -8054151.565 9  -6261447.97948  20836450.133    20836451.6944   20836456.9224
      2004.365        1561.843
   1113831.380 9    869431.24448  20371136.445    20371137.9834   20371142.2664
     -1115.828        -869.476
  -6153033.062 9  -4781878.89347  22708952.994    22708954.3414   22708958.9954
      1254.441         977.486
  -4327990.417 9  -3357896.06647  23579051.859    23579053.4884   23579059.3964
       648.668         505.456
 97  5  7 16 16 59.9990000  0  6 19  2  7 27 26 15                  -0.000126687
   7649631.022 9   5949292.63046  23338848.987    23338850.9054   23338855.8214
     -2919.687       -2275.081
  -1288393.884 9   -947982.15448  20983332.037    20983333.1334   20983338.0594
       112.838          87.926
  -8114061.194 9  -6308130.78448  20825049.606    20825051.2004   20825056.4634
      1990.541        1551.071
   1147548.485 9    895704.30448  20377552.517    20377554.0904   20377558.3924
     -1130.907        -881.226
  -6190398.861 9  -4810995.10447  22701842.253    22701843.7844   22701848.5294
      1237.749         964.480
  -4347167.055 9  -3372838.92247  23575402.697    23575404.2614   23575410.2274
       630.867         491.585
 97  5  7 16 17 29.9990000  0  6 19  2  7 27 26 15                  -0.000128533
   7737342.709 9   6017639.34447  23355540.131    23355541.9714   23355546.9864
     -2928.240       -2281.745
  -1291682.789 9   -950544.93448  20982705.971    20982707.1774   20982712.2054
       105.956          82.563
  -8173553.121 9  -6354488.11548  20813728.548    20813730.1934   20813735.4614
      1975.054        1539.003
   1181714.103 9    922326.85148  20384053.966    20384055.5464   20384059.9174
     -1147.307        -894.005
  -6227263.678 9  -4839720.93547  22694826.827    22694828.5294   22694833.4014
      1219.421         950.198
  -4365810.797 9  -3387366.52847  23571854.612    23571856.4514   23571862.3374
       611.517         476.507
 97  5  7 16 17 59.9990000  0  6 19  2  7 27 26 15                  -0.000130368
   7825280.935 9   6086162.58246  23372273.563    23372275.8174   23372281.1814
     -2934.728       -2286.801
  -1294793.555 9   -952968.90748  20982113.946    20982115.1294   20982120.2464
       100.820          78.561
  -8232605.436 9  -6400502.88448  20802491.315    20802492.8394   20802498.1234
      1961.258        1528.253
   1216344.932 9    949311.90248  20390644.051    20390645.5644   20390649.9644
     -1161.843        -905.332
  -6263601.838 9  -4868036.38447  22687911.864    22687913.5474   22687918.4284
      1202.693         937.163
  -4383894.487 9  -3401457.71147  23568413.488    23568415.2004   23568421.0924
       593.645         462.581
 97  5  7 16 18 29.9990000  0  6 19  2  7 27 26 15                  -0.000132198
   7913428.532 9   6154848.98047  23389047.368    23389049.7094   23389055.2854
     -2941.826       -2292.332
  -1297729.306 9   -955256.50548  20981555.278    20981556.5154   20981561.5894
        94.883          73.935
  -8291217.604 9  -6446174.68648  20791337.752    20791339.3434   20791344.5624
      1946.205        1516.523
   1251424.585 9    976646.68648  20397319.392    20397321.0154   20397325.4224
     -1176.826        -917.007
  -6299424.985 9  -4895950.51947  22681095.014    22681096.6064   22681101.4344
      1185.604         923.847
  -4401429.087 9  -3415121.03446  23565077.562    23565078.5484   23565084.1604
       575.319         448.300
 97  5  7 16 18 59.9990000  0  6 19  2  7 27 26 15                  -0.000134034
   8001785.280 9   6223698.34546  23405861.170    23405863.5244   23405869.2254
     -2948.260       -2297.345
  -1300480.044 9   -957399.93848  20981031.871    20981033.1444   20981038.1414
        88.760          69.164
  -8349381.242 9  -6491496.98548  20780269.682    20780271.2064   20780276.3274
      1931.656        1505.186
   1286958.819 9   1004335.68248  20404081.337    20404083.0124   20404087.3974
     -1191.849        -928.714
  -6334735.275 9  -4923465.02647  22674375.781    22674377.3694   22674382.0474
      1168.740         910.706
  -4418415.656 9  -3428357.34347  23561845.275    23561846.3564   23561851.5544
       557.344         434.294
 97  5  7 16 19 29.9990000  0  6 19  2  7 27 26 15                  -0.000135884
   8090334.469 9   6292697.66047  23422712.323    23422713.9864   23422719.7644
     -2955.462       -2302.957
  -1303048.670 9   -959401.46848  20980543.124    20980544.3504   20980549.3734
        82.011          63.905
  -8407110.250 9  -6536480.61148  20769284.082    20769285.7014   20769290.7894
      1916.522        1493.394
   1322948.207 9   1032379.34948  20410929.951    20410931.5664   20410935.9784
     -1207.973        -941.278
  -6369532.137 9  -4950579.46747  22667753.907    22667755.7124   22667760.4154
      1150.432         896.441
  -4434860.884 9  -3441171.79946  23558715.822    23558716.9734   23558722.1814
       538.493         419.605
 97  5  7 16 19 59.9990000  0  6 19  2  7 27 26 15                  -0.000137726
   8179092.560 9   6361859.77646  23439602.492    23439604.1734   23439609.8404
     -2961.699       -2307.817
  -1305428.545 9   -961255.91848  20980090.190    20980091.4794   20980096.4734
        76.667          59.741
  -8464393.159 9  -6581116.62748  20758383.483    20758385.1174   20758390.2774
      1902.321        1482.328
   1359417.630 9   1060797.06848  20417869.717    20417871.4824   20417875.8814
     -1223.346        -953.257
  -6403776.197 9  -4977263.15247  22661237.239    22661239.3014   22661243.9474
      1132.495         882.464
  -4450747.605 9  -3453551.06746  23555692.440    23555693.8054   23555698.9664
       520.630         405.686
 97  5  7 16 20 29.9990000  0  6 19  2  7 27 26 15                  -0.000139545
   8268072.350 9   6431194.66446  23456534.598    23456536.5274   23456542.0374
     -2969.768       -2314.105
  -1307627.525 9   -962969.41248  20979671.741    20979673.0444   20979677.9444
        70.343          54.813
  -8521219.273 9  -6625396.68848  20747569.879    20747571.4324   20747576.7274
      1886.353        1469.885
   1396378.682 9   1089597.87748  20424903.264    20424904.9584   20424909.3334
     -1240.465        -966.596
  -6437453.200 9  -5003504.96748  22654829.000    22654830.8114   22654835.4164
      1113.055         867.316
  -4466075.978 9  -3465495.26646  23552775.793    23552776.8954   23552781.9144
       501.517         390.792
 97  5  7 16 20 59.9990000  0  6 19  2  7 27 26 15                  -0.000141343
   8357278.964 9   6500706.27246  23473509.900    23473512.0114   23473517.4784
     -2976.958       -2319.707
  -1309656.164 9   -964550.16748  20979285.730    20979287.0434   20979291.8624
        65.159          50.773
  -8577582.836 9  -6669316.33548  20736844.050    20736845.7804   20736851.1044
      1871.415        1458.245
   1433851.220 9   1118797.24548  20432034.289    20432035.8164   20432040.1494
     -1257.236        -979.664
  -6470566.331 9  -5029307.41448  22648527.833    22648529.6434   22648534.2514
      1094.882         853.155
  -4480841.707 9  -3477001.01646  23549966.639    23549966.9984   23549972.1844
       483.172         376.498
 97  5  7 16 21 29.9990000  0  6 19  2  7 27 26 15                  -0.000143128
   8446704.754 9   6570388.63746  23490526.905    23490529.1274   23490534.6834
     -2985.153       -2326.093
  -1311532.641 9   -966012.36548  20978928.653    20978929.9284   20978934.7234
        59.523          46.382
  -8633491.174 9  -6712881.25748  20726205.216    20726206.7534   20726212.1134
      1855.257        1445.655
   1471819.715 9   1148383.06848  20439259.745    20439261.0554   20439265.3014
     -1274.400        -993.039
  -6503135.849 9  -5054686.27048  22642329.996    22642331.8724   22642336.4984
      1075.971         838.419
  -4495055.841 9  -3488076.96446  23547261.329    23547262.0294   23547267.4494
       463.984         361.546
 97  5  7 16 21 59.9990000  0  6 19  2  7 27 26 15                  -0.000144873
   8536382.216 9   6640267.12946  23507592.292    23507594.2634   23507599.7404
     -2993.903       -2332.911
  -1313234.191 9   -967338.25248  20978604.791    20978606.0784   20978610.9004
        53.404          41.614
  -8688898.561 9  -6756055.82348  20715661.532    20715663.0544   20715668.4564
      1838.027        1432.229
   1510304.377 9   1178371.09248  20446583.074    20446584.4654   20446588.6814
     -1291.723       -1006.537
  -6535139.976 9  -5079624.56448  22636239.893    22636241.7154   22636246.3524
      1057.218         823.806
  -4508688.208 9  -3498699.60046  23544667.260    23544667.9064   23544673.3474
       444.336         346.236
 97  5  7 16 22 29.9990000  0  6 19  2  7 27 26 15                  -0.000146609
   8626299.091 9   6710332.18146  23524702.724    23524704.8484   23524710.3974
     -3000.966       -2338.415
  -1314766.792 9   -968532.49048  20978313.213    20978314.4474   20978319.2534
        48.218          37.572
  -8743816.190 9  -6798848.75648  20705211.200    20705212.5754   20705217.9644
      1822.670        1420.262
   1549284.548 9   1208745.23348  20454000.743    20454002.2094   20454006.3654
     -1307.386       -1018.742
  -6566617.174 9  -5104152.24948  22630249.629    22630251.8154   22630256.4704
      1040.789         811.004
  -4521755.136 9  -3508881.63847  23542180.707    23542181.3554   23542186.8874
       426.245         332.139
 97  5  7 16 22 59.9990000  0  6 19  2  7 27 26 15                  -0.000148340
   8716459.295 9   6780586.82546  23541859.929    23541861.8094   23541867.2574
     -3009.331       -2344.933
  -1316105.417 9   -969575.57848  20978058.441    20978059.7564   20978064.5194
        41.222          32.121
  -8798244.600 9  -6841260.48648  20694853.634    20694855.1974   20694860.5654
      1806.140        1407.382
   1588758.708 9   1239504.30248  20461512.462    20461513.9174   20461518.0754
     -1323.843       -1031.566
  -6597575.764 9  -5128275.83748  22624358.479    22624360.6244   22624365.2324
      1023.354         797.419
  -4534244.532 9  -3518613.64346  23539803.814    23539804.8074   23539810.3224
       406.625         316.851
 97  5  7 16 23 29.9990000  0  6 19  2  7 27 26 15                  -0.000150076
   8806843.606 9   6851016.12346  23559059.821    23559061.3324   23559066.7514
     -3016.734       -2350.702
  -1317258.559 9   -970474.12748  20977839.118    20977840.3274   20977845.1004
        35.196          27.425
  -8852200.657 9  -6883304.14648  20684586.252    20684587.6864   20684593.0484
      1790.488        1395.185
   1628689.775 9   1270619.40248  20469111.066    20469112.5324   20469116.7764
     -1338.922       -1043.316
  -6628029.883 9  -5152006.31448  22618563.409    22618565.3964   22618569.9734
      1006.263         784.101
  -4546171.050 9  -3527907.02146  23537534.249    23537535.1264   23537540.8224
       387.905         302.264
 97  5  7 16 23 59.9990000  0  6 19  2  7 27 26 15                  -0.000151811
   8897455.397 9   6921622.66846  23576302.830    23576304.2734   23576309.6184
     -3024.306       -2356.602
  -1318216.298 9   -971220.42248  20977656.867    20977658.0894   20977662.8724
        28.296          22.049
  -8905687.232 9  -6924981.97848  20674407.916    20674409.5264   20674414.9364
      1775.062        1383.165
   1669080.660 9   1302092.80248  20476796.988    20476798.6414   20476802.9634
     -1354.141       -1055.175
  -6657961.902 9  -5175329.97548  22612867.346    22612869.4884   22612874.0804
       988.845         770.529
  -4557530.140 9  -3536758.27446  23535372.325    23535373.6044   23535379.1754
       368.973         287.511
 97  5  7 16 24 29.9990000  0  6 19  2  7 27 26 15                  -0.000153540
   8988302.756 9   6992412.78246  23593590.242    23593592.0604   23593597.2844
     -3032.037       -2362.626
  -1318960.825 9   -971800.57648  20977515.225    20977516.4444   20977521.2364
        21.666          16.883
  -8958713.210 9  -6966300.90248  20664317.419    20664319.0924   20664324.4734
      1760.138        1371.536
   1709936.387 9   1333928.41848  20484571.631    20484573.2304   20484577.5874
     -1369.346       -1067.023
  -6687361.746 9  -5198238.96348  22607273.141    22607274.9214   22607279.4834
       971.364         756.907
  -4568315.161 9  -3545162.19546  23533319.900    23533321.2834   23533326.8204
       350.171         272.861
 97  5  7 16 24 59.9990000  0  6 19  2  7 27 26 15                  -0.000155259
   9079383.010 9   7063384.35046  23610921.726    23610924.0144   23610929.4164
     -3039.940       -2368.784
  -1319505.975 9   -972225.37348  20977411.393    20977412.6684   20977417.5214
        14.676          11.436
  -9011277.523 9  -7007260.09548  20654314.909    20654316.4224   20654321.7744
      1744.204        1359.120
   1751251.610 9   1366122.08348  20492433.816    20492435.2214   20492439.7184
     -1385.074       -1079.278
  -6716225.570 9  -5220730.25547  22601780.713    22601782.3534   22601786.7894
       952.882         742.505
  -4578527.081 9  -3553119.54646  23531377.434    23531378.0474   23531383.4604
       330.678         257.671
 97  5  7 16 25 29.9990000  0  6 19  2  7 27 26 15                  -0.000156952
   9170706.979 9   7134545.82546  23628300.142    23628302.4214   23628307.8764
     -3047.688       -2374.822
  -1319842.966 9   -972487.96648  20977347.178    20977348.5224   20977353.3984
         8.353           6.509
  -9063366.682 9  -7047849.03148  20644402.512    20644404.1634   20644409.5334
      1728.937        1347.224
   1793045.101 9   1398688.41848  20500386.940    20500388.2004   20500392.7794
     -1400.750       -1091.494
  -6744525.609 9  -5242782.23048  22596395.241    22596396.9444   22596401.4224
       934.371         728.081
  -4588155.701 9  -3560622.37146  23529545.339    23529545.7794   23529551.2924
       311.743         242.917
 97  5  7 16 25 59.9990000  0  6 19  2  7 27 26 15                  -0.000158629
   9262254.202 9   7205881.28746  23645721.724    23645723.3004   23645728.8294
     -3055.652       -2381.028
  -1319991.603 9   -972603.78448  20977318.846    20977320.1994   20977325.1204
         1.450           1.130
  -9114991.295 9  -7088075.97548  20634578.496    20634580.2844   20634585.7034
      1712.403        1334.340
   1835313.580 9   1431624.88448  20508430.244    20508431.5624   20508436.1964
     -1417.451       -1104.507
  -6772272.576 9  -5264403.24548  22591115.261    22591116.7584   22591121.4264
       915.452         713.339
  -4597214.695 9  -3567681.33146  23527820.878    23527821.9734   23527827.4354
       291.957         227.499
 97  5  7 16 26 29.9990000  0  6 19  2  7 27 26 15                  -0.000160303
   9354016.693 9   7277384.47446  23663183.895    23663185.3584   23663190.8594
     -3061.703       -2385.743
  -1319971.806 9   -972588.36648  20977322.714    20977324.0094   20977328.8944
        -2.838          -2.211
  -9166138.734 9  -7127931.10548  20624845.644    20624847.3174   20624852.6204
      1697.506        1322.732
   1878067.312 9   1464939.45448  20516566.217    20516567.3974   20516571.9474
     -1432.703       -1116.392
  -6799489.187 9  -5285611.01448  22585936.176    22585937.6024   22585942.2984
       899.020         700.535
  -4605704.114 9  -3574296.47546  23526204.976    23526206.5924   23526211.9634
       274.034         213.533
 97  5  7 16 26 59.9990000  0  6 19  2  7 27 26 15                  -0.000161963
   9446002.459 9   7349061.63946  23680688.285    23680689.7144   23680695.1794
     -3069.563       -2391.867
  -1319765.515 9   -972427.62548  20977361.974    20977363.2844   20977368.1674
        -9.915          -7.726
  -9216794.004 9  -7167402.73048  20615206.515    20615207.9814   20615213.1574
      1680.576        1309.540
   1921323.282 9   1498645.39148  20524797.482    20524798.7974   20524803.3564
     -1450.050       -1129.909
  -6826159.271 9  -5306392.89748  22580861.250    22580862.5024   22580867.1534
       880.003         685.717
  -4613605.148 9  -3580453.11747  23524701.989    23524703.1584   23524708.4904
       253.727         197.709
 97  5  7 16 27 29.9990000  0  6 19  2  7 27 26 15                  -0.000163620
   9538191.860 9   7420897.48446  23698230.976    23698232.8494   23698238.2274
     -3075.678       -2396.632
  -1319382.874 9   -972129.47148  20977434.778    20977436.1204   20977441.0374
       -14.874         -11.590
  -9266968.771 9  -7206499.93548  20605658.514    20605660.0894   20605665.1814
      1664.998        1297.401
   1965070.359 9   1532734.01148  20533122.025    20533123.5834   20533128.1564
     -1465.710       -1142.112
  -6852286.668 9  -5326751.92048  22575889.290    22575890.6964   22575895.3694
       862.523         672.096
  -4620922.454 9  -3586154.90046  23523309.654    23523310.7664   23523316.0494
       234.726         182.903
 97  5  7 16 27 59.9990000  0  6 19  2  7 27 26 15                  -0.000165284
   9630550.370 9   7492865.08646  23715806.431    23715808.0924   23715813.6824
     -3081.874       -2401.460
  -1318858.711 9   -971721.03648  20977534.669    20977535.9034   20977540.8284
       -20.435         -15.923
  -9316676.020 9  -7245232.83348  20596199.399    20596201.0744   20596206.2114
      1648.599        1284.623
   2009274.018 9   1567178.40448  20541533.519    20541535.2204   20541539.8264
     -1481.588       -1154.484
  -6877899.657 9  -5346710.09448  22571015.197    22571016.6724   22571021.4774
       844.807         658.291
  -4627676.133 9  -3591417.52846  23522024.282    23522025.5814   23522030.6814
       215.207         167.694
 97  5  7 16 28 29.9990000  0  6 19  2  7 27 26 15                  -0.000166940
   9723112.031 9   7564991.05046  23733420.111    23733422.0234   23733427.4434
     -3088.293       -2406.462
  -1318147.162 9   -971166.58748  20977669.989    20977671.3394   20977676.1714
       -26.556         -20.693
  -9365891.761 9  -7283582.74448  20586833.913    20586835.6604   20586840.8074
      1632.969        1272.443
   2053963.524 9   1602001.37748  20550037.916    20550039.3644   20550043.9654
     -1497.166       -1166.623
  -6902966.636 9  -5366242.80548  22566245.373    22566246.6344   22566251.4084
       826.569         644.080
  -4633835.491 9  -3596217.00346  23520852.084    23520853.5494   23520858.5684
       195.833         152.597
 97  5  7 16 28 59.9990000  0  6 19  2  7 27 26 15                  -0.000168595
   9815840.937 9   7637247.29746  23751065.841    23751067.6044   23751073.0634
     -3094.008       -2410.915
  -1317273.082 9   -970485.49048  20977836.394    20977837.6914   20977842.4414
       -31.890         -24.849
  -9414660.209 9  -7321584.11148  20577553.830    20577555.4044   20577560.4964
      1617.646        1260.503
   2099093.508 9   1637167.58648  20558625.766    20558627.3074   20558631.8784
     -1512.015       -1178.194
  -6927490.565 9  -5385352.36448  22561578.428    22561579.8454   22561584.5924
       808.070         629.665
  -4639431.048 9  -3600577.16046  23519786.995    23519788.4054   23519793.7394
       176.870         137.821
 97  5  7 16 29 29.9990000  0  6 19  2  7 27 26 15                  -0.000170221
   9908765.441 9   7709655.93046  23768748.898    23768750.4974   23768756.2194
     -3101.384       -2416.663
  -1316219.525 9   -969664.54148  20978036.936    20978038.2334   20978042.8964
       -38.679         -30.139
  -9462931.041 9  -7359197.72448  20568368.087    20568369.7514   20568374.8334
      1600.273        1246.966
   2144703.201 9   1672707.59248  20567304.926    20567306.5784   20567311.0834
     -1528.937       -1191.379
  -6951436.367 9  -5404011.43848  22557021.828    22557023.1874   22557027.8294
       788.118         614.118
  -4644430.291 9  -3604472.67946  23518835.324    23518836.9624   23518842.2884
       156.249         121.752
 97  5  7 16 29 59.9990000  0  6 19  2  7 27 26 15                  -0.000171816
  10001910.648 9   7782236.57146  23786474.015    23786475.4344   23786481.2794
     -3108.027       -2421.839
  -1314960.431 9   -968683.43748  20978276.668    20978277.8264   20978282.5204
       -44.895         -34.983
  -9510700.789 9  -7396420.88748  20559277.728    20559279.4654   20559284.5194
      1584.741        1234.863
   2190814.678 9   1708638.59348  20576079.774    20576081.3114   20576085.8214
     -1545.043       -1203.930
  -6974794.012 9  -5422212.20647  22552577.048    22552578.4434   22552582.9434
       769.454         599.575
  -4648824.122 9  -3607896.41946  23517999.814    23518000.8194   23518006.3124
       137.002         106.755
 97  5  7 16 30 29.9990000  0  6 19  2  7 27 26 15                  -0.000173394
  10095261.184 9   7854977.20046  23804238.533    23804239.6614   23804245.2754
     -3115.037       -2427.302
  -1313515.327 9   -967557.38948  20978551.493    20978552.8104   20978557.5474
       -51.229         -39.919
  -9558005.823 9  -7433281.93448  20550275.999    20550277.6534   20550282.6414
      1568.976        1222.579
   2237414.977 9   1744950.48848  20584947.409    20584949.0964   20584953.5764
     -1561.477       -1216.735
  -6997584.834 9  -5439971.29847  22548239.934    22548241.5354   22548245.9344
       749.977         584.398
  -4652635.798 9  -3610866.57546  23517274.520    23517275.4334   23517280.8264
       117.157          91.291
 97  5  7 16 30 59.9990000  0  6 19  2  7 27 26 15                  -0.000174955
  10188803.058 9   7927866.91346  23822038.720    23822040.1774   23822045.6794
     -3121.322       -2432.199
  -1311903.383 9   -966301.32548  20978858.179    20978859.5274   20978864.3474
       -56.469         -44.002
  -9604849.871 9  -7469783.76848  20541361.798    20541363.4984   20541368.4604
      1553.738        1210.705
   2284492.837 9   1781634.51148  20593906.154    20593907.7684   20593912.2344
     -1577.326       -1229.085
  -7019815.060 9  -5457293.55747  22544009.359    22544011.2604   22544015.6474
       732.110         570.475
  -4655866.765 9  -3613384.22346  23516660.063    23516660.7304   23516665.8604
        98.109          76.449
 97  5  7 16 31 29.9990000  0  6 19  2  7 27 26 15                  -0.000176511
  10282555.533 9   8000920.74346  23839878.656    23839880.4344   23839886.1224
     -3129.133       -2438.285
  -1310101.165 9   -964897.00548  20979201.253    20979202.4844   20979207.3354
       -63.813         -49.724
  -9651218.674 9  -7505915.28948  20532538.164    20532539.7454   20532544.7174
      1537.483        1198.039
   2332075.675 9   1818712.03248  20602961.027    20602962.5164   20602967.0164
     -1594.939       -1242.810
  -7041497.843 9  -5474189.24847  22539883.178    22539885.1514   22539889.5114
       713.238         555.770
  -4658508.883 9  -3615443.01646  23516157.168    23516158.0174   23516163.0274
        77.903          60.704
 97  5  7 16 31 59.9990000  0  6 19  2  7 27 26 15                  -0.000178059
  10376528.345 9   8074146.24946  23857760.620    23857762.8934   23857768.5604
     -3135.768       -2443.456
  -1308095.961 9   -963334.51248  20979582.777    20979584.0604   20979588.8844
       -70.029         -54.568
  -9697119.062 9  -7541681.80948  20523803.576    20523805.1464   20523810.1584
      1522.243        1186.163
   2380163.498 9   1856183.05648  20612111.833    20612113.3464   20612117.8504
     -1611.073       -1255.381
  -7062631.293 9  -5490656.88047  22535861.613    22535863.5304   22535867.9744
       695.518         541.962
  -4660563.563 9  -3617044.05646  23515766.157    23515767.1884   23515771.9724
        58.848          45.855
 97  5  7 16 32 29.9990000  0  6 19  2  7 27 26 15                  -0.000179600
  10470714.034 9   8147537.65746  23875683.935    23875686.1154   23875691.6974
     -3143.599       -2449.558
  -1305886.864 9   -961613.14448  20980003.145    20980004.4634   20980009.2504
       -77.620         -60.483
  -9742539.776 9  -7577074.55248  20515160.408    20515161.8354   20515166.8484
      1505.373        1173.018
   2428747.468 9   1894040.67548  20621357.099    20621358.5704   20621363.1114
     -1628.142       -1268.682
  -7083218.128 9  -5506698.58047  22531944.464    22531945.9414   22531950.4504
       676.543         527.176
  -4662027.861 9  -3618185.07546  23515487.534    23515488.7014   23515493.4914
        38.402          29.924
 97  5  7 16 32 59.9990000  0  6 19  2  7 27 26 15                  -0.000181126
  10565142.752 9   8221118.38746  23893653.923    23893655.2634   23893661.1344
     -3151.852       -2455.988
  -1303446.163 9   -959711.29748  20980467.665    20980468.9504   20980473.6324
       -85.118         -66.326
  -9787450.185 9  -7612069.66048  20506614.290    20506615.6974   20506620.6564
      1488.498        1159.869
   2477843.729 9   1932297.48148  20630699.757    20630701.2184   20630705.8634
     -1645.052       -1281.859
  -7103242.561 9  -5522302.05047  22528134.062    22528135.4974   22528139.8974
       658.211         512.892
  -4662881.226 9  -3618850.02446  23515325.643    23515326.3054   23515331.2164
        18.419          14.352
 97  5  7 16 33 29.9990000  0  6 19  2  7 27 26 15                  -0.000182644
  10659805.844 9   8294881.80846  23911667.975    23911669.1974   23911675.1234
     -3159.206       -2461.719
  -1300793.745 9   -957644.48148  20980972.391    20980973.6924   20980978.3744
       -91.869         -71.586
  -9831864.092 9  -7646677.88048  20498162.656    20498164.0224   20498168.9694
      1472.170        1147.145
   2527427.896 9   1970934.47448  20640135.155    20640136.7214   20640141.4434
     -1660.566       -1293.947
  -7122719.766 9  -5537479.10148  22524427.854    22524429.1684   22524433.5354
       639.950         498.662
  -4663148.571 9  -3619058.36247  23515274.550    23515275.4654   23515280.3774
        -0.942          -0.734
 97  5  7 16 33 59.9990000  0  6 19  2  7 27 26 15                  -0.000184152
  10754686.572 9   8368814.83346  23929723.230    23929724.5374   23929730.3064
     -3166.519       -2467.417
  -1297944.345 9   -955424.17448  20981514.597    20981515.9014   20981520.5884
       -98.437         -76.704
  -9875784.620 9  -7680901.64848  20489804.799    20489806.2044   20489811.1914
      1455.486        1134.145
   2577465.035 9   2009924.42848  20649656.786    20649658.4594   20649663.2554
     -1675.724       -1305.759
  -7141648.758 9  -5552228.97648  22520825.625    22520827.1304   22520831.5374
       621.607         484.369
  -4662827.896 9  -3618808.49046  23515335.147    23515336.3834   23515341.4594
       -20.973         -16.343
 97  5  7 16 34 29.9990000  0  6 19  2  7 27 26 15                  -0.000185631
  10849793.393 8   8442923.97146  23947821.618    23947822.9404   23947828.6774
     -3173.301       -2472.702
  -1294896.428 9   -953049.16948  20982094.616    20982095.8924   20982100.6154
      -104.112         -81.126
  -9919200.098 9  -7714731.87448  20481543.032    20481544.5064   20481549.4994
      1439.199        1121.454
   2627968.369 9   2049277.66348  20659267.052    20659268.9334   20659273.7414
     -1690.775       -1317.487
  -7160017.792 9  -5566542.51348  22517329.979    22517331.6814   22517336.0774
       603.404         470.185
  -4661895.108 9  -3618081.67246  23515513.122    23515513.9574   23515518.9494
       -40.741         -31.746
 97  5  7 16 34 59.9990000  0  6 19  2  7 27 26 15                  -0.000187100
  10945086.607 9   8517178.32946  23965955.016    23965956.6264   23965962.6694
     -3179.706       -2477.693
  -1291696.135 9   -950555.43848  20982703.671    20982704.8584   20982709.6154
      -109.383         -85.234
  -9962131.361 9  -7748184.79248  20473373.378    20473374.9244   20473379.9264
      1422.715        1108.609
   2678916.775 9   2088977.69948  20668962.422    20668964.1114   20668968.8824
     -1705.984       -1329.338
  -7177847.372 9  -5580435.70648  22513937.093    22513938.8654   22513943.3094
       585.083         455.909
  -4660379.509 9  -3616900.67546  23515801.196    23515802.3234   23515807.6074
       -60.492         -47.137
 97  5  7 16 35 29.9990000  0  6 19  2  7 27 26 15                  -0.000188557
  11040545.616 9   8591561.93346  23984120.003    23984121.9884   23984127.8494
     -3184.620       -2481.522
  -1288351.587 9   -947949.29948  20983340.105    20983341.3114   20983346.0764
      -114.114         -88.920
 -10004580.656 9  -7781262.14248  20465295.387    20465297.0444   20465302.0954
      1406.845        1096.243
   2730308.479 9   2129023.16148  20678742.096    20678743.6884   20678748.3874
     -1720.619       -1340.742
  -7195134.537 9  -5593906.22848  22510647.551    22510649.1784   22510653.8234
       567.128         441.918
  -4658281.334 9  -3615265.75146  23516200.827    23516201.6504   23516206.8214
       -79.897         -62.257
 97  5  7 16 35 59.9990000  0  6 19  2  7 27 26 15                  -0.000190001
  11136173.432 9   8666077.04846  24002317.495    24002319.4014   24002325.3414
     -3191.182       -2486.635
  -1284846.123 9   -945217.77548  20984007.193    20984008.4104   20984013.1754
      -120.235         -93.690
 -10046534.809 9  -7813953.67648  20457311.783    20457313.4204   20457318.4924
      1389.408        1082.656
   2782171.589 9   2169435.94948  20688611.384    20688612.9904   20688617.5634
     -1737.680       -1354.036
  -7211866.197 9  -5606943.90548  22507463.482    22507465.2724   22507469.9344
       547.647         426.738
  -4655582.048 9  -3613162.41246  23516714.186    23516715.1494   23516720.4244
      -100.632         -78.415
 97  5  7 16 36 29.9990000  0  6 19  2  7 27 26 15                  -0.000191417
  11231997.042 9   8740744.73446  24020552.181    24020554.1054   24020559.9264
     -3197.087       -2491.237
  -1281156.759 9   -942342.95148  20984709.255    20984710.5234   20984715.2604
      -125.921         -98.120
 -10087969.868 9  -7846240.72048  20449426.867    20449428.5484   20449433.6414
      1372.713        1069.646
   2834548.129 9   2210248.81948  20698578.560    20698579.9744   20698584.4694
     -1754.009       -1366.760
  -7228012.596 9  -5619525.51648  22504391.008    22504392.7744   22504397.2694
       528.665         411.947
  -4652268.908 9  -3610580.76346  23517343.915    23517345.6884   23517350.9494
      -120.242         -93.695
 97  5  7 16 36 59.9990000  0  6 19  2  7 27 26 15                  -0.000192818
  11328001.009 9   8815553.01746  24038821.944    24038823.3044   24038828.5464
     -3203.312       -2496.087
  -1277282.225 9   -939323.83548  20985446.670    20985447.8214   20985452.5634
      -132.536        -103.275
 -10128901.141 9  -7878135.20048  20441637.916    20441639.5824   20441644.6934
      1356.153        1056.743
   2887406.559 9   2251437.18248  20708636.974    20708638.6204   20708643.1494
     -1769.877       -1379.125
  -7243587.543 9  -5631661.84648  22501427.174    22501428.9764   22501433.3734
       509.696         397.166
  -4648367.177 9  -3607540.45447  23518086.412    23518088.0774   23518093.4334
      -139.921        -109.029
 97  5  7 16 37 29.9990000  0  6 19  2  7 27 26 15                  -0.000194203
  11424203.394 9   8890515.76046  24057129.044    24057130.0744   24057135.9694
     -3210.188       -2501.445
  -1273193.477 9   -936137.79648  20986224.603    20986225.9014   20986230.6024
      -140.054        -109.133
 -10169330.775 9  -7909638.79748  20433944.400    20433946.0884   20433951.2024
      1339.184        1043.520
   2940750.156 9   2293003.60448  20718787.885    20718789.5754   20718794.1484
     -1786.382       -1391.986
  -7258584.245 9  -5643347.58748  22498573.235    22498575.1834   22498579.5874
       490.197         381.972
  -4643865.480 9  -3604032.63346  23518943.930    23518944.8014   23518950.2154
      -160.165        -124.804
 97  5  7 16 37 59.9990000  0  6 19  2  7 27 26 15                  -0.000195591
  11520594.279 9   8965625.50246  24075470.577    24075472.4224   24075478.5804
     -3216.416       -2506.298
  -1268901.630 9   -932793.50248  20987041.235    20987042.5844   20987047.3284
      -146.630        -114.257
 -10209278.399 9  -7940766.79648  20426342.655    20426344.2684   20426349.4204
      1323.301        1031.144
   2994563.949 9   2334936.41648  20729028.376    20729029.9714   20729034.5944
     -1801.761       -1403.970
  -7273023.440 9  -5654598.92348  22495825.396    22495827.4794   22495831.9614
       471.792         367.630
  -4638784.846 9  -3600073.70946  23519910.192    23519911.3814   23519917.0024
      -179.237        -139.665
 97  5  7 16 38 29.9990000  0  6 19  2  7 27 26 15                  -0.000196954
  11617202.688 9   9040904.74046  24093854.462    24093856.5104   24093862.3554
     -3223.577       -2511.878
  -1264384.370 9   -929273.56448  20987900.751    20987902.1784   20987906.9524
      -154.081        -120.063
 -10248724.097 9  -7971503.68948  20418836.363    20418838.0134   20418843.1604
      1306.808        1018.292
   3048859.890 9   2377244.91948  20739360.555    20739362.1434   20739366.8164
     -1817.489       -1416.225
  -7286884.319 9  -5665399.61848  22493188.125    22493189.8444   22493194.3604
       452.752         352.794
  -4633102.792 9  -3595646.13146  23520991.323    23520992.4524   23520998.3564
      -199.257        -155.265
 97  5  7 16 38 59.9990000  0  6 19  2  7 27 26 15                  -0.000198302
  11714016.730 9   9116344.12646  24112277.381    24112279.4134   24112285.6544
     -3230.194       -2517.034
  -1259653.048 9   -925586.82248  20988801.132    20988802.5294   20988807.2754
      -160.613        -125.153
 -10287677.367 9  -8001856.87248  20411423.716    20411425.4664   20411430.5814
      1290.620        1005.678
   3103621.939 9   2419916.62948  20749781.337    20749783.0424   20749787.7314
     -1832.959       -1428.280
  -7300177.632 9  -5675758.05348  22490658.951    22490660.2674   22490664.7754
       433.938         338.134
  -4626819.140 9  -3590749.77947  23522186.598    23522188.2014   23522194.0664
      -219.218        -170.819
 97  5  7 16 39 29.9990000  0  6 19  2  7 27 26 15                  -0.000199628
  11811019.521 9   9191930.65546  24130736.533    24130738.2164   24130744.7994
     -3236.432       -2521.895
  -1254752.400 9   -921768.13248  20989733.829    20989735.0814   20989739.7844
      -165.992        -129.344
 -10326154.780 9  -8031839.25548  20404101.867    20404103.3824   20404108.4924
      1274.516         993.129
   3158843.325 9   2462946.26648  20760289.715    20760291.3044   20760295.9984
     -1848.394       -1440.307
  -7312910.327 9  -5685679.63948  22488235.907    22488237.3314   22488241.8804
       415.002         323.378
  -4619946.118 9  -3585394.17147  23523495.099    23523496.2564   23523502.0214
      -238.964        -186.206
 97  5  7 16 39 59.9990000  0  6 19  2  7 27 26 15                  -0.000200921
  11908208.753 8   9267662.52946  24149231.835    24149232.9734   24149239.1384
     -3242.176       -2526.371
  -1249693.901 9   -917826.44648  20990696.503    20990697.6834   20990702.3494
      -170.593        -132.930
 -10364150.159 9  -8061446.03348  20396871.667    20396873.1604   20396878.2154
      1259.099         981.116
   3214526.449 9   2506335.69648  20770885.810    20770887.4804   20770892.1174
     -1863.222       -1451.861
  -7325074.132 9  -5695157.94448  22485921.160    22485922.6734   22485927.3664
       396.486         308.950
  -4612473.962 9  -3579571.71547  23524917.027    23524918.2644   23524923.9474
      -258.629        -201.529
 97  5  7 16 40 29.9990000  0  6 19  2  7 27 26 15                  -0.000202185
  12005571.000 8   9343529.11946  24167758.905    24167760.6044   24167766.6744
     -3248.248       -2531.102
  -1244494.808 9   -913775.20948  20991685.823    20991687.0194   20991691.6724
      -175.760        -136.956
 -10401677.400 9  -8090688.02148  20389730.320    20389731.9504   20389737.0504
      1243.038         968.601
   3270661.606 9   2550077.36248  20781567.950    20781569.6904   20781574.2524
     -1878.822       -1464.017
  -7336676.650 9  -5704198.88448  22483713.163    22483714.7924   22483719.6114
       377.352         294.041
  -4604403.789 9  -3573283.27746  23526452.299    23526453.8314   23526459.5484
      -279.061        -217.450
 97  5  7 16 40 59.9990000  0  6 19  2  7 27 26 15                  -0.000203405
  12103118.697 8   9419540.26346  24186321.318    24186323.4274   24186329.2164
     -3254.489       -2535.965
  -1239137.525 9   -909600.70248  20992705.246    20992706.4884   20992711.1144
      -181.104        -141.120
 -10438721.973 9  -8119553.91948  20382680.931    20382682.6524   20382687.7084
      1226.897         956.024
   3327270.927 9   2594188.50848  20792340.398    20792342.1084   20792346.6674
     -1894.884       -1476.533
  -7347700.002 9  -5712788.52548  22481615.596    22481617.1104   22481621.8634
       358.055         279.004
  -4595717.751 9  -3566514.93646  23528105.238    23528106.7424   23528112.4804
      -299.663        -233.504
 97  5  7 16 41 29.9990000  0  6 19  2  7 27 26 15                  -0.000204609
  12200831.305 9   9495679.87546  24204915.327    24204917.2854   24204923.3954
     -3259.730       -2540.049
  -1233625.333 9   -905305.49348  20993754.104    20993755.4074   20993760.0354
      -186.697        -145.478
 -10475298.522 9  -8148055.12348  20375720.700    20375722.3814   20375727.3964
      1211.340         943.901
   3384355.613 9   2638670.06748  20803203.257    20803205.0384   20803209.5304
     -1910.898       -1489.011
  -7358176.639 9  -5720952.14548  22479621.600    22479623.4304   22479628.1174
       340.457         265.291
  -4586434.274 9  -3559281.04047  23529872.021    23529873.2444   23529879.0864
      -319.349        -248.843
 97  5  7 16 41 59.9990000  0  6 19  2  7 27 26 15                  -0.000205810
  12298730.306 9   9571964.76146  24223545.207    24223546.8854   24223552.7664
     -3266.405       -2545.251
  -1227905.849 9   -900848.75348  20994842.529    20994843.8304   20994848.4584
      -194.244        -151.359
 -10511380.265 9  -8176170.75648  20368854.620    20368856.2764   20368861.2894
      1194.453         930.743
   3441949.655 9   2683548.53248  20814163.131    20814164.9374   20814169.3654
     -1928.234       -1502.520
  -7368109.630 9  -5728692.14348  22477731.028    22477733.1614   22477737.9334
       322.127         251.008
  -4576536.142 9  -3551568.19547  23531755.669    23531756.7844   23531762.8254
      -340.106        -265.018
 97  5  7 16 42 29.9990000  0  6 19  2  7 27 26 15                  -0.000207025
  12396806.456 9   9648387.60046  24242208.692    24242210.3844   24242216.2954
     -3272.875       -2550.292
  -1221974.557 9   -896226.97548  20995971.293    20995972.5434   20995977.2194
      -202.140        -157.512
 -10546968.887 9  -8203902.13948  20362082.289    20362084.0074   20362088.9974
      1177.136         917.249
   3500036.272 9   2728810.81948  20825216.721    20825218.5644   20825222.9614
     -1945.089       -1515.654
  -7377517.927 9  -5736023.30348  22475940.831    22475942.8244   22475947.6444
       304.114         236.972
  -4566043.077 9  -3543391.80647  23533752.771    23533753.6854   23533759.5694
      -360.287        -280.743
 97  5  7 16 42 59.9990000  0  6 19  2  7 27 26 15                  -0.000208251
  12495076.432 9   9724961.52646  24260908.810    24260910.5564   24260916.1974
     -3278.810       -2554.917
  -1215797.600 9   -891413.76248  20997146.694    20997147.9674   20997152.6794
      -209.920        -163.574
 -10582031.983 9  -8231224.01448  20355410.141    20355411.7054   20355416.6854
      1159.890         903.810
   3558632.325 9   2774470.07148  20836367.217    20836369.0554   20836373.4694
     -1961.661       -1528.567
  -7386379.279 9  -5742928.25548  22474254.803    22474256.5874   22474261.3654
       286.229         223.036
  -4554943.908 9  -3534743.10647  23535865.082    23535865.8834   23535871.6884
      -380.085        -296.170
 97  5  7 16 43 29.9990000  0  6 19  2  7 27 26 15                  -0.000209495
  12593527.081 9   9801676.26845  24279643.608    24279645.0224   24279650.1474
     -3284.788       -2559.575
  -1209382.306 9   -886414.84448  20998367.498    20998368.7764   20998373.4794
      -217.743        -169.670
 -10616564.563 9  -8258132.50848  20348838.779    20348840.3334   20348845.3184
      1142.176         890.007
   3617726.410 9   2820517.39648  20847612.719    20847614.3004   20847618.7754
     -1977.890       -1541.213
  -7394697.255 9  -5749409.81248  22472671.786    22472673.7024   22472678.4604
       267.903         208.756
  -4543244.483 9  -3525626.67846  23538091.765    23538092.2684   23538097.8954
      -400.085        -311.755
 97  5  7 16 43 59.9990000  0  6 19  2  7 27 26 15                  -0.000210734
  12692161.165 8   9878533.92446  24298413.624    24298414.7314   24298420.0284
     -3291.012       -2564.425
  -1202746.537 9   -881244.11548  20999630.238    20999631.5464   20999636.2704
      -224.776        -175.150
 -10650571.818 9  -8284631.65648  20342367.402    20342368.9764   20342373.9404
      1124.865         876.518
   3677288.590 9   2866929.47348  20858947.048    20858948.5944   20858953.1494
     -1993.205       -1553.147
  -7402449.225 9  -5755450.31948  22471196.821    22471198.6004   22471203.3164
       248.573         193.693
  -4530944.526 9  -3516042.28946  23540431.968    23540432.7834   23540438.4484
      -420.266        -327.480
 97  5  7 16 44 29.9990000  0  6 19  2  7 27 26 15                  -0.000211943
  12790988.206 8   9955541.94445  24317219.166    24317221.0364   24317226.2354
     -3297.486       -2569.470
  -1195899.819 9   -875909.01248  21000933.197    21000934.4384   21000939.1734
      -231.497        -180.387
 -10684058.357 9  -8310725.04948  20335995.011    20335996.6364   20336001.5834
      1107.583         863.052
   3737321.078 9   2913708.02148  20870370.980    20870372.4154   20870377.0214
     -2009.062       -1565.503
  -7409606.577 9  -5761027.47748  22469834.711    22469836.5914   22469841.3414
       228.657         178.174
  -4518029.776 9  -3505978.85446  23542889.430    23542890.1894   23542895.8984
      -440.728        -343.424
 97  5  7 16 44 59.9990000  0  6 19  2  7 27 26 15                  -0.000213117
  12889994.080 9  10032689.22445  24336058.952    24336060.9334   24336066.5844
     -3303.527       -2574.177
  -1188882.636 9   -870441.08248  21002268.483    21002269.7524   21002274.5244
      -236.908        -184.604
 -10717046.869 9  -8336430.37148  20329717.449    20329719.1004   20329724.0504
      1091.085         850.196
   3797818.058 9   2960848.51948  20881883.064    20881884.5744   20881889.2784
     -2024.611       -1577.619
  -7416183.389 9  -5766152.27048  22468582.800    22468585.0224   22468589.8884
       209.162         162.983
  -4504511.614 9  -3495445.23446  23545461.759    23545462.6214   23545468.3304
      -461.158        -359.344
 97  5  7 16 45 29.9990000  0  6 19  2  7 27 26 15                  -0.000214246
  12989175.659 9  10109973.57046  24354933.324    24354934.7684   24354940.1734
     -3309.641       -2578.941
  -1181712.153 9   -864853.69648  21003633.049    21003634.2524   21003639.0034
      -242.269        -188.781
 -10749553.993 9  -8361760.58648  20323531.744    20323533.2254   20323538.1704
      1075.043         837.696
   3858765.809 9   3008340.26048  20893480.971    20893482.5764   20893487.3004
     -2039.722       -1589.394
  -7422180.276 9  -5770825.19248  22467441.663    22467443.8444   22467448.7514
       189.589         147.732
  -4490388.778 9  -3484440.42347  23548149.376    23548150.2274   23548155.8494
      -481.487        -375.185
 97  5  7 16 45 59.9990000  0  6 19  2  7 27 26 15                  -0.000215326
  13088541.589 8  10187401.40845  24373841.430    24373843.4454   24373849.2114
     -3314.858       -2583.006
  -1174382.382 9   -859142.19148  21005027.908    21005029.1104   21005033.8094
      -246.662        -192.204
 -10781587.532 9  -8386721.77148  20317435.971    20317437.4274   20317442.4164
      1060.344         826.242
   3920166.405 9   3056184.86248  20905165.081    20905166.7604   20905171.5224
     -2053.980       -1600.504
  -7427593.665 9  -5775043.43248  22466411.582    22466413.7684   22466418.5854
       171.296         133.477
  -4475659.513 9  -3472963.07847  23550952.711    23550953.2034   23550958.8904
      -500.614        -390.089
 97  5  7 16 46 29.9990000  0  6 19  2  7 27 26 15                  -0.000216373
  13188085.136 8  10264967.77445  24392783.683    24392786.3394   24392791.6124
     -3320.818       -2587.650
  -1166885.520 9   -853300.48548  21006454.616    21006455.7764   21006460.4354
      -252.728        -196.931
 -10813145.746 9  -8411312.57448  20311430.484    20311432.0424   20311437.0594
      1043.896         813.425
   3982025.195 9   3104386.50748  20916936.580    20916938.0734   20916942.8574
     -2069.465       -1612.570
  -7432438.401 9  -5778818.55448  22465489.535    22465491.8854   22465496.6464
       152.186         118.586
  -4460331.436 9  -3461019.12647  23553869.489    23553870.0914   23553875.9354
      -520.762        -405.788
 97  5  7 16 46 59.9990000  0  6 19  2  7 27 26 15                  -0.000217404
  13287791.867 8  10342661.22046  24411756.905    24411759.6394   24411765.2704
     -3325.622       -2591.394
  -1159207.968 9   -847317.97848  21007915.631    21007916.8774   21007921.4694
      -258.696        -201.581
 -10844220.397 9  -8435526.57948  20305517.168    20305518.7154   20305523.7334
      1028.338         801.302
   4044332.769 9   3152937.84848  20928793.060    20928794.7744   20928799.5924
     -2083.795       -1623.736
  -7436726.197 9  -5782159.72848  22464673.782    22464675.9384   22464680.7464
       134.312         104.659
  -4444410.035 9  -3448612.83647  23556899.083    23556899.7244   23556905.7084
      -540.049        -420.817
 97  5  7 16 47 29.9990000  0  6 19  2  7 27 26 15                  -0.000218433
  13387662.185 9  10420482.15946  24430761.684    24430764.3854   24430770.4784
     -3331.777       -2596.190
  -1151318.248 9   -841170.15248  21009417.054    21009418.2674   21009422.8744
      -266.536        -207.690
 -10874803.959 9  -8459357.91448  20299697.335    20299698.8584   20299703.9024
      1011.063         787.841
   4107094.385 9   3201842.99648  20940736.209    20940737.9364   20940742.7574
     -2099.703       -1636.132
  -7440463.041 9  -5785071.57048  22463962.528    22463964.8484   22463969.7454
       115.629          90.101
  -4427893.347 9  -3435742.68547  23560042.031    23560042.6194   23560048.7074
      -560.464        -436.725
 97  5  7 16 47 59.9990000  0  6 19  2  7 27 26 15                  -0.000219478
  13487692.641 8  10498427.88045  24449796.789    24449799.5574   24449806.0404
     -3337.263       -2600.465
  -1143225.683 9   -834864.26248  21010957.085    21010958.2744   21010962.8514
      -273.376        -213.020
 -10904886.304 9  -8482798.69848  20293972.929    20293974.3814   20293979.4374
       994.062         774.594
   4170313.955 9   3251104.98548  20952766.586    20952768.1894   20952772.9874
     -2115.362       -1648.334
  -7443674.067 9  -5787573.68548  22463351.335    22463353.8344   22463358.5834
        97.991          76.357
  -4410789.003 9  -3422414.62147  23563296.707    23563297.5154   23563303.4154
      -580.228        -452.126
 97  5  7 16 48 29.9990000  0  6 19  2  7 27 26 15                  -0.000220526
  13587894.841 9  10576507.42846  24468865.139    24468867.7904   24468873.7904
     -3342.325       -2604.409
  -1134912.977 9   -828386.83148  21012538.838    21012540.0834   21012544.6944
      -280.207        -218.343
 -10934441.089 9  -8505828.39148  20288348.823    20288350.2704   20288355.3684
       976.783         761.130
   4234013.989 9   3300741.36648  20964888.189    20964889.8744   20964894.6734
     -2130.898       -1660.440
  -7446341.560 9  -5789652.25048  22462843.673    22462846.2224   22462850.8334
        80.328          62.593
  -4393078.433 9  -3408614.15747  23566667.313    23566667.8284   23566673.6344
      -600.063        -467.582
 97  5  7 16 48 59.9990000  0  6 19  2  7 27 26 15                  -0.000221588
  13688241.189 8  10654699.27946  24487961.519    24487963.2864   24487969.1944
     -3346.913       -2607.984
  -1126408.669 9   -821760.10048  21014157.089    21014158.3664   21014162.9904
      -286.046        -222.893
 -10963484.542 9  -8528459.64648  20282821.990    20282823.4294   20282828.5694
       959.982         748.038
   4298182.560 9   3350742.84648  20977099.257    20977100.7834   20977105.5874
     -2146.333       -1672.467
  -7448483.509 9  -5791321.31248  22462436.304    22462438.6714   22462443.2634
        62.964          49.063
  -4374774.131 9  -3394351.07147  23570149.854    23570150.9714   23570156.9144
      -619.647        -482.842
 97  5  7 16 49 29.9990000  0  6 19  2  7 27 26 15                  -0.000222671
  13788749.270 8  10733017.14145  24507086.939    24507089.3344   24507095.2324
     -3353.206       -2612.888
  -1117722.755 9   -814991.85548  21015810.033    21015811.2604   21015815.8864
      -292.557        -227.966
 -10992002.898 9  -8550681.74048  20277395.185    20277396.5874   20277401.7474
       941.606         733.719
   4362827.575 9   3401115.57048  20989400.951    20989402.3124   20989407.1844
     -2162.910       -1685.384
  -7450074.058 9  -5792560.71748  22462133.515    22462135.9664   22462140.7584
        43.210          33.670
  -4355861.918 9  -3379614.29447  23573748.902    23573749.8364   23573755.8694
      -640.856        -499.368
 97  5  7 16 49 59.9990000  0  6 19  2  7 27 26 15                  -0.000223689
  13889423.989 8  10811464.88145  24526244.570    24526247.1674   24526253.4774
     -3358.273       -2616.836
  -1108864.883 9   -808089.62548  21017495.655    21017496.8694   21017501.5044
      -297.923        -232.148
 -11019998.186 9  -8572496.24648  20272067.914    20272069.2504   20272074.4424
       925.076         720.838
   4427946.058 9   3451857.23448  21001792.538    21001793.9794   21001798.8494
     -2178.174       -1697.278
  -7451072.788 9  -5793338.96648  22461943.120    22461945.8504   22461950.7464
        23.515          18.323
  -4336331.482 9  -3364395.77947  23577465.685    23577466.3064   23577472.3214
      -661.032        -515.090
 97  5  7 16 50 29.9990000  0  6 19  2  7 27 26 15                  -0.000224671
  13990218.898 8  10890006.32146  24545425.531    24545428.0064   24545434.2544
     -3362.307       -2619.979
  -1099869.790 9   -801080.46948  21019207.401    21019208.5924   21019213.2294
      -302.655        -235.835
 -11047535.380 9  -8593953.78848  20266827.607    20266829.1394   20266834.3154
       909.832         708.960
   4493485.059 9   3502926.57048  21014264.264    21014265.6504   21014270.5494
     -2192.062       -1708.100
  -7451512.248 9  -5793681.42048  22461859.920    22461862.2144   22461867.0514
         5.071           3.951
  -4316224.827 9  -3348728.24946  23581291.695    23581292.6024   23581298.4694
      -680.291        -530.097
 97  5  7 16 50 59.9990000  0  7 19  2  7 27 26  4 15               -0.000225613
  14091167.128 8  10968667.04645  24564635.569    24564637.3864   24564644.1474
     -3367.954       -2624.380
  -1090704.508 9   -793938.69748  21020951.558    21020952.6794   21020957.3054
      -308.770        -240.600
 -11074590.493 9  -8615035.68548  20261679.223    20261680.7704   20261685.9134
       893.427         696.177
   4559466.102 9   3554340.35148  21026820.092    21026821.3704   21026826.3464
     -2207.030       -1719.764
  -7451372.770 9  -5793572.74548  22461886.774    22461888.8294   22461893.5994
       -14.631         -11.401
   -882828.54418   -186401.57654  25029399.367           0.0005          0.0005
      3431.324        2673.759
  -4295515.842 9  -3332591.36146  23585232.636    23585233.5104   23585239.1014
      -700.704        -546.003
 97  5  7 16 51 29.9990000  0  7 19  2  7 27 26  4 15               -0.000226522
  14192276.068 8  11047453.25645  24583876.122    24583877.6824   24583884.1424
     -3372.965       -2628.284
  -1081362.910 9   -786659.53148  21022729.161    21022730.3334   21022734.9804
      -314.463        -245.036
 -11101169.112 9  -8635746.29348  20256621.529    20256623.0824   20256628.2164
       878.080         684.218
   4625884.554 9   3606094.97048  21039459.167    21039460.3284   21039465.3224
     -2221.274       -1730.863
  -7450656.221 9  -5793014.42048  22462023.223    22462025.3094   22462030.0894
       -33.292         -25.942
   -985831.632 8    -19497.18152  25009797.722           0.0005          0.0005
      3435.346        2676.893
  -4274205.927 9  -3315986.24346  23589287.639    23589288.6284   23589294.2694
      -720.318        -561.287
 97  5  7 16 51 59.9990000  0  7 19  2  7 27 26  4 15               -0.000227420
  14293540.574 8  11126360.52645  24603145.233    24603147.8874   24603154.5494
     -3377.834       -2632.078
  -1071834.627 9   -779234.90348  21024542.238    21024543.4394   21024548.1534
      -320.633        -249.844
 -11127280.925 9  -8656093.15248  20251652.507    20251654.1164   20251659.2934
       862.764         672.284
   4692742.291 9   3658191.88948  21052181.879    21052182.9504   21052187.8484
     -2235.879       -1742.243
  -7449393.920 9  -5792030.83448  22462263.495    22462265.5014   22462270.3834
       -50.406         -39.277
  -1088966.038 8    -99863.02754  24990171.946           0.0004          0.0005
      3440.518        2680.923
  -4252302.480 9  -3298918.64146  23593455.246    23593456.6554   23593462.3054
      -739.706        -576.394
 97  5  7 16 52 29.9990000  0  7 19  2  7 27 26  4 15               -0.000228351
  14394937.199 8  11205370.72645  24622439.408    24622442.5204   24622449.7274
     -3382.086       -2635.392
  -1062121.350 9   -771666.11648  21026390.580    21026391.7714   21026396.5574
      -327.049        -254.843
 -11152923.209 9  -8676074.14348  20246772.855    20246774.4884   20246779.6874
       846.444         659.567
   4760039.938 9   3710631.60048  21064988.199    21064989.2884   21064994.0694
     -2250.970       -1754.003
  -7447640.882 9  -5790664.84548  22462596.714    22462599.1114   22462603.9214
       -66.749         -52.012
  -1192264.067 8   -180358.14254  24970515.309           0.0004          0.0005
      3445.785        2685.027
  -4229825.698 9  -3281404.27947  23597732.334    23597733.8754   23597739.5964
      -758.926        -591.371
 97  5  7 16 52 59.9990000  0  7 19  2  7 27 26  4 15               -0.000229304
  14496461.175 8  11284480.23445  24641760.657    24641762.1864   24641769.2604
     -3386.154       -2638.562
  -1052218.351 9   -763949.49748  21028275.018    21028276.2654   21028281.0604
      -332.999        -259.480
 -11178066.530 9  -8695666.33448  20241988.172    20241989.9034   20241995.0754
       829.877         646.657
   4827799.658 9   3763431.37148  21077882.427    21077883.5894   21077888.2644
     -2266.282       -1765.934
  -7445384.098 9  -5788906.33248  22463026.428    22463028.6184   22463033.3844
       -83.751         -65.261
  -1295711.596 8    -12862.39252  24950829.896           0.0005          0.0005
      3450.664        2688.829
  -4206768.908 9  -3263437.94046  23602120.121    23602121.4334   23602127.1244
      -778.218        -606.404
 97  5  7 16 53 29.9990000  0  7 19  2  7 27 26  4 15               -0.000230255
  14598125.758 8  11363699.33445  24661106.449    24661108.0544   24661115.4434
     -3391.388       -2642.640
  -1042120.161 9   -756080.78348  21030196.709    21030197.8944   21030202.6904
      -340.214        -265.102
 -11202699.559 9  -8714860.89448  20237300.791    20237302.4334   20237307.5714
       812.283         632.948
   4896034.834 9   3816601.63048  21090867.094    21090868.3664   21090872.9634
     -2282.596       -1778.646
  -7442596.830 9  -5786734.44948  22463557.089    22463559.1454   22463563.8474
      -102.041         -79.512
  -1399289.184 8    -93571.89445  24931119.403           0.0004          0.0004
      3454.489        2691.810
  -4183116.379 9  -3245007.37946  23606621.285    23606622.3954   23606628.1174
      -798.477        -622.190
 97  5  7 16 53 59.9990000  0  7 19  2  7 27 26  4 15               -0.000231209
  14699942.401 8  11443036.74246  24680481.423    24680483.5114   24680491.2194
     -3396.783       -2646.844
  -1031802.404 9   -748040.98148  21032160.174    21032161.3584   21032166.0904
      -347.986        -271.158
 -11226801.375 9  -8733641.52448  20232714.407    20232716.0164   20232721.0834
       794.125         618.799
   4964752.421 9   3870147.78548  21103943.439    21103944.9384   21103949.4974
     -2299.035       -1791.456
  -7439259.210 9  -5784133.73048  22464192.316    22464194.3234   22464199.0094
      -121.067         -94.338
  -1502977.019 8   -174367.54755  24911387.931           0.0004          0.0005
      3457.463        2694.127
  -4158862.895 9  -3226108.55846  23611236.534    23611237.5924   23611243.2484
      -818.908        -638.110
 97  5  7 16 54 29.9990000  0  7 19  2  7 27 26  4 15               -0.000232147
  14801904.784 8  11522487.89445  24699883.973    24699886.3364   24699893.8004
     -3400.715       -2649.908
  -1021270.157 9   -739834.04048  21034164.471    21034165.5844   21034170.2994
      -353.954        -275.808
 -11250368.964 9  -8752005.87948  20228229.658    20228231.2484   20228236.1964
       777.353         605.730
   5033944.183 9   3924063.42948  21117110.209    21117111.7554   21117116.3014
     -2313.542       -1802.760
  -7435344.924 9  -5781083.65648  22464937.458    22464939.2274   22464943.8694
      -139.907        -109.018
  -1606750.100 8   -255229.65555  24891640.554    24891641.5075   24891650.0615
      3460.767        2696.702
  -4134008.513 9  -3206741.50646  23615965.599    23615967.1354   23615972.7324
      -838.057        -653.031
 97  5  7 16 54 59.9990000  0  7 19  2  7 27 26  4 15               -0.000233069
  14903990.752 8  11602035.33445  24719310.735    24719312.9514   24719320.0524
     -3405.606       -2653.719
  -1010562.917 9   -731490.73648  21036201.913    21036203.1134   21036207.8454
      -360.435        -280.858
 -11273449.945 9  -8769991.05548  20223837.628    20223839.1184   20223843.9634
       760.956         592.953
   5103556.508 9   3978306.79048  21130357.030    21130358.5704   21130363.1454
     -2327.798       -1813.869
  -7430861.724 9  -5777590.28348  22465790.550    22465792.3894   22465796.9904
      -159.342        -124.163
  -1710617.236 8   -336164.98855  24871875.158    24871877.8644   24871885.4695
      3463.219        2698.612
  -4108579.155 9  -3186926.44846  23620805.181    23620806.2164   23620811.8004
      -857.806        -668.420
 97  5  7 16 55 29.9990000  0  7 19  2  7 27 26  4 15               -0.000233981
  15006225.316 8  11681698.54846  24738766.223    24738767.9964   24738774.9404
     -3410.703       -2657.691
   -999657.953 9   -722993.36848  21038277.060    21038278.2704   21038283.0134
      -367.519        -286.378
 -11296048.000 9  -8787599.92248  20219537.219    20219538.8284   20219543.6214
       744.571         580.185
   5173595.026 9   4032882.24648  21143684.840    21143686.4974   21143691.1124
     -2342.388       -1825.237
  -7425808.402 9  -5773652.64048  22466751.672    22466753.9344   22466758.5694
      -178.317        -138.948
  -1814566.583 8   -417164.37645  24852094.512    24852095.7875   24852103.8704
      3465.856        2700.667
  -4082563.774 9  -3166654.73246  23625754.700    23625756.6664   23625762.3494
      -877.461        -683.736
 97  5  7 16 55 59.9990000  0  7 19  2  7 27 26  4 15               -0.000234874
  15108605.657 8  11761475.22445  24758248.963    24758250.3784   24758257.7124
     -3414.868       -2660.936
   -988543.993 9   -714333.14848  21040392.044    21040393.2034   21040397.9444
      -373.627        -291.138
 -11318155.977 9  -8804826.91248  20215330.313    20215331.8294   20215336.6644
       729.116         568.142
   5244076.404 9   4087802.78548  21157097.170    21157098.7034   21157103.3424
     -2356.798       -1836.466
  -7420194.336 9  -5769278.06648  22467820.118    22467822.2454   22467826.8784
      -196.361        -153.008
  -1918592.073 8   -498223.05945  24832298.072    24832299.8044   24832308.3334
      3468.861        2703.008
  -4055955.483 9  -3145921.01546  23630818.597    23630820.0244   23630825.7314
      -896.869        -698.859
 97  5  7 16 56 29.9990000  0  7 19  2  7 27 26  4 15               -0.000235744
  15211111.026 8  11841349.41545  24777754.876    24777756.6724   24777763.5934
     -3419.492       -2664.539
   -977252.511 9   -705534.59348  21042540.795    21042541.9504   21042546.6634
      -379.822        -295.965
 -11339805.782 9  -8821696.88448  20211210.640    20211212.0014   20211216.9444
       713.666         556.103
   5314995.609 9   4143064.49048  21170592.994    21170594.2124   21170598.8424
     -2371.782       -1848.142
  -7414040.065 9  -5764482.55848  22468991.065    22468993.4264   22468998.0484
      -214.409        -167.072
  -2022705.501 8   -579350.34645  24812486.026    24812487.8744   24812496.0914
      3471.545        2705.100
  -4028761.049 9  -3124730.57946  23635993.448    23635994.9674   23636000.6864
      -916.739        -714.342
 97  5  7 16 56 59.9990000  0  7 19  2  7 27 26  4 15               -0.000236586
  15313754.809 8  11921331.61845  24797287.308    24797289.2894   24797295.7524
     -3423.794       -2667.891
   -965768.748 9   -696586.21148  21044726.085    21044727.2604   21044731.8994
      -386.044        -300.814
 -11360998.516 9  -8838210.70348  20207177.661    20207179.1464   20207184.1834
       698.712         544.451
   5386369.369 9   4198680.39348  21184175.132    21184176.1774   21184180.8554
     -2386.850       -1859.883
  -7407353.969 9  -5759272.63248  22470263.367    22470265.7864   22470270.3944
      -231.662        -180.516
  -2126911.260 8   -660549.48545  24792656.345    24792658.2704   24792666.5204
      3475.240        2707.979
  -4000972.999 9  -3103077.56446  23641280.591    23641282.7624   23641288.5084
      -936.142        -729.461
 97  5  7 16 57 29.9990000  0  8 19  2  9  7 27 26  4 15            -0.000237396
  15416521.404 8  12001409.25945  24816842.835    24816844.8214   24816852.1714
     -3427.418       -2670.715
   -954110.154 9   -687501.59948  21046944.619    21046945.8004   21046950.4474
      -391.165        -304.804
   -233811.43218   -164751.76655  24860443.063           0.0005   24860455.4845
      3393.689        2644.433
 -11381736.977 9  -8854370.52948  20203231.191    20203232.7344   20203237.8074
       683.572         532.654
   5458199.467 9   4254651.87748  21197843.795    21197844.9864   21197849.6944
     -2401.817       -1871.546
  -7400143.293 9  -5753653.94048  22471635.845    22471637.9754   22471642.5194
      -249.138        -194.133
  -2231231.294 8   -741837.77345  24772805.084    24772806.8454   24772815.0864
      3479.124        2711.006
  -3972601.738 9  -3080970.10546  23646679.707    23646681.7314   23646687.3754
      -955.354        -744.432
 97  5  7 16 57 59.9990000  0  8 19  2  9  7 27 26  4 15            -0.000238166
  15519407.311 8  12081579.98545  24836421.670    24836423.4704   24836430.7104
     -3431.575       -2673.955
   -942299.822 9   -678298.75348  21049192.001    21049193.2234   21049197.8564
      -396.228        -308.749
   -335611.233 8   -244076.16245  24841078.419    24841077.9465   24841084.0984
      3392.778        2643.723
 -11402006.669 9  -8870165.09048  20199373.971    20199375.5224   20199380.5754
       667.735         520.313
   5530478.094 9   4310972.86248  21211597.927    21211599.1934   21211603.8514
     -2416.652       -1883.105
  -7392396.925 9  -5747617.83248  22473109.829    22473112.0594   22473116.6194
      -267.362        -208.334
  -2335645.820 8   -823199.61545  24752935.166    24752937.5264   24752945.7254
      3481.736        2713.041
  -3943642.954 9  -3058404.81946  23652191.250    23652192.5724   23652197.7974
      -975.142        -759.851
 97  5  7 16 58 29.9990000  0  8 19  2  9  7 27 26  4 15            -0.000238906
  15622412.993 8  12161844.20945  24856023.681    24856025.1264   24856031.8204
     -3435.750       -2677.208
   -930330.924 9   -668972.34448  21051469.697    21051470.8284   21051475.4594
      -402.235        -313.430
   -437378.885 8   -323375.60855  24821710.020    24821711.0864   24821717.7025
      3391.264        2642.543
 -11421797.527 9  -8885586.53448  20195607.942    20195609.4484   20195614.4544
       651.077         507.333
   5603191.339 9   4367632.51548  21225434.800    21225436.0574   21225440.7324
     -2431.199       -1894.441
  -7384099.894 9  -5741152.63548  22474688.594    22474690.9034   22474695.6184
      -286.043        -222.891
  -2440133.913 8   -904618.87045  24733052.528    24733054.3764   24733062.1694
      3483.751        2714.611
  -3914095.854 9  -3035381.12946  23657813.515    23657815.1364   23657820.2624
      -995.036        -775.353
 97  5  7 16 58 59.9990000  0  8 19  2  9  7 27 26  4 15            -0.000239633
  15725536.336 8  12242199.86346  24875647.218    24875648.8644   24875656.3584
     -3438.923       -2679.680
   -918187.637 9   -659510.05548  21053780.447    21053781.6414   21053786.2314
      -407.131        -317.245
   -539102.064 8   -402640.38945  24802352.690    24802353.8245   24802360.0374
      3390.361        2641.840
 -11441087.169 9  -8900617.42548  20191937.324    20191938.7394   20191943.7734
       634.883         494.714
   5676326.096 9   4424620.61448  21239351.817    21239353.1574   21239357.8264
     -2444.328       -1904.671
  -7375253.281 9  -5734259.18548  22476372.237    22476374.3764   22476379.0014
      -303.691        -236.642
  -2544693.934 8   -986094.07845  24713155.914    24713156.9084   24713164.8824
      3486.929        2717.088
  -3883961.454 9  -3011899.81646  23663548.125    23663549.6254   23663554.7624
     -1013.834        -790.000
 97  5  7 16 59 29.9990000  0  8 19  2  9  7 27 26  4 15            -0.000240372
  15828754.818 8  12322629.73845  24895288.836    24895290.9554   24895298.3804
     -3442.342       -2682.344
   -905890.880 9   -649928.17148  21056120.352    21056121.6374   21056126.2534
      -412.783        -321.649
   -640789.622 8   -481877.33445  24783002.577    24783003.5994   24783009.6004
      3388.898        2640.700
 -11459880.463 9  -8915261.54548  20188360.922    20188362.4594   20188367.5564
       618.041         481.590
   5749851.833 9   4481913.38048  21253343.127    21253344.6734   21253349.3384
     -2457.422       -1914.874
  -7365873.696 9  -5726950.42848  22478157.086    22478159.2034   22478163.7294
      -321.456        -250.485
  -2649337.697 8  -1067634.67145  24693241.959    24693243.7004   24693251.6184
      3489.307        2718.941
  -3853256.925 9  -2987974.24946  23669391.403    23669392.4754   23669397.9234
     -1033.095        -805.009
 97  5  7 16 59 59.9990000  0  8 19  2  9  7 27 26  4 15            -0.000241135
  15932092.750 8  12403152.77745  24914953.202    24914955.2214   24914962.2564
     -3446.273       -2685.408
   -893393.163 9   -640189.69548  21058498.577    21058499.9194   21058504.5384
      -420.017        -327.286
   -742418.459 8   -561068.67645  24763663.995    24763664.7894   24763670.5494
      3386.880        2639.127
 -11478154.184 9  -8929500.80748  20184883.695    20184885.0784   20184890.1394
       600.811         468.164
   5823783.390 9   4539522.37248  21267411.748    21267413.4314   21267418.0794
     -2470.847       -1925.335
  -7355956.917 9  -5719223.08348  22480044.234    22480046.3274   22480051.0004
      -339.136        -264.262
  -2754043.728 8  -1149223.64645  24673316.607    24673318.7614   24673326.5694
      3491.662        2720.776
  -3821963.130 9  -2963589.50546  23675345.997    23675347.4624   23675353.0044
     -1052.673        -820.265
 97  5  7 17  0 29.9990000  0  8 19  2  9  7 27 26  4 15            -0.000241937
  16035534.386 8  12483756.55045  24934637.895    24934639.5004   24934646.7644
     -3450.815       -2688.947
   -880685.554 9   -630287.66748  21060916.820    21060918.1174   21060922.7454
      -427.807        -333.356
   -843996.988 8   -640220.67245  24744334.225    24744335.0914   24744341.0034
      3384.385        2637.183
 -11495928.055 9  -8943350.56948  20181501.494    20181502.7844   20181507.8474
       583.310         454.527
   5898105.597 9   4597435.76748  21281554.815    21281556.5214   21281561.1474
     -2484.896       -1936.283
  -7345525.798 9  -5711094.96248  22482029.431    22482031.4274   22482036.2024
      -357.002        -278.183
  -2858844.966 8  -1230886.90745  24653373.367    24653375.7694   24653383.3394
      3494.144        2722.710
  -3790095.969 9  -2938757.95746  23681410.882    23681411.7084   23681417.1094
     -1072.685        -835.858
 97  5  7 17  0 59.9990000  0  8 19  2  9  7 27 26  4 15            -0.000242764
  16139105.997 8  12564461.55845  24954347.037    24954348.7364   24954355.9964
     -3454.795       -2692.048
   -867768.002 9   -620222.04748  21063374.940    21063376.2604   21063380.8974
      -433.982        -338.168
   -945525.949 9   -719334.12945  24725013.495    24725014.6404   24725020.6294
      3383.501        2636.494
 -11513194.974 9  -8956805.30648  20178215.691    20178217.0114   20178222.0634
       567.281         442.037
   5972839.961 9   4655670.31948  21295776.472    21295778.0144   21295782.7154
     -2498.272       -1946.705
  -7334573.288 9  -5702560.55548  22484113.643    22484115.5614   22484120.4004
      -373.958        -291.396
  -2963734.919 8  -1312619.21845  24633413.864    24633415.8414   24633423.5774
      3497.632        2725.428
  -3757642.082 9  -2913469.20346  23687586.455    23687587.4114   23687592.9824
     -1091.607        -850.603
 97  5  7 17  1 29.9990000  0  8 19  2  9  7 27 26  4 15            -0.000243594
  16242803.227 8  12645264.48845  24974079.920    24974081.5714   24974089.0324
     -3458.920       -2695.262
   -854661.365 9   -610009.09248  21065869.064    21065870.3554   21065874.9944
      -440.215        -343.025
  -1047028.694 8   -798427.13745  24705698.747    24705699.3124   24705705.0794
      3382.803        2635.950
 -11529989.559 9  -8969891.99148  20175019.800    20175021.1234   20175026.1634
       551.953         430.093
   6047989.139 9   4714228.09948  21310076.943    21310078.4364   21310083.2154
     -2512.239       -1957.589
  -7323104.136 9  -5693623.56548  22486296.126    22486298.0394   22486302.8304
      -391.140        -304.784
  -3068719.192 8  -1394425.14745  24613435.531    24613438.2244   24613445.6284
      3500.819        2727.911
  -3724615.201 9  -2887733.98146  23693871.251    23693872.1934   23693877.7634
     -1110.588        -865.393
 97  5  7 17  1 59.9990000  0  8 19  2  9  7 27 26  4 15            -0.000244396
  16346649.512 8  12726183.59245  24993841.066    24993843.1784   24993850.2564
     -3463.683       -2698.974
   -841346.353 9   -599633.76748  21068402.833    21068404.1384   21068408.7724
      -446.882        -348.220
  -1148479.878 9   -877479.96645  24686393.032    24686393.7664   24686399.4144
      3381.216        2634.714
 -11546292.571 9  -8982595.63348  20171917.506    20171918.7774   20171923.7914
       535.526         417.293
   6123590.958 9   4773138.58548  21324463.767    21324465.0324   21324469.8484
     -2527.341       -1969.357
  -7311088.249 9  -5684260.55848  22488582.716    22488584.6734   22488589.4194
      -409.448        -319.050
  -3173765.414 8  -1476279.20745  24593446.718    24593448.5834   24593455.8874
      3502.695        2729.373
  -3690994.182 9  -2861535.82246  23700269.140    23700270.0374   23700275.6144
     -1130.326        -880.774
 97  5  7 17  2 29.9990000  0  8 19  2  9  7 27 26  4 15            -0.000245168
  16450626.769 8  12807204.80745  25013627.599    25013629.5594   25013636.6604
     -3468.311       -2702.580
   -827853.181 9   -589119.61748  21070970.577    21070971.8174   21070976.4384
      -452.861        -352.879
  -1249898.539 9   -956507.45745  24667092.959    24667094.5004   24667100.0304
      3379.714        2633.543
 -11562129.269 9  -8994935.91748  20168903.726    20168905.1974   20168910.1334
       519.937         405.146
   6199632.580 9   4832391.78148  21338934.235    21338935.2914   21338940.1184
     -2542.475       -1981.149
  -7298537.039 9  -5674480.42348  22490971.154    22490973.0434   22490977.9064
      -427.619        -333.210
  -3278874.812 8  -1558182.63245  24573444.471    24573447.0624   24573454.0524
      3504.256        2730.589
  -3656800.445 9  -2834891.36947  23706775.829    23706777.0884   23706782.5784
     -1149.523        -895.732
 97  5  7 17  2 59.9990000  0  7  2  9  7 27 26  4 15               -0.000245887
   -814174.480 9   -578460.88848  21073573.572    21073574.7624   21073579.3814
      -458.966        -357.636
  -1351259.158 9  -1035489.68645  24647803.745    24647806.2494   24647811.8104
      3377.643        2631.930
 -11577490.918 9  -9006906.01848  20165980.533    20165981.9644   20165986.8794
       504.266         392.935
   6276139.086 9   4892007.22948  21353492.832    21353493.9344   21353498.8694
     -2557.877       -1993.151
  -7285428.508 9  -5664266.01148  22493465.460    22493467.4484   22493472.4304
      -446.214        -347.699
  -3384017.518 8  -1640111.91745  24553436.326    24553438.9234   24553446.0964
      3505.446        2731.516
  -3622023.613 9  -2807792.57346  23713394.062    23713394.9184   23713400.3294
     -1168.844        -910.788
 97  5  7 17  3 29.9990000  0  7  2  9  7 27 26  4 15               -0.000246560
   -800319.864 9   -567665.09648  21076209.878    21076211.1804   21076215.8014
      -465.086        -362.405
  -1452555.734 9  -1114422.06945  24628528.570    24628530.3034   24628535.8954
      3375.020        2629.886
 -11592388.797 9  -9018514.74848  20163145.479    20163146.9534   20163151.9414
       488.393         380.566
   6353093.604 9   4951971.77048  21368136.798    21368137.8604   21368142.8764
     -2572.672       -2004.679
  -7271769.545 9  -5653622.67448  22496064.819    22496066.7644   22496071.6294
      -464.575        -362.006
  -3489205.654 8  -1722076.63045  24533418.911    24533422.1314   24533429.2464
      3506.700        2732.494
  -3586675.891 9  -2780248.91146  23720120.177    23720121.2324   23720126.7204
     -1188.074        -925.772
 97  5  7 17  3 59.9990000  0  7  2  9  7 27 26  4 15               -0.000247207
   -786286.862 9   -556730.30448  21078880.266    21078881.5144   21078886.1494
      -470.404        -366.548
  -1553770.890 9  -1193291.01546  24609267.975    24609269.7314   24609275.1884
      3373.019        2628.326
 -11606808.551 9  -9029750.91948  20160401.358    20160402.8664   20160407.9724
       473.171         368.705
   6430476.941 9   5012270.44848  21382862.074    21382863.3664   21382868.4244
     -2586.050       -2015.104
  -7257567.443 9  -5642556.14048  22498767.225    22498769.2734   22498774.1584
      -482.017        -375.598
  -3594430.107 8  -1804069.65845  24513395.750    24513398.5584   24513405.7114
      3508.459        2733.864
  -3550753.511 9  -2752257.46546  23726955.331    23726956.9044   23726962.5624
     -1206.645        -940.243
 97  5  7 17  4 29.9990000  0  7  2  9  7 27 26  4 15               -0.000247829
   -772093.031 9   -545670.18148  21081581.255    21081582.5114   21081587.1094
      -475.724        -370.694
  -1654930.504 9  -1272116.65246  24590019.042    24590019.6824   24590025.0024
      3371.155        2626.874
 -11620780.196 9  -9040637.91148  20157742.527    20157744.1084   20157749.2304
       458.211         357.048
   6508257.253 9   5072878.46848  21397662.890    21397664.4234   21397669.5584
     -2599.236       -2025.379
  -7242843.715 9  -5631083.13848  22501569.190    22501571.1454   22501576.0914
      -499.558        -389.266
  -3699711.112 8  -1886106.74245  24493361.409    24493364.3444   24493371.1654
      3510.518        2735.468
  -3514271.922 9  -2723830.29746  23733897.575    23733899.1724   23733904.9144
     -1225.423        -954.875
 97  5  7 17  4 59.9990000  0  7  2  9  7 27 26  4 15               -0.000248463
   -757744.514 9   -534489.52748  21084311.729    21084312.9204   21084317.5544
      -481.225        -374.981
  -1756043.840 9  -1350906.24246  24570777.557    24570778.5174   24570783.9234
      3369.599        2625.662
 -11634293.633 9  -9051167.86548  20155170.911    20155172.6384   20155177.7234
       442.348         344.687
   6586427.698 9   5133790.48548  21412538.088    21412539.7814   21412544.9604
     -2612.419       -2035.651
  -7227592.376 9  -5619199.00848  22504471.608    22504473.5454   22504478.4004
      -517.350        -403.130
  -3805062.837 8  -1968198.92245  24473313.279    24473316.3954   24473323.3904
      3512.608        2737.097
  -3477224.127 9  -2694961.94146  23740948.194    23740949.3364   23740954.9744
     -1244.731        -969.920
 97  5  7 17  5 29.9990000  0  7  2  9  7 27 26  4 15               -0.000249094
   -743225.578 9   -523176.07748  21087074.701    21087075.8224   21087080.4794
      -487.121        -379.575
  -1857116.117 9  -1429663.78446  24551543.514    24551544.9264   24551550.5834
      3368.318        2624.663
 -11647334.094 9  -9061329.25248  20152689.435    20152691.1834   20152696.2564
       426.556         332.381
   6664987.068 9   5195005.55448  21427487.287    21427489.1234   21427494.3794
     -2625.345       -2045.723
  -7211824.700 9  -5606912.53748  22507472.511    22507474.0084   22507478.8984
      -534.054        -416.146
  -3910485.785 8  -2050346.64045  24453253.008    24453255.2504   24453261.9234
      3514.994        2738.956
  -3439602.644 9  -2665646.54146  23748107.648    23748108.6634   23748114.1744
     -1263.752        -984.742
 97  5  7 17  5 59.9990000  0  7  2  9  7 27 26  4 15               -0.000249744
   -728529.514 9   -511724.60248  21089871.204    21089872.3994   21089877.1084
      -493.485        -384.534
  -1958164.948 9  -1508403.10246  24532313.636    24532316.0044   24532321.6734
      3367.515        2624.038
 -11659904.743 9  -9071124.55748  20150297.432    20150299.1144   20150304.1394
       410.651         319.988
   6743934.421 9   5256522.94948  21442510.711    21442512.3324   21442517.5494
     -2638.722       -2056.147
  -7195570.241 9  -5594246.75448  22510565.369    22510567.0904   22510571.9184
      -550.456        -428.927
  -4015987.556 8  -2132555.74945  24433176.074    24433178.9874   24433185.6814
      3517.529        2740.932
  -3401420.861 9  -2635894.54946  23755373.058    23755374.5124   23755379.8224
     -1282.531        -999.375
 97  5  7 17  6 29.9990000  0  7  2  9  7 27 26  4 15               -0.000250422
   -713639.155 9   -500121.72748  21092704.839    21092705.9994   21092710.7094
      -499.639        -389.329
  -2059192.383 9  -1587125.77046  24513088.518    24513091.1664   24513096.7844
      3367.002        2623.638
 -11671986.818 9  -9080539.16148  20147998.568    20148000.0304   20148005.0284
       394.146         307.127
   6823284.590 9   5318354.23148  21457610.824    21457612.2144   21457617.3964
     -2651.882       -2066.401
  -7178827.564 9  -5581200.52648  22513751.128    22513753.1264   22513757.7954
      -566.271        -441.250
  -4121569.908 8  -2214827.61245  24413084.678    24413087.2144   24413094.0854
      3520.526        2743.267
  -3362678.753 9  -2605705.92846  23762745.501    23762746.8814   23762752.2664
     -1300.822       -1013.628
 97  5  7 17  6 59.9990000  0  7  2  9  7 27 26  4 15               -0.000251124
   -698552.546 9   -488365.93848  21095575.895    21095576.9614   21095581.6594
      -506.908        -394.993
  -2160187.280 9  -1665823.02846  24493870.623    24493872.5334   24493877.9674
      3365.099        2622.155
 -11683561.307 9  -9089558.24148  20145795.941    20145797.4994   20145802.5234
       376.812         293.620
   6903043.975 9   5380504.38348  21472788.700    21472789.9924   21472795.1314
     -2666.239       -2077.589
  -7161603.253 9  -5567779.00848  22517028.680    22517030.8284   22517035.5404
      -582.691        -454.045
  -4227221.749 8  -2297153.66045  24392979.955    24392982.4824   24392989.2754
      3522.025        2744.435
  -3323380.808 9  -2575084.18546  23770223.936    23770225.0994   23770230.4494
     -1319.724       -1028.356
 97  5  7 17  7 29.9990000  0  7  2  9  7 27 26  4 15               -0.000251836
   -683250.515 9   -476442.28248  21098487.745    21098488.8834   21098493.5574
      -513.883        -400.428
  -2261120.252 9  -1744472.04446  24474663.727    24474665.6724   24474671.2354
      3363.068        2620.572
 -11694623.760 9  -9098178.32648  20143690.810    20143692.3634   20143697.4194
       360.003         280.522
   6983233.022 9   5442989.33348  21488048.173    21488049.5104   21488054.5654
     -2680.446       -2088.659
  -7143889.958 9  -5553976.46548  22520399.623    22520401.6344   22520406.4164
      -599.051        -466.793
  -4332910.327 8  -2379508.31545  24372868.649    24372870.6414   24372877.3744
      3522.999        2745.194
  -3283522.121 9  -2544025.48847  23777809.374    23777810.0554   23777815.4334
     -1338.257       -1042.798
 97  5  7 17  7 59.9990000  0  7  2  9  7 27 26  4 15               -0.000252542
   -667732.098 9   -464350.01848  21101440.829    21101441.9204   21101446.5994
      -520.264        -405.401
  -2361980.883 9  -1823064.75146  24455471.407    24455472.5194   24455478.1674
      3361.084        2619.026
 -11705167.311 9  -9106394.07848  20141684.554    20141685.9714   20141691.0494
       343.326         267.527
   7063855.842 9   5505812.28448  21503390.253    21503391.5844   21503396.5974
     -2694.058       -2099.266
  -7125653.325 9  -5539766.11548  22523870.112    22523872.0064   22523876.8734
      -616.479        -480.373
  -4438607.361 8  -2461869.59646  24352754.883    24352757.0924   24352763.8494
      3523.791        2745.811
  -3243093.417 9  -2512522.64947  23785502.975    23785503.4704   23785508.8644
     -1356.725       -1057.188
 97  5  7 17  8 29.9990000  0  7  2  9  7 27 26  4 15               -0.000253253
   -652045.111 9   -452126.39948  21104425.868    21104427.0314   21104431.7104
      -525.759        -409.682
  -2462791.095 9  -1901618.11046  24436288.084    24436288.9244   24436294.7174
      3359.323        2617.654
 -11715228.976 9  -9114234.33448  20139769.772    20139771.2134   20139776.3514
       327.400         255.117
   7144871.880 9   5568941.64348  21518807.010    21518808.4524   21518813.4194
     -2707.297       -2109.582
  -7106901.564 9  -5525154.38948  22527438.221    22527440.2844   22527445.2384
      -633.877        -493.930
  -4544334.230 8  -2544254.06745  24332635.455    24332637.8844   24332644.8374
      3524.322        2746.225
  -3202121.003 9  -2480596.14346  23793299.647    23793300.2014   23793305.6744
     -1375.046       -1071.464
 97  5  7 17  8 59.9990000  0  7  2  9  7 27 26  4 15               -0.000253941
   -636172.581 9   -439758.20348  21107446.329    21107447.5034   21107452.1194
      -532.654        -415.055
  -2563533.748 9  -1980118.80246  24417116.825    24417118.0154   24417124.0174
      3356.701        2615.611
 -11724815.914 9  -9121704.67548  20137945.216    20137946.8194   20137952.0134
       311.611         242.814
   7226301.296 9   5632393.11148  21534302.686    21534303.9784   21534308.9654
     -2721.444       -2120.606
  -7087610.782 9  -5510122.62548  22531109.251    22531111.1914   22531116.1134
      -652.345        -508.321
  -4650055.743 8  -2626634.39045  24312516.995    24312519.7754   24312526.5664
      3523.685        2745.729
  -3160583.715 9  -2448229.47546  23801204.010    23801204.5244   23801210.0444
     -1394.285       -1086.456
 97  5  7 17  9 29.9990000  0  7  2  9  7 27 26  4 15               -0.000254602
   -620105.931 9   -427238.74348  21110503.771    21110504.8934   21110509.4744
      -538.509        -419.617
  -2664202.597 9  -2058561.99946  24397959.315    24397961.4244   24397967.4714
      3354.559        2613.942
 -11733940.578 9  -9128814.80548  20136208.997    20136210.5104   20136215.6494
       296.617         231.130
   7308135.882 9   5696160.30348  21549875.102    21549876.5654   21549881.6044
     -2734.161       -2130.515
  -7067780.453 9  -5494670.44948  22534882.866    22534884.8044   22534889.7824
      -669.695        -521.840
  -4755774.866 8  -2709012.86345  24292400.631    24292402.1024   24292408.8214
      3524.118        2746.066
  -3118479.542 9  -2415421.05646  23809216.113    23809216.6744   23809222.3854
     -1412.755       -1100.848
 97  5  7 17  9 59.9990000  0  7  2  9  7 27 26  4 15               -0.000255253
   -603865.494 9   -414583.86748  21113594.120    21113595.3774   21113599.9564
      -544.346        -424.166
  -2764807.756 9  -2136955.60146  24378814.935    24378816.8554   24378822.6714
      3352.108        2612.032
 -11742616.993 9  -9135575.65448  20134558.108    20134559.4954   20134564.5664
       281.663         219.478
   7390343.297 9   5760217.99848  21565518.775    21565520.1264   21565525.1774
     -2746.584       -2140.195
  -7047434.803 9  -5478816.72448  22538754.852    22538756.5004   22538761.4804
      -686.765        -535.142
  -4861513.387 8  -2791406.41745  24272279.012    24272280.4914   24272287.3484
      3524.931        2746.699
  -3075822.775 9  -2382182.04446  23817332.589    23817333.9214   23817339.8024
     -1431.227       -1115.242
 97  5  7 17 10 29.9990000  0  7  2  9  7 27 26  4 15               -0.000255891
   -587444.627 9   -401788.39648  21116718.840    21116720.1804   21116724.7694
      -550.089        -428.641
  -2865334.589 9  -2215288.17746  24359684.211    24359687.1594   24359692.8104
      3350.136        2610.495
 -11750848.204 9  -9141989.58448  20132991.811    20132993.1794   20132998.1704
       267.426         208.384
   7472929.031 9   5824570.49548  21581234.227    21581235.6834   21581240.6554
     -2758.786       -2149.703
  -7026581.930 9  -5462567.74748  22542722.913    22542724.7044   22542729.6364
      -703.054        -547.834
  -4967268.916 8  -2873813.25645  24252154.236    24252155.6374   24252162.7284
      3525.919        2747.469
  -3032609.217 9  -2348509.18846  23825555.877    23825557.2874   23825563.0444
     -1449.239       -1129.277
 97  5  7 17 10 59.9990000  0  7  2  9  7 27 26  4 15               -0.000256513
   -570836.247 9   -388846.81048  21119879.357    21119880.6404   21119885.2844
      -556.440        -433.590
  -2965782.798 9  -2293559.43546  24340570.224    24340572.4124   24340578.1874
      3346.914        2607.985
 -11758629.613 9  -9148053.02348  20131511.073    20131512.4574   20131517.3904
       251.789         196.199
   7555894.821 9   5889219.12848  21597022.496    21597023.5314   21597028.4884
     -2771.746       -2159.802
  -7005220.176 9  -5445922.24348  22546787.732    22546789.7264   22546794.6604
      -720.574        -561.486
  -5073043.136 8  -2956234.63245  24232025.658    24232027.4694   24232034.7074
      3526.417        2747.857
  -2988844.393 9  -2314406.78346  23833884.499    23833885.5294   23833891.0414
     -1467.893       -1143.813
 97  5  7 17 11 29.9990000  0  7  2  9  7 27 26  4 15               -0.000257136
   -554077.611 9   -375788.14248  21123068.420    21123069.6934   21123074.3994
      -561.225        -437.318
  -3066155.268 9  -2371771.67146  24321470.535    24321472.0944   24321478.0514
      3344.296        2605.945
 -11765965.703 9  -9153769.46148  20130115.087    20130116.4924   20130121.3544
       236.891         184.590
   7639227.839 9   5954153.91248  21612880.304    21612881.2874   21612886.2184
     -2784.155       -2169.471
  -6983353.288 9  -5428883.14248  22550948.953    22550950.9034   22550955.8914
      -737.517        -574.688
  -5178860.414 8  -3038689.57745  24211888.692    24211890.8624   24211898.1444
      3527.510        2748.709
  -2944546.408 9  -2279888.89946  23842313.628    23842314.9884   23842320.6424
     -1485.702       -1157.690
 97  5  7 17 11 59.9990000  0  7  2  9  7 27 26  4 15               -0.000257742
   -537155.432 9   -362602.04148  21126288.621    21126289.8334   21126294.6004
      -567.119        -441.911
  -3166433.774 9  -2449910.73346  24302387.727    24302389.6964   24302395.6854
      3340.784        2603.208
 -11772839.012 9  -9159125.28048  20128807.108    20128808.5214   20128813.4094
       221.136         172.314
   7722955.128 9   6019395.91848  21628812.857    21628814.0554   21628818.9774
     -2797.890       -2180.174
  -6960957.510 9  -5411431.91548  22555210.975    22555212.7274   22555217.6264
      -755.648        -588.817
  -5284689.459 8  -3121153.71245  24191750.219    24191752.1234   24191759.3954
      3527.625        2748.799
  -2899699.241 9  -2244943.08446  23850847.495    23850849.0904   23850854.8644
     -1504.286       -1172.171
 97  5  7 17 12 29.9990000  0  7  2  9  7 27 26  4 15               -0.000258319
   -520055.991 9   -349277.81348  21129542.467    21129543.7314   21129548.4904
      -572.895        -446.412
  -3266610.978 9  -2527970.86746  24283325.417    24283326.6354   24283332.6024
      3337.835        2600.910
 -11779249.099 9  -9164120.15448  20127587.340    20127588.7304   20127593.6304
       206.181         160.661
   7807093.713 9   6084958.43048  21644823.924    21644825.0704   21644829.9464
     -2811.305       -2190.627
  -6938026.214 9  -5393563.38948  22559574.877    22559576.5014   22559581.2454
      -773.044        -602.372
  -5390522.556 8  -3203621.00445  24171610.972    24171612.8984   24171620.0114
      3527.928        2749.035
  -2854299.459 9  -2209566.64046  23859487.511    23859488.4114   23859494.2074
     -1522.336       -1186.236
 97  5  7 17 12 59.9990000  0  7  2  9  7 27 26  4 15               -0.000258885
   -502785.898 9   -335820.61648  21132829.071    21132830.1624   21132834.8474
      -578.103        -450.470
  -3366703.080 9  -2605964.68846  24264278.429    24264279.7004   24264285.7214
      3335.234        2598.884
 -11785211.225 9  -9168765.97348  20126452.898    20126454.1864   20126459.0634
       191.769         149.430
   7891631.554 9   6150832.04748  21660910.821    21660912.1364   21660916.9544
     -2824.116       -2200.610
  -6914580.004 9  -5375293.63948  22564036.488    22564038.1154   22564042.8854
      -789.417        -615.130
  -5496372.655 8  -3286101.54245  24151468.469    24151470.3994   24151477.1654
      3529.076        2749.929
  -2808362.159 9  -2173771.37646  23868229.369    23868229.9374   23868235.7274
     -1539.829       -1199.867
 97  5  7 17 13 29.9990000  0  7  2  9  7 27 26  4 15               -0.000259437
   -485332.934 9   -322220.91348  21136150.289    21136151.4164   21136156.0284
      -585.337        -456.107
  -3466698.910 9  -2683883.42546  24245249.951    24245251.0594   24245257.0844
      3331.427        2595.917
 -11790732.481 9  -9173068.25148  20125402.160    20125403.5494   20125408.4064
       176.498         137.531
   7976563.817 9   6217013.00648  21677072.872    21677074.1964   21677079.0224
     -2837.675       -2211.175
  -6890646.816 9  -5356644.42348  22568590.849    22568592.5134   22568597.3234
      -805.757        -627.863
  -5602239.874 9  -3368595.40245  24131322.344    24131324.5214   24131331.2704
      3528.969        2749.846
  -2761885.148 9  -2137555.57046  23877073.504    23877074.3614   23877080.1074
     -1558.365       -1214.310
 97  5  7 17 13 59.9990000  0  7  2  9  7 27 26  4 15               -0.000259990
   -467668.524 9   -308456.44748  21139511.738    21139512.8794   21139517.4504
      -592.230        -461.478
  -3566601.802 9  -2761729.81246  24226238.899    24226240.2384   24226246.1414
      3328.894        2593.943
 -11795799.424 9  -9177016.52148  20124437.988    20124439.2864   20124444.2164
       161.389         125.758
   8061878.697 9   6283492.11248  21693307.562    21693309.0904   21693313.8834
     -2849.886       -2220.690
  -6866249.452 9  -5337633.51548  22573233.596    22573235.2154   22573240.0394
      -820.809        -639.591
  -5708127.960 9  -3451105.55346  24111171.283    24111174.5914   24111181.1914
      3530.307        2750.889
  -2714866.930 9  -2100918.03246  23886021.229    23886021.6514   23886027.5874
     -1576.145       -1228.165
 97  5  7 17 14 29.9990000  0  7  2  9  7 27 26  4 15               -0.000260548
   -449780.333 9   -294517.60248  21142915.855    21142916.9314   21142921.4564
      -599.853        -467.418
  -3666419.149 9  -2839509.52246  24207244.208    24207245.6024   24207251.3894
      3325.997        2591.686
 -11800397.346 9  -9180599.32048  20123563.074    20123564.2844   20123569.2344
       145.348         113.258
   8147569.187 9   6350263.90048  21709613.674    21709615.4284   21709620.2614
     -2862.469       -2230.495
  -6841380.650 9  -5318255.25748  22577966.166    22577967.5514   22577972.4564
      -836.916        -652.142
  -5814036.342 9  -3533631.49646  24091017.843    24091021.0114   24091027.5234
      3530.449        2750.999
  -2667298.272 9  -2063851.55746  23895073.038    23895073.5454   23895079.7064
     -1594.786       -1242.690
 97  5  7 17 14 59.9990000  0  7  2  9  7 27 26  4 15               -0.000261123
   -431690.531 9   -280421.67048  21146358.264    21146359.3004   21146363.8624
      -605.915        -472.142
  -3766168.922 9  -2917236.59046  24188262.537    24188263.7564   24188269.5934
      3324.073        2590.187
 -11804518.768 9  -9183810.81348  20122778.718    20122779.9834   20122784.9524
       129.590         100.979
   8233617.535 9   6417314.52648  21725988.259    21725989.8624   21725994.7624
     -2874.008       -2239.487
  -6816038.810 9  -5298508.38548  22582788.561    22582789.9654   22582794.8504
      -852.279        -664.114
  -5919967.635 9  -3616175.29546  24070859.885    24070863.0394   24070869.2714
      3531.745        2752.009
  -2619186.456 9  -2026361.84946  23904228.065    23904229.0194   23904235.0344
     -1612.428       -1256.437
 97  5  7 17 15 29.9990000  0  7  2  9  7 27 26  4 15               -0.000261715
   -413410.209 9   -266177.27648  21149836.892    21149837.9094   21149842.5314
      -612.683        -477.415
  -3865849.769 9  -2994909.91146  24169293.624    24169295.0954   24169301.0624
      3321.428        2588.126
 -11808157.984 9  -9186646.56148  20122086.081    20122087.4414   20122092.4214
       113.093          88.124
   8320028.992 9   6484648.09548  21742432.010    21742433.4364   21742438.4264
     -2886.751       -2249.416
  -6790224.541 9  -5278393.39548  22587700.688    22587702.2844   22587707.2644
      -868.845        -677.022
  -6025915.699 8  -3698732.14146  24050698.976    24050701.7434   24050708.0544
      3531.468        2751.793
  -2570531.823 9  -1988449.18146  23913486.743    23913487.7884   23913493.5244
     -1631.098       -1270.985
 97  5  7 17 15 59.9990000  0  7  2  9  7 27 26  4 15               -0.000262324
   -394961.108 9   -251801.36448  21153347.482    21153348.6284   21153353.2784
      -618.052        -481.599
  -3965480.661 9  -3072544.33446  24150334.211    24150335.9054   24150341.9564
      3319.741        2586.811
 -11811332.451 9  -9189120.17748  20121482.071    20121483.3744   20121488.3214
        98.008          76.370
   8406795.765 9   6552258.53748  21758943.478    21758944.6934   21758949.6564
     -2898.602       -2258.651
  -6763929.166 9  -5257903.52848  22592704.408    22592706.0684   22592711.2024
      -884.958        -689.578
  -6131872.641 8  -3781295.92246  24030535.986    24030538.6414   24030545.0194
      3531.434        2751.767
  -2521348.229 9  -1950124.33246  23922846.010    23922847.0534   23922852.7094
     -1648.628       -1284.645
 97  5  7 17 16 29.9990000  0  7  2  9  7 27 26  4 15               -0.000262922
   -376340.681 9   -237291.95348  21156890.937    21156891.9934   21156896.6584
      -623.097        -485.530
  -4065034.835 9  -3150118.96746  24131389.350    24131391.3734   24131397.3704
      3317.216        2584.844
 -11814053.796 9  -9191240.71148  20120964.197    20120965.5254   20120970.4934
        83.561          65.112
   8493944.618 9   6620166.70347  21775527.562    21775528.5994   21775533.5394
     -2911.170       -2268.444
  -6737137.470 9  -5237026.91248  22597802.811    22597804.4894   22597809.4894
      -900.812        -701.931
  -6237803.239 9  -3863839.18946  24010378.102    24010380.6334   24010386.8904
      3530.829        2751.295
  -2471623.289 9  -1911377.67446  23932308.096    23932309.3824   23932314.8844
     -1666.084       -1298.247
 97  5  7 17 16 59.9990000  0  7  2  9  7 27 26  4 15               -0.000263509
   -357555.887 9   -222654.46248  21160465.658    21160466.6234   21160471.3014
      -629.303        -490.366
  -4164491.342 9  -3227617.49046  24112462.730    24112465.3334   24112471.3864
      3313.218        2581.728
 -11816331.134 9  -9193015.26048  20120530.885    20120532.1964   20120537.1514
        68.454          53.341
   8581484.039 9   6688379.21347  21792185.775    21792186.8324   21792191.7854
     -2924.764       -2279.037
  -6709867.316 9  -5215777.46248  22602992.187    22602993.9094   22602998.7834
      -916.787        -714.379
  -6343713.519 8  -3946366.57846  23990223.938    23990226.4634   23990232.9674
      3529.855        2750.536
  -2421368.149 9  -1872217.83046  23941871.006    23941872.6254   23941878.3684
     -1684.174       -1312.343
 97  5  7 17 17 29.9990000  0  7  2  9  7 27 26  4 15               -0.000264071
   -338581.223 9   -207869.01748  21164076.471    21164077.3894   21164082.0444
      -636.082        -495.648
  -4263829.086 9  -3305023.49846  24093559.439    24093562.0644   24093568.0994
      3308.943        2578.397
 -11818171.044 9  -9194448.96648  20120180.779    20120182.0984   20120187.0544
        53.759          41.890
   8669424.127 9   6756903.92847  21808920.098    21808921.3334   21808926.2824
     -2938.081       -2289.414
  -6682130.197 9  -5194164.14348  22608270.283    22608272.0064   22608276.9594
      -932.836        -726.885
  -6449590.077 9  -4028867.71646  23970076.304    23970078.6824   23970085.2934
      3528.247        2749.283
  -2370577.991 9  -1832641.10946  23951536.366    23951537.7294   23951543.5954
     -1702.253       -1326.431
 97  5  7 17 17 59.9990000  0  7  2  9  7 27 26  4 15               -0.000264616
   -319406.615 9   -192927.77948  21167725.278    21167726.2144   21167730.9094
      -642.733        -500.831
  -4363049.501 9  -3382338.09446  24074679.165    24074681.0514   24074686.9134
      3305.169        2575.456
 -11819576.149 9  -9195543.86148  20119913.533    20119914.7414   20119919.6064
        39.229          30.568
   8757741.543 9   6825722.66348  21825726.206    21825727.5484   21825732.6154
     -2950.199       -2298.856
  -6653921.274 9  -5172183.19048  22613638.131    22613639.9674   22613644.8684
      -948.265        -738.908
  -6555440.938 9  -4111348.81746  23949933.508    23949935.8244   23949942.3524
      3527.958        2749.058
  -2319257.941 9  -1792651.48046  23961302.431    23961303.6244   23961309.5434
     -1719.719       -1340.041
 97  5  7 17 18 29.9990000  0  7  2  9  7 27 26  4 15               -0.000265151
   -300029.622 9   -177828.83148  21171412.597    21171413.5874   21171418.2644
      -649.081        -505.777
  -4462139.906 9  -3459551.32646  24055822.650    24055824.7244   24055830.5714
      3300.994        2572.203
 -11820519.819 9  -9196279.19848  20119733.909    20119735.2014   20119739.9474
        23.498          18.310
   8846430.986 9   6894831.29347  21842603.511    21842604.6224   21842609.6484
     -2962.286       -2308.275
  -6625232.928 9  -5149828.65448  22619097.469    22619099.2544   22619104.0654
      -964.407        -751.486
  -6661275.041 9  -4193816.86846  23929793.556    23929796.1694   23929802.7254
      3527.641        2748.811
  -2267402.522 9  -1752244.68346  23971170.424    23971171.3024   23971177.2564
     -1737.346       -1353.776
 97  5  7 17 18 59.9990000  0  7  2  9  7 27 26  4 15               -0.000265694
   -280467.583 9   -162585.69548  21175134.982    21175136.1104   21175140.8224
      -654.777        -510.216
  -4561122.433 9  -3536680.52146  24036986.946    24036988.8174   24036994.6854
      3298.139        2569.978
 -11820995.136 9  -9196649.57548  20119643.469    20119644.7994   20119649.5014
         8.587           6.691
   8935463.351 9   6964207.13047  21859545.920    21859546.9324   21859552.0224
     -2972.965       -2316.596
  -6596059.944 9  -5127096.49047  22624648.900    22624650.5864   22624655.4604
      -980.119        -763.729
  -6767109.635 9  -4276285.31446  23909654.408    23909656.5684   23909663.0734
      3528.105        2749.173
  -2215023.873 9  -1711430.20446  23981137.591    23981138.6414   23981144.5354
     -1754.316       -1366.999
 97  5  7 17 19 29.9990000  0  7  2  9  7 27 26  4 15               -0.000266247
   -260727.242 9   -147203.61748  21178891.571    21178892.6124   21178897.3544
      -661.137        -515.172
  -4660013.503 9  -3613738.45646  24018169.272    24018170.4834   24018176.2494
      3294.681        2567.284
 -11821019.040 9  -9196668.20148  20119639.032    20119640.3064   20119644.9494
        -7.020          -5.470
   9024822.070 9   7033837.27047  21876550.514    21876551.3374   21876556.5274
     -2984.260       -2325.397
  -6566399.538 9  -5103984.51248  22630292.872    22630294.7654   22630299.6534
      -997.334        -777.143
  -6872940.594 9  -4358750.93846  23889515.770    23889517.4904   23889524.0154
      3527.401        2748.624
  -2162127.602 9  -1670212.36546  23991203.456    23991204.6294   23991210.3504
     -1772.095       -1380.853
 97  5  7 17 19 59.9990000  0  7  2  9  7 27 26  4 15               -0.000266815
   -240815.641 9   -131688.09348  21182680.513    21182681.6294   21182686.4444
      -667.060        -519.787
  -4758817.282 9  -3690728.40246  23999367.526    23999368.7274   23999374.3544
      3291.318        2564.663
 -11820585.491 9  -9196330.36548  20119721.559    20119722.8254   20119727.3954
       -22.700         -17.688
   9114503.333 9   7103718.73947  21893616.160    21893617.1354   21893622.3264
     -2995.461       -2334.125
  -6536238.871 9  -5080482.71848  22636032.273    22636034.2004   22636039.1504
     -1013.971        -790.107
  -6978773.200 9  -4441217.80846  23869376.489    23869378.0944   23869384.7224
      3527.133        2748.415
  -2108718.232 9  -1628594.69046  24001367.421    24001368.0474   24001373.8304
     -1789.379       -1394.321
 97  5  7 17 20 29.9990000  0  7  2  9  7 27 26  4 15               -0.000267386
   -220730.408 9   -116037.26848  21186502.521    21186503.7294   21186508.5054
      -672.367        -523.922
  -4857514.094 9  -3767634.94246  23980585.904    23980587.2724   23980593.0064
      3288.339        2562.342
 -11819685.971 9  -9195629.43848  20119892.732    20119893.9074   20119898.5744
       -37.376         -29.124
   9204537.198 9   7173874.95947  21910748.804    21910750.0334   21910755.1724
     -3007.024       -2343.136
  -6505580.997 9  -5056593.48848  22641866.463    22641868.1934   22641873.1454
     -1030.030        -802.621
  -7084577.738 9  -4523662.83246  23849242.156    23849244.1584   23849250.8814
      3526.288        2747.757
  -2054787.504 9  -1586570.77846  24011629.602    24011630.7874   24011636.4254
     -1806.178       -1407.411
 97  5  7 17 20 59.9990000  0  7  2  9  7 27 26  4 15               -0.000267945
   -200450.487 9   -100234.74348  21190361.806    21190362.8754   21190367.6914
      -679.454        -529.445
  -4956105.741 9  -3844459.54946  23961824.247    23961825.8454   23961831.6604
      3284.546        2559.386
 -11818344.195 9  -9194583.89148  20120148.003    20120149.1854   20120153.9824
       -51.926         -40.462
   9294936.469 9   7244315.90947  21927951.129    21927952.4934   21927957.5454
     -3019.480       -2352.841
  -6474433.876 9  -5032323.04148  22647793.871    22647795.3944   22647800.2024
     -1046.180        -815.205
  -7190343.225 9  -4606077.40746  23829115.446    23829117.6204   23829124.3264
      3524.772        2746.575
  -2000340.076 9  -1544144.25346  24021990.708    24021991.8514   24021997.3704
     -1823.524       -1420.928
 97  5  7 17 21 29.9990000  0  7  2  9  7 27 26  4 15               -0.000268491
   -179965.156 9    -84272.15848  21194260.143    21194261.1784   21194265.9334
      -685.876        -534.449
  -5054585.196 9  -3921196.76246  23943083.687    23943085.7464   23943091.5964
      3280.949        2556.584
 -11816566.757 9  -9193198.87248  20120486.344    20120487.4144   20120492.2574
       -66.389         -51.732
   9385709.182 9   7315047.85047  21945224.606    21945225.9814   21945231.0254
     -3031.670       -2362.340
  -6442813.441 9  -5007683.76748  22653811.253    22653812.6074   22653817.3044
     -1061.664        -827.271
  -7296061.598 9  -4688455.27446  23808997.795    23809000.2414   23809006.8294
      3523.441        2745.538
  -1945380.053 9  -1501318.30146  24032449.379    24032450.3684   24032455.8624
     -1840.274       -1433.980
 97  5  7 17 21 59.9990000  0  7  2  9  7 27 26  4 15               -0.000269024
   -159274.019 9    -68149.20748  21198197.621    21198198.6214   21198203.3684
      -692.747        -539.803
  -5152937.810 9  -3997835.12446  23924367.972    23924369.7934   23924375.6634
      3276.683        2553.259
 -11814340.137 9  -9191463.83848  20120910.120    20120911.1204   20120915.9844
       -81.198         -63.271
   9476860.279 9   7386074.64147  21962570.258    21962571.5114   21962576.5364
     -3044.236       -2372.132
  -6410720.281 9  -4982676.13947  22659918.233    22659919.7514   22659924.4454
     -1077.108        -839.305
  -7401728.505 9  -4770793.04846  23788890.226    23788892.5154   23788898.8744
      3521.687        2744.172
  -1889904.120 9  -1458090.31846  24043005.996    24043007.0754   24043012.9504
     -1857.422       -1447.342
 97  5  7 17 22 29.9990000  0  7  2  9  7 27 26  4 15               -0.000269537
   -138378.916 9    -51867.32148  21202173.828    21202174.8454   21202179.6384
      -699.913        -545.387
  -5251162.177 9  -4074373.54546  23905676.429    23905678.3244   23905684.0814
      3271.931        2549.557
 -11811680.159 9  -9189391.12848  20121416.063    20121417.2624   20121422.1454
       -95.754         -74.614
   9568384.876 9   7457392.48447  21979986.878    21979988.1014   21979993.1834
     -3056.936       -2382.028
  -6378161.639 9  -4957305.80347  22666113.526    22666115.4204   22666120.1404
     -1093.136        -851.794
  -7507335.084 9  -4853083.81046  23768793.434    23768796.1944   23768802.3994
      3519.274        2742.291
  -1833912.367 9  -1414460.39446  24053661.528    24053661.9814   24053668.0944
     -1875.064       -1461.089
 97  5  7 17 22 59.9990000  0  7  2  9  7 27 26  4 15               -0.000270034
   -117284.454 9    -35430.08448  21206188.067    21206188.9794   21206193.7804
      -705.928        -550.074
  -5349260.934 9  -4150814.12146  23887008.840    23887010.7624   23887016.5044
      3268.058        2546.539
 -11808595.841 9  -9186987.77348  20122003.099    20122004.2664   20122008.9774
      -109.708         -85.487
   9660267.418 9   7528989.24147  21997471.963    21997472.8474   21997477.9194
     -3068.259       -2390.851
  -6345138.122 9  -4931573.21247  22672397.690    22672399.6104   22672404.3014
     -1108.160        -863.501
  -7612893.919 9  -4935337.37946  23748706.495    23748709.0724   23748715.1334
      3518.035        2741.326
  -1777405.972 9  -1370429.48946  24064414.104    24064414.8134   24064420.7794
     -1891.895       -1474.204
 97  5  7 17 23 29.9990000  0  7  2  9  7 27 26  4 15               -0.000270533
    -96034.056 9    -18871.34448  21210231.792    21210232.7744   21210237.5734
      -710.964        -553.998
  -5447249.601 9  -4227168.87946  23868362.261    23868364.0914   23868369.7694
      3264.340        2543.642
 -11805097.113 9  -9184261.48548  20122668.968    20122670.0814   20122674.6834
      -123.612         -96.321
   9752476.508 9   7600840.44647  22015018.651    22015019.6974   22015024.8414
     -3079.129       -2399.321
  -6311674.724 9  -4905497.85448  22678765.593    22678767.4854   22678772.1944
     -1122.917        -875.000
  -7718415.158 9  -5017561.61746  23728626.395    23728628.8074   23728634.9774
      3516.747        2740.322
  -1720400.743 9  -1326009.87946  24075261.697    24075262.6194   24075268.5964
     -1908.570       -1487.197
 97  5  7 17 23 59.9990000  0  7  2  9  7 27 26  4 15               -0.000271023
    -74615.076 9     -2181.24248  21214307.700    21214308.6684   21214313.4604
      -716.804        -558.548
  -5545111.336 9  -4303424.74846  23849739.565    23849741.5874   23849747.2734
      3260.101        2540.338
 -11801170.523 9  -9181201.80548  20123416.212    20123417.3024   20123421.8934
      -137.827        -107.398
   9845023.956 9   7672955.30447  22032629.789    22032631.0134   22032636.1064
     -3090.463       -2408.153
  -6277750.822 9  -4879063.68047  22685221.117    22685222.9954   22685227.7134
     -1138.428        -887.087
  -7823888.635 9  -5099748.64946  23708555.844    23708557.6384   23708563.9404
      3515.096        2739.036
  -1662881.014 9  -1281189.32746  24086207.297    24086208.2574   24086214.4334
     -1925.747       -1500.582
 97  5  7 17 24 29.9990000  0  7  2  9  7 27 26  4 15               -0.000271505
    -53024.821 9     14642.32548  21218416.153    21218417.1894   21218421.9224
      -722.584        -563.052
  -5642849.390 9  -4379584.24046  23831140.768    23831142.7204   23831148.3124
      3255.771        2536.964
 -11796822.287 9  -9177813.57148  20124243.778    20124244.8024   20124249.3794
      -152.196        -118.594
   9937908.096 9   7745332.52447  22050305.444    22050306.3664   22050311.4584
     -3101.761       -2416.957
  -6243367.431 9  -4852271.45647  22691764.214    22691766.0304   22691770.6854
     -1153.766        -899.038
  -7929310.753 9  -5181895.64146  23688494.384    23688496.2914   23688502.7484
      3513.083        2737.467
  -1604851.469 9  -1235971.54746  24097249.182    24097251.0144   24097257.1984
     -1942.901       -1513.949
 97  5  7 17 24 59.9990000  0  7  2  9  7 27 26  4 15               -0.000271985
    -31263.167 9     31599.44748  21222557.279    21222558.3584   21222563.0194
      -728.397        -567.582
  -5740464.638 9  -4455648.02246  23812565.720    23812567.0964   23812572.6504
      3251.702        2533.794
 -11792035.977 9  -9174083.99348  20125154.536    20125155.6184   20125160.2044
      -167.126        -130.228
  10031127.792 9   7817971.19247  22068044.407    22068045.5004   22068050.5744
     -3112.956       -2425.680
  -6208526.656 9  -4825122.81747  22698394.385    22698396.0894   22698400.6594
     -1168.999        -910.908
  -8034680.615 9  -5264001.95246  23668443.151    23668445.1044   23668451.4924
      3511.304        2736.081
  -1546315.255 9  -1190358.94546  24108388.694    24108390.1214   24108396.4254
     -1959.671       -1527.016
 97  5  7 17 25 29.9990000  0  7  2  9  7 27 26  4 15               -0.000272467
     -9314.723 9     48702.12348  21226734.051    21226735.0794   21226739.7254
      -735.333        -572.987
  -5837949.581 9  -4531610.27546  23794014.597    23794016.2344   23794021.9264
      3246.879        2530.035
 -11786800.478 9  -9170004.38648  20126150.829    20126151.8974   20126156.5404
      -182.208        -141.980
  10124684.380 9   7890872.40247  22085847.324    22085848.7224   22085853.8174
     -3124.641       -2434.785
  -6173229.362 9  -4797618.46247  22705111.220    22705112.9584   22705117.5184
     -1184.519        -923.002
  -8139989.829 9  -5346060.99946  23648404.024    23648405.3694   23648411.7074
      3509.108        2734.370
  -1487274.163 9  -1144352.92746  24119623.880    24119625.2624   24119631.4994
     -1976.773       -1540.342
 97  5  7 17 25 59.9990000  0  7  2  9  7 27 26  4 15               -0.000272953
     12832.925 9     65960.02248  21230948.676    21230949.6964   21230954.2574
      -741.612        -577.879
  -5935309.929 9  -4607475.47446  23775487.372    23775489.2824   23775494.8564
      3243.326        2527.267
 -11781134.261 9  -9165589.15248  20127229.083    20127230.1554   20127234.8654
      -196.080        -152.790
  10218573.930 9   7964033.05647  22103714.331    22103715.3144   22103720.4154
     -3135.208       -2443.019
  -6137490.897 9  -4769770.32747  22711911.934    22711913.8344   22711918.3974
     -1198.464        -933.868
  -8245256.753 9  -5428087.08646  23628372.649    23628373.7514   23628380.0464
      3508.089        2733.576
  -1427743.339 9  -1097965.32746  24130952.054    24130953.6224   24130959.6384
     -1992.479       -1552.581
 97  5  7 17 26 29.9990000  0  7  2  9  7 27 26  4 15               -0.000273449
     35183.746 9     83376.23848  21235201.893    21235202.9584   21235207.4864
      -748.366        -583.142
  -6032548.802 9  -4683245.98046  23756983.626    23756985.3294   23756990.8884
      3239.306        2524.135
 -11775034.185 9  -9160835.84348  20128389.836    20128390.9414   20128395.7304
      -210.674        -164.162
  10312788.887 9   8037447.26247  22121643.199    22121643.8084   22121649.0014
     -3145.835       -2451.300
  -6101328.566 9  -4741591.91247  22718793.640    22718795.3364   22718799.9764
     -1212.275        -944.630
  -8350470.188 9  -5510071.51146  23608350.964    23608352.2914   23608358.5534
      3506.163        2732.075
  -1367726.349 9  -1051198.86446  24142373.097    24142374.5234   24142380.4184
     -2008.658       -1565.188
 97  5  7 17 26 59.9990000  0  7  2  9  7 27 26  4 15               -0.000273956
     57739.692 9    100952.28448  21239494.045    21239495.2204   21239499.7594
      -755.066        -588.363
  -6129663.941 9  -4758920.09946  23738503.556    23738504.8274   23738510.4744
      3235.219        2520.950
 -11768490.098 9  -9155736.55448  20129635.108    20129636.2684   20129641.0774
      -225.306        -175.563
  10407334.659 9   8111119.26447  22139634.720    22139635.3274   22139640.5694
     -3157.009       -2460.007
  -6064741.485 9  -4713082.52647  22725755.861    22725757.5344   22725762.1984
     -1226.632        -955.817
  -8455624.111 9  -5592009.54846  23588340.422    23588342.1834   23588348.3084
      3504.344        2730.658
  -1307219.807 9  -1004050.94446  24153887.462    24153888.5864   24153894.6234
     -2024.851       -1577.806
 97  5  7 17 27 29.9990000  0  7  2  9  7 27 26  4 15               -0.000274464
     80503.572 9    118690.36048  21243825.890    21243827.0434   21243831.5514
      -762.513        -594.166
  -6226646.617 9  -4834490.96646  23720048.126    23720049.6064   23720055.3474
      3230.185        2517.027
 -11761508.596 9  -9150296.42848  20130963.726    20130964.9064   20130969.5834
      -240.221        -187.185
  10502222.821 9   8185058.06247  22157691.384    22157691.9844   22157697.3234
     -3169.004       -2469.354
  -6027716.394 9  -4684231.83647  22732801.239    22732803.1484   22732807.9034
     -1241.866        -967.688
  -8560713.159 9  -5673897.03946  23568342.517    23568344.3684   23568350.3964
      3501.444        2728.398
  -1246219.945 9   -956518.61246  24165495.265    24165496.4644   24165502.7034
     -2041.889       -1591.082
 97  5  7 17 27 59.9990000  0  7  2  9  7 27 26  4 15               -0.000274968
    103469.731 9    136586.05748  21248196.185    21248197.3364   21248201.9004
      -768.295        -598.671
  -6323499.413 9  -4909960.64746  23701617.720    23701619.1614   23701624.8584
      3226.561        2514.203
 -11754085.064 9  -9144511.86248  20132376.564    20132377.6274   20132382.1814
      -254.649        -198.428
  10597457.488 9   8259266.85547  22175813.683    22175814.5884   22175819.9004
     -3179.766       -2477.740
  -5990238.224 9  -4655028.09647  22739933.489    22739935.1184   22739939.9194
     -1256.661        -979.216
  -8665716.295 9  -5755717.55846  23548360.856    23548362.8294   23548368.8254
      3498.700        2726.260
  -1184721.292 9   -908597.63146  24177198.054    24177199.1904   24177205.5034
     -2057.915       -1603.570
 97  5  7 17 28 29.9990000  0  7  2  9  7 27 26  4 15               -0.000275475
    126603.086 9    154612.04048  21252598.378    21252599.4614   21252604.0564
      -773.945        -603.074
  -6420230.749 9  -4985335.69246  23683210.278    23683211.7974   23683217.3714
      3222.149        2510.765
 -11746226.109 9  -9138388.00048  20133872.047    20133873.1354   20133877.6364
      -269.221        -209.782
  10693013.307 9   8333725.90147  22193997.296    22193998.1984   22194003.4904
     -3190.713       -2486.270
  -5952305.658 9  -4625470.28147  22747151.999    22747153.4864   22747158.3354
     -1272.119        -991.262
  -8770631.763 9  -5837469.81046  23528395.769    23528398.0574   23528403.9834
      3495.723        2723.940
  -1122738.425 9   -860299.37046  24188993.316    24188994.2454   24189000.5194
     -2074.224       -1616.278
 97  5  7 17 28 59.9990000  0  7  2  9  7 27 26  4 15               -0.000275971
    149912.690 9    172775.35848  21257034.127    21257035.1214   21257039.7194
      -779.860        -607.683
  -6516819.167 9  -5060599.37746  23664830.284    23664831.7134   23664837.1624
      3217.259        2506.955
 -11737929.989 9  -9131923.49548  20135450.660    20135451.8344   20135456.3344
      -283.543        -220.943
  10788913.560 9   8408453.33447  22212246.249    22212247.4474   22212252.7014
     -3202.259       -2495.267
  -5913895.174 9  -4595540.07347  22754461.014    22754462.7114   22754467.6794
     -1288.114       -1003.725
  -8875453.319 9  -5919148.86846  23508449.054    23508451.0774   23508457.0114
      3492.586        2721.495
  -1060261.165 9   -811615.83246  24200882.674    24200883.3724   24200889.5044
     -2090.637       -1629.068
 97  5  7 17 29 29.9990000  0  7  2  9  7 27 26  4 15               -0.000276457
    173410.474 9    191085.30948  21261505.559    21261506.6114   21261511.1744
      -785.982        -612.454
  -6613259.481 9  -5135747.63746  23646477.772    23646479.7304   23646485.0944
      3212.738        2503.432
 -11729200.191 9  -9125121.05448  20137111.788    20137113.0144   20137117.6034
      -297.689        -231.965
  10885147.428 9   8483440.72847  22230558.870    22230560.1774   22230565.4454
     -3212.576       -2503.306
  -5875019.253 9  -4565247.17247  22761858.627    22761860.5584   22761865.6054
     -1302.707       -1015.096
  -8980169.200 9  -6000745.58546  23488522.070    23488524.2094   23488530.1154
      3489.178        2718.840
   -997289.248 9   -762546.85346  24212865.495    24212866.4464   24212872.5574
     -2106.725       -1641.604
 97  5  7 17 29 59.9990000  0  7  2  9  7 27 26  4 15               -0.000276944
    197084.027 9    209532.22248  21266010.490    21266011.5294   21266016.0514
      -791.899        -617.064
  -6709560.253 9  -5210787.17246  23628151.850    23628154.2544   23628159.6534
      3207.786        2499.573
 -11720049.007 9  -9117990.25948  20138852.979    20138854.3914   20138859.0334
      -311.926        -243.059
  10981682.262 9   8558662.63047  22248928.678    22248930.1424   22248935.4304
     -3222.622       -2511.134
  -5835715.012 9  -4534620.51447  22769337.883    22769339.9584   22769344.9914
     -1317.044       -1026.268
  -9084784.745 9  -6082264.12846  23468614.687    23468616.5304   23468622.2864
      3485.856        2716.251
   -933838.483 8   -713104.72046  24224939.955    24224940.7254   24224946.7884
     -2122.808       -1654.136
 97  5  7 17 30 29.9990000  0  7  2  9  7 27 26  4 15               -0.000277429
    220948.657 9    228128.02448  21270551.928    21270552.8214   21270557.2844
      -799.279        -622.815
  -6805701.252 9  -5285702.20246  23609857.429    23609859.2054   23609864.5994
      3201.713        2494.841
 -11710472.433 9  -9110527.99648  20140675.444    20140676.7054   20140681.3554
      -326.552        -254.456
  11078525.564 9   8634124.91347  22267357.543    22267358.8644   22267364.1414
     -3233.664       -2519.738
  -5795977.873 9  -4503656.52947  22776899.681    22776901.7154   22776906.7434
     -1332.000       -1037.922
  -9189312.446 9  -6163714.19646  23448723.435    23448725.5284   23448731.2724
      3482.561        2713.684
   -869904.704 8   -663286.23246  24237105.875    24237106.7864   24237112.9874
     -2139.474       -1667.123
 97  5  7 17 30 59.9990000  0  7  2  9  7 27 26  4 15               -0.000277906
    245030.448 9    246893.04148  21275134.589    21275135.4644   21275139.8954
      -806.213        -628.218
  -6901683.315 9  -5360493.38546  23591592.153    23591594.3814   23591599.8904
      3196.887        2491.081
 -11700472.062 9  -9102735.49448  20142578.344    20142579.6364   20142584.3394
      -340.299        -265.168
  11175686.250 9   8709834.50047  22285846.337    22285847.9234   22285853.2054
     -3243.722       -2527.575
  -5755808.680 9  -4472355.88047  22784543.683    22784545.6304   22784550.7644
     -1345.969       -1048.807
  -9293743.146 9  -6245088.70246  23428851.462    23428852.9584   23428858.6544
      3479.362        2711.191
   -805483.235 9   -613087.72346  24249364.701    24249365.7164   24249372.1194
     -2155.362       -1679.503
 97  5  7 17 31 29.9990000  0  7  2  9  7 27 26  4 15               -0.000278382
    269319.916 9    265819.88948  21279756.645    21279757.5774   21279762.0654
      -813.126        -633.605
  -6997508.632 9  -5435162.42446  23573358.297    23573359.4274   23573364.9734
      3191.285        2486.716
 -11690053.303 9  -9094616.97948  20144561.046    20144562.2884   20144566.9764
      -354.294        -276.073
  11273139.249 9   8785771.85747  22304391.418    22304392.6094   22304397.9694
     -3253.391       -2535.110
  -5715224.499 9  -4440731.87247  22792266.631    22792268.5604   22792273.7994
     -1359.941       -1059.694
  -9398076.855 9  -6326387.61346  23408997.278    23408998.8984   23409004.5784
      3476.219        2708.742
   -740585.242 9   -562517.86046  24261714.639    24261715.3014   24261721.9704
     -2171.233       -1691.870
 97  5  7 17 31 59.9990000  0  7  2  9  7 27 26  4 15               -0.000278857
    293808.368 9    284901.79048  21284416.767    21284417.5774   21284422.0644
      -819.443        -638.527
  -7093169.492 9  -5509703.33146  23555155.011    23555155.7694   23555161.3034
      3186.349        2482.869
 -11679224.981 9  -9086179.32548  20146621.668    20146622.8944   20146627.5334
      -367.488        -286.354
  11370888.058 9   8861939.73247  22322991.975    22322993.5734   22322998.9974
     -3263.220       -2542.769
  -5674211.134 9  -4408773.43147  22800071.214    22800073.1284   22800078.4064
     -1374.188       -1070.796
  -9502328.288 9  -6407622.38646  23389159.023    23389160.4164   23389166.2264
      3474.105        2707.095
   -675217.294 9   -511581.87846  24274153.729    24274154.5764   24274160.9924
     -2186.436       -1703.716
 97  5  7 17 32 29.9990000  0  7  2  9  7 27 26  4 15               -0.000279329
    318503.385 9    304144.64548  21289115.894    21289116.8724   21289121.3584
      -826.821        -644.276
  -7188676.189 9  -5584124.10846  23536980.533    23536981.4964   23536987.0384
      3180.760        2478.514
 -11668003.057 9  -9077434.97148  20148757.202    20148758.4114   20148763.0034
      -380.653        -296.613
  11468943.492 9   8938346.53547  22341651.441    22341652.9264   22341658.4094
     -3273.914       -2551.102
  -5632766.081 9  -4376478.60747  22807957.848    22807959.8524   22807965.1584
     -1388.606       -1082.031
  -9606512.552 9  -6488804.85946  23369333.256    23369334.8314   23369340.5804
      3471.279        2704.893
   -609388.067 9   -460286.37446  24286680.781    24286681.7584   24286688.0564
     -2202.190       -1715.992
 97  5  7 17 32 59.9990000  0  7  2  9  7 27 26  4 15               -0.000279787
    343412.466 9    323554.30548  21293855.630    21293856.9374   21293861.4414
      -833.621        -649.575
  -7284024.746 9  -5658421.63547  23518836.134    23518837.2894   23518842.9534
      3175.697        2474.569
 -11656382.987 9  -9068380.37648  20150968.650    20150969.6214   20150974.1634
      -394.103        -307.093
  11567316.958 9   9015001.14847  22360371.652    22360372.8244   22360378.3814
     -3284.233       -2559.142
  -5590900.451 9  -4343856.06247  22815924.787    22815926.7004   22815931.8804
     -1402.475       -1092.838
  -9710603.253 9  -6569914.40546  23349525.676    23349526.9314   23349532.7844
      3468.146        2702.451
   -543088.402 9   -408624.35846  24299297.345    24299298.1144   24299304.4724
     -2217.743       -1728.111
 97  5  7 17 33 29.9990000  0  7  2  9  7 27 26  4 15               -0.000280344
    368511.877 9    343112.27548  21298632.065    21298633.2204   21298637.7274
      -839.853        -654.431
  -7379228.147 9  -5732606.08147  23500718.682    23500720.6344   23500726.3214
      3171.044        2470.943
 -11644367.276 9  -9059017.48948  20153255.034    20153256.0954   20153260.5984
      -407.051        -317.183
  11665981.029 9   9091882.19847  22379146.760    22379147.9774   22379153.6534
     -3293.677       -2566.502
  -5548630.302 9  -4310918.30647  22823968.677    22823970.5674   22823975.6254
     -1415.816       -1103.233
  -9814618.973 9  -6650965.54646  23329731.808    23329733.3334   23329739.3034
      3465.933        2700.727
   -476338.846 9   -356611.73146  24311999.339    24312000.2484   24312006.6474
     -2232.455       -1739.575
 97  5  7 17 33 59.9990000  0  7  2  9  7 27 26  4 15               -0.000280795
    393816.350 9    362830.03348  21303447.371    21303448.5044   21303452.9994
      -847.339        -660.264
  -7474281.248 9  -5806673.39047  23482630.389    23482632.6324   23482638.1564
      3165.503        2466.626
 -11631947.246 9  -9049339.54048  20155618.496    20155619.5494   20155624.0624
      -421.325        -328.305
  11764960.478 9   9169008.99347  22397981.724    22397983.1864   22397988.9274
     -3305.168       -2575.456
  -5505937.196 9  -4277650.97948  22832093.086    22832094.8734   22832099.9754
     -1430.559       -1114.721
  -9918543.998 9  -6731946.00446  23309954.953    23309957.0194   23309963.0514
      3462.017        2697.676
   -409127.645 8   -304239.43446  24324789.330    24324790.2594   24324796.5654
     -2248.562       -1752.126
 97  5  7 17 34 29.9990000  0  7  2  9  7 27 26  4 15               -0.000281220
    419366.426 9    382739.16648  21308309.380    21308310.5394   21308315.0454
      -856.064        -667.063
  -7569139.419 9  -5880588.82947  23464579.303    23464581.7064   23464587.0934
      3157.959        2460.747
 -11619068.223 9  -9039303.93648  20158069.283    20158070.3884   20158074.8904
      -437.599        -340.986
  11864301.208 9   9246417.31847  22416885.329    22416887.1884   22416892.8814
     -3317.737       -2585.250
  -5462782.534 9  -4244024.00347  22840305.410    22840306.9514   22840312.1514
     -1446.582       -1127.207
 -10022316.961 9  -6812807.96346  23290207.739    23290209.5644   23290215.6944
      3455.835        2692.858
   -341411.090 9   -251473.29346  24337676.110    24337676.4304   24337682.5884
     -2266.157       -1765.837
 97  5  7 17 34 59.9990000  0  7  2  9  7 27 26  4 15               -0.000281631
    445141.874 9    402823.91948  21313214.106    21313215.4494   21313219.9794
      -862.224        -671.863
  -7663785.332 9  -5954338.86647  23446568.693    23446571.1404   23446576.5104
      3151.737        2455.899
 -11605718.793 9  -9028901.79048  20160609.738    20160610.7704   20160615.2154
      -452.241        -352.396
  11963987.464 9   9324094.87147  22435855.149    22435856.9974   22435862.5664
     -3327.967       -2593.221
  -5419166.060 9  -4210037.17347  22848605.007    22848606.9084   22848612.1314
     -1461.123       -1138.537
 -10125922.215 9  -6893539.24946  23270491.753    23270493.9464   23270500.2344
      3451.306        2689.329
   -273192.216 9   -198315.78646  24350657.758    24350658.0434   24350664.2294
     -2281.711       -1777.957
 97  5  7 17 35 29.9990000  0  7  2  9  7 27 26  4 15               -0.000282037
    471104.359 9    423054.41448  21318154.562    21318155.9394   21318160.4664
      -868.459        -676.721
  -7758229.777 9  -6027931.89547  23428596.428    23428598.9514   23428604.3594
      3144.667        2450.390
 -11591938.191 9  -9018163.66148  20163232.217    20163233.2014   20163237.5714
      -466.181        -363.258
  12063984.292 9   9402014.43247  22454883.843    22454885.8854   22454891.2954
     -3338.555       -2601.471
  -5375120.158 9  -4175715.71548  22856986.986    22856988.6104   22856993.7614
     -1475.088       -1149.419
 -10229395.274 9  -6974167.51746  23250801.572    23250803.5684   23250810.0364
      3447.098        2686.050
   -204506.549 9   -144794.45946  24363727.942    24363728.4934   24363734.4764
     -2297.210       -1790.034
 97  5  7 17 35 59.9990000  0  7  2  9  7 27 26  4 15               -0.000282429
    497237.526 9    443417.90448  21323127.812    21323128.9524   21323133.4314
      -874.178        -681.178
  -7852476.279 9  -6101370.68847  23410662.661    23410664.4184   23410669.8704
      3138.162        2445.321
 -11577757.324 9  -9007113.63848  20165930.769    20165931.7744   20165936.1644
      -479.533        -373.662
  12164290.897 9   9480175.37447  22473971.969    22473973.7064   22473979.0554
     -3348.571       -2609.276
  -5330675.338 9  -4141083.40347  22865444.617    22865446.1944   22865451.3934
     -1488.177       -1159.618
 -10332758.810 9  -7054710.45347  23231131.848    23231134.1284   23231140.6354
      3443.359        2683.137
   -135369.377 9    -90921.43646  24376884.025    24376884.9124   24376890.8694
     -2312.208       -1801.721
 97  5  7 17 36 29.9990000  0  7  2  9  7 27 26  4 15               -0.000282805
    523562.166 9    463930.59748  21328137.294    21328138.3844   21328142.8434
      -880.708        -686.266
  -7946507.713 9  -6174641.89947  23392768.860    23392770.8134   23392776.1954
      3130.956        2439.706
 -11563168.276 9  -8995745.55248  20168706.827    20168707.9694   20168712.4194
      -492.896        -384.075
  12264893.738 9   9558567.17447  22493115.936    22493117.8574   22493123.1524
     -3358.071       -2616.679
  -5285831.103 9  -4106139.88847  22873978.167    22873979.7394   22873984.9744
     -1501.182       -1169.752
 -10435991.967 9  -7135151.79346  23211487.167    23211489.4854   23211495.9684
      3439.008        2679.746
    -65772.058 8    -36689.76645  24390127.810    24390128.8464   24390134.8434
     -2327.493       -1813.631
 97  5  7 17 36 59.9990000  0  7  2  9  7 27 26  4 15               -0.000283167
    550072.582 9    484588.05048  21333182.069    21333183.1634   21333187.6294
      -887.092        -691.240
  -8040345.209 9  -6247762.01247  23374912.378    23374914.0244   23374919.4034
      3124.583        2434.740
 -11548195.398 9  -8984078.37748  20171556.111    20171557.2054   20171561.7014
      -505.808        -394.136
  12365764.671 9   9637167.86747  22512311.295    22512312.9674   22512318.3054
     -3367.082       -2623.700
  -5240620.267 9  -4070910.67447  22882581.702    22882583.0894   22882588.2694
     -1513.411       -1179.281
 -10539111.996 9  -7215504.99846  23191864.130    23191866.3994   23191872.6484
      3435.118        2676.715
      4270.032 8     17888.50145  24403456.057    24403457.2384   24403463.3194
     -2342.409       -1825.254
 97  5  7 17 37 29.9990000  0  7  2  9  7 27 26  4 15               -0.000283519
    576794.344 9    505410.18748  21338267.033    21338268.2074   21338272.6464
      -894.626        -697.111
  -8133994.798 9  -6320735.67747  23357091.832    23357093.0914   23357098.4664
      3118.531        2430.024
 -11532820.408 9  -8972097.87148  20174481.802    20174482.9494   20174487.4984
      -519.519        -404.820
  12466913.275 9   9715984.92347  22531559.539    22531560.8444   22531566.3574
     -3376.386       -2630.950
  -5195029.769 9  -4035385.62847  22891257.323    22891258.6934   22891263.8964
     -1526.383       -1189.389
 -10642100.411 9  -7295755.63546  23172266.061    23172268.2274   23172274.5134
      3430.506        2673.122
     74771.359 9     72824.53746  24416871.944    24416873.4454   24416879.3814
     -2357.927       -1837.346
 97  5  7 17 37 59.9990000  0  7  2  9  7 27 26  4 15               -0.000283891
    603721.686 9    526392.51048  21343391.204    21343392.3794   21343396.8354
      -900.727        -701.865
  -8227497.463 9  -6393594.86247  23339298.583    23339300.1444   23339305.5184
      3114.746        2427.075
 -11517051.421 9  -8959810.35448  20177482.540    20177483.6824   20177488.2714
      -532.006        -414.550
  12568310.616 9   9794995.78447  22550854.464    22550855.9724   22550861.7444
     -3383.665       -2636.622
  -5149060.203 9  -3999565.21847  22900005.082    22900006.3684   22900011.6184
     -1538.482       -1198.817
 -10744964.261 9  -7375909.22947  23152692.308    23152693.9394   23152700.1164
      3426.709        2670.163
    145711.655 9    128102.65746  24430371.929    24430372.9684   24430378.8964
     -2371.710       -1848.086
 97  5  7 17 38 29.9990000  0  7  2  9  7 27 26  4 15               -0.000284286
    630863.849 9    547542.23048  21348556.137    21348557.3814   21348561.9264
      -908.234        -707.715
  -8320847.312 9  -6466334.95847  23321534.367    23321536.1114   23321541.5994
      3108.955        2422.562
 -11500864.620 9  -8947197.25848  20180562.606    20180563.8504   20180568.5014
      -546.735        -426.027
  12669971.871 9   9874212.30247  22570199.993    22570201.3944   22570207.2154
     -3393.480       -2644.270
  -5102687.651 9  -3963430.77448  22908829.114    22908830.8004   22908836.0794
     -1552.495       -1209.736
 -10847674.461 9  -7455943.10347  23133146.870    23133148.8184   23133154.8754
      3421.185        2665.858
    217103.342 9    183732.53346  24443957.080    24443958.4014   24443964.4454
     -2387.340       -1860.265
 97  5  7 17 38 59.9990000  0  7  2  9  7 27 26  4 15               -0.000284711
    658208.220 9    568849.51948  21353759.736    21353760.9224   21353765.4134
      -915.264        -713.193
  -8414039.546 9  -6538952.26447  23303800.575    23303802.1224   23303807.6294
      3103.215        2418.090
 -11484248.592 9  -8934249.70948  20183724.631    20183725.7114   20183730.4234
      -561.497        -437.530
  12771918.256 9   9953650.99347  22589600.031    22589601.1384   22589607.0494
     -3403.582       -2652.142
  -5055908.066 9  -3926979.17448  22917731.203    22917732.7824   22917737.9504
     -1566.898       -1220.959
 -10950236.500 9  -7535861.50547  23113629.645    23113631.8434   23113637.7994
      3415.670        2661.561
    288942.920 8    239711.41445  24457628.022    24457629.0554   24457635.1144
     -2402.530       -1872.101
 97  5  7 17 39 29.9990000  0  7  2  9  7 27 26  4 15               -0.000285161
    685759.218 9    590317.81448  21359002.493    21359003.7274   21359008.2194
      -921.907        -718.369
  -8507065.122 9  -6611439.66946  23286097.768    23286099.8124   23286105.2764
      3097.934        2413.975
 -11467201.304 9  -8920966.11648  20186968.506    20186969.7224   20186974.4144
      -575.181        -448.193
  12874165.770 9  10033324.33447  22609057.125    22609058.2194   22609064.1204
     -3413.322       -2659.731
  -5008699.009 9  -3890192.92147  22926714.892    22926716.3694   22926721.4754
     -1580.604       -1231.639
 -11052640.656 9  -7615656.91947  23094142.407    23094144.9904   23094150.8244
      3410.989        2657.914
    361226.796 8    296036.46545  24471383.311    24471384.1964   24471390.4114
     -2416.839       -1883.251
 97  5  7 17 39 59.9990000  0  7  2  9  7 27 26  4 15               -0.000285618
    713515.698 9    611946.21948  21364284.336    21364285.6194   21364290.1454
      -928.834        -723.767
  -8599916.190 9  -6683791.12247  23268428.940    23268430.7524   23268436.1714
      3091.692        2409.111
 -11449744.616 9  -8907363.51448  20190290.465    20190291.6714   20190296.3024
      -588.854        -458.847
  12976718.183 9  10113235.25147  22628571.644    22628573.3374   22628579.3194
     -3423.803       -2667.898
  -4961076.568 9  -3853084.55648  22935777.291    22935778.6484   22935783.7914
     -1594.367       -1242.364
 -11154900.601 9  -7695339.94747  23074683.385    23074685.5554   23074691.2634
      3405.914        2653.959
    433945.255 8    352700.15645  24485221.394    24485222.0924   24485228.2374
     -2431.348       -1894.557
 97  5  7 17 40 29.9990000  0  7  2  9  7 27 26  4 15               -0.000286061
    741484.339 9    633739.94848  21369606.803    21369607.9244   21369612.3784
      -936.176        -729.488
  -8692562.232 9  -6755982.82247  23250798.997    23250800.7554   23250806.1264
      3084.293        2403.345
 -11431879.677 9  -8893442.79548  20193690.093    20193691.2274   20193695.8584
      -602.451        -469.442
  13079588.261 9  10193393.71747  22648147.305    22648148.9484   22648154.8934
     -3434.430       -2676.179
  -4913050.121 9  -3815661.38148  22944916.565    22944917.8364   22944923.0504
     -1607.782       -1252.817
 -11257004.316 9  -7774901.25346  23055254.022    23055255.8554   23055261.4074
      3400.618        2649.832
    507105.765 7    409708.31445  24499143.350    24499143.7084   24499150.4024
     -2446.418       -1906.300
 97  5  7 17 40 59.9990000  0  7  2  9  7 27 26  4 15               -0.000286482
    769654.627 9    655690.80748  21374967.511    21374968.5974   21374973.0214
      -942.253        -734.223
  -8785005.618 9  -6828016.61547  23233207.345    23233209.3694   23233214.6054
      3078.211        2398.606
 -11413640.784 9  -8879230.67548  20197160.747    20197161.9074   20197166.6054
      -613.953        -478.405
  13182744.320 9  10273775.01047  22667777.546    22667779.0834   22667784.8894
     -3443.061       -2682.905
  -4864640.190 9  -3777939.39047  22954128.243    22954129.8934   22954135.1684
     -1619.993       -1262.332
 -11358962.625 9  -7854349.25247  23035852.031    23035853.8164   23035859.2884
      3396.209        2646.397
    580689.651 7    467046.36755  24513145.044    24513145.9624          0.0005
     -2459.728       -1916.671
 97  5  7 17 41 29.9990000  0  7  2  9  7 27 26  4 15               -0.000286871
    798028.877 9    677800.59348  21380367.066    21380368.0834   21380372.5274
      -949.353        -739.755
  -8877235.206 9  -6899883.80347  23215657.517    23215658.7004   23215663.8684
      3070.337        2392.470
 -11395031.034 9  -8864729.57348  20200702.131    20200703.2384   20200707.9284
      -626.752        -488.378
  13286186.979 9  10354379.63147  22687462.011    22687463.7004   22687469.3914
     -3452.987       -2690.639
  -4815843.935 9  -3739916.35947  22963413.747    22963415.5134   22963420.8184
     -1632.997       -1272.465
 -11460764.160 9  -7933675.08247  23016479.619    23016481.5704   23016487.0484
      3390.687        2642.094
    654707.068 7    524722.27055  24527230.368    24527231.0244          0.0005
     -2474.818       -1928.430
 97  5  7 17 41 59.9990000  0  7  2  9  7 27 26  4 15               -0.000287238
    826586.985 9    700053.64648  21385801.519    21385802.5144   21385807.0044
      -954.785        -743.988
  -8969245.447 9  -6971580.06747  23198148.628    23198149.7634   23198154.8414
      3063.424        2387.084
 -11376061.366 9  -8849948.01648  20204311.962    20204313.0814   20204317.7924
      -638.227        -497.320
  13389892.383 9  10435188.99547  22707196.681    22707198.3134   22707203.9304
     -3460.939       -2696.836
  -4766680.146 9  -3701606.94247  22972769.674    22972771.0974   22972776.4644
     -1644.921       -1281.757
 -11562423.582 9  -8012890.18547  22997135.003    22997136.4004   22997141.8224
      3386.161        2638.567
    729153.35517    582732.30454  24541397.161    24541398.2485          0.0005
     -2488.350       -1938.974
 97  5  7 17 42 29.9990000  0  7  2  9  7 27 26  4 15               -0.000287591
    855316.154 9    722439.99648  21391268.510    21391269.5174   21391274.0274
      -960.595        -748.516
  -9061036.219 9  -7043105.32347  23180682.272    23180682.5684   23180687.5994
      3055.885        2381.209
 -11356731.207 9  -8834885.56048  20207990.423    20207991.5194   20207996.2144
      -650.650        -507.000
  13493844.074 9  10516190.24647  22726978.040    22726979.7094   22726985.3294
     -3469.330       -2703.374
  -4717146.490 9  -3663009.32047  22982195.918    22982197.1154   22982202.4394
     -1657.626       -1291.657
 -11663927.914 9  -8091984.43747  22977819.156    22977820.6764   22977826.1764
      3380.735        2634.339
    804018.22817    641068.54354  24555644.405           0.0005          0.0005
     -2502.635       -1950.105
 97  5  7 17 42 59.9990000  0  7  2  9  7 27 26  4 15               -0.000287943
    884230.206 9    744970.41548  21396770.781    21396771.6714   21396776.2394
      -967.424        -753.837
  -9152599.018 9  -7114452.93247  23163257.970    23163258.7874   23163263.8264
      3047.912        2374.996
 -11337012.457 9  -8819520.30148  20211742.896    20211743.9114   20211748.5714
      -664.408        -517.721
  13598048.898 9  10597388.76447  22746808.481    22746809.3084   22746814.8044
     -3478.192       -2710.279
  -4667220.214 9  -3624105.75047  22991696.519    22991697.7814   22991703.0274
     -1671.185       -1302.222
 -11765260.950 9  -8170945.21347  22958535.574    22958537.5394   22958543.1564
      3374.457        2629.447
    879316.89217     20152.68852  24569973.221           0.0005          0.0005
     -2517.846       -1961.958
 97  5  7 17 43 29.9990000  0  6  2  9  7 27 26  4                  -0.000288300
    913348.177 9    767659.72548  21402311.645    21402312.6474   21402317.2664
      -974.437        -759.302
  -9243929.031 9  -7185619.15647  23145878.306    23145879.2954   23145884.3164
      3040.306        2369.070
 -11316881.490 9  -8803833.84048  20215573.666    20215574.7244   20215579.4274
      -677.953        -528.275
  13702511.747 9  10678788.32747  22766687.085    22766688.0354   22766693.4804
     -3486.344       -2716.632
  -4616901.320 9  -3584896.25747  23001271.961    23001273.1794   23001278.3694
     -1683.834       -1312.078
 -11866421.265 9  -8249771.38247  22939285.042    22939287.3454   22939293.0474
      3368.939        2625.147
 97  5  7 17 43 59.9990000  0  6  2  9  7 27 26  4                  -0.000288663
    942679.221 9    790515.06848  21407893.212    21407894.1734   21407898.7924
      -981.294        -764.645
  -9335046.106 9  -7256619.45847  23128539.104    23128540.2804   23128545.2394
      3033.810        2364.008
 -11296356.969 9  -8787840.70948  20219479.290    20219480.4194   20219485.1424
      -690.679        -538.191
  13807202.579 9  10760365.54347  22786609.310    22786610.1384   22786615.5294
     -3493.665       -2722.336
  -4566207.623 9  -3545394.69547  23010918.638    23010919.8964   23010925.0704
     -1696.026       -1321.579
 -11967412.595 9  -8328465.88847  22920067.182    22920069.2194   22920074.9304
      3363.270        2620.730
 97  5  7 17 44 29.9990000  0  6  2  9  7 27 26  4                  -0.000289032
    972241.228 9    813550.38548  21413518.649    21413519.6384   21413524.2744
      -989.312        -770.892
  -9425949.424 9  -7327453.20447  23111241.114    23111241.9504   23111246.8994
      3026.613        2358.400
 -11275419.004 9  -8771525.40948  20223463.713    20223464.7384   20223469.5054
      -704.782        -549.181
  13912153.665 9  10842145.53847  22806580.773    22806581.6944   22806587.1864
     -3502.852       -2729.495
  -4515131.132 9  -3505594.86747  23020637.894    23020639.4364   23020644.6604
     -1708.833       -1331.558
 -12068207.999 9  -8407007.73347  22900886.403    22900888.5154   22900894.1224
      3356.762        2615.659
 97  5  7 17 44 59.9990000  0  6  2  9  7 27 26  4                  -0.000289401
   1002038.082 9    836768.69248  21419188.940    21419189.7634   21419194.4434
      -997.081        -776.946
  -9516646.433 9  -7398126.17347  23093982.005    23093982.9474   23093987.8454
      3019.797        2353.089
 -11254084.130 9  -8754900.83448  20227523.594    20227524.6064   20227529.3334
      -717.442        -559.046
  14017372.433 9  10924134.14247  22826602.651    22826604.2374   22826609.6774
     -3511.826       -2736.488
  -4463684.068 9  -3465506.28347  23030427.851    23030429.4874   23030434.6884
     -1720.940       -1340.992
 -12168823.132 9  -8485409.10547  22881740.241    22881742.0244   22881747.6984
      3350.882        2611.077
 97  5  7 17 45 29.9990000  0  6  2  9  7 27 26  4                  -0.000289744
   1032073.877 9    860173.19648  21424904.547    21424905.3504   21424910.0584
     -1005.115        -783.206
  -9607123.587 9  -7468627.82147  23076764.773    23076765.6704   23076770.6054
      3012.317        2347.260
 -11232364.982 9  -8737976.81948  20231656.618    20231657.6164   20231662.3164
      -730.173        -568.966
  14122880.398 9  11006348.11147  22846680.158    22846681.8124   22846687.1664
     -3521.866       -2744.311
  -4411863.645 9  -3425126.75147  23040288.695    23040290.6364   23040295.7094
     -1733.611       -1350.866
 -12269247.107 9  -8563661.51147  22862629.904    22862631.9214   22862637.6084
      3343.969        2605.690
 97  5  7 17 45 59.9990000  0  6  2  9  7 27 26  4                  -0.000290066
   1062322.002 9    883743.15048  21430660.454    21430661.3564   21430666.0504
     -1011.513        -788.192
  -9697398.681 9  -7538972.03147  23059585.544    23059586.7954   23059591.7774
      3005.779        2342.165
 -11210289.241 9  -8720774.94448  20235857.470    20235858.5174   20235863.1894
      -741.759        -577.994
  14228671.845 9  11088782.94847  22866811.756    22866813.3364   22866818.5704
     -3531.061       -2751.476
  -4359677.377 9  -3384462.15047  23050219.305    23050221.3514   23050226.4344
     -1745.613       -1360.218
 -12369481.350 9  -8641766.09847  22843555.841    22843558.0184   22843563.5924
      3338.143        2601.150
 97  5  7 17 46 29.9990000  0  6  2  9  7 27 26  4                  -0.000290376
   1092753.777 9    907456.21148  21436451.501    21436452.3354   21436457.0364
     -1017.571        -792.912
  -9787477.531 9  -7609163.31147  23042444.355    23042445.3554   23042450.3434
      2999.183        2337.026
 -11187873.457 9  -8703308.10248  20240122.944    20240124.0914   20240128.8044
      -752.799        -586.597
  14334730.119 9  11171425.70747  22886994.790    22886995.6424   22887000.7364
     -3539.384       -2757.962
  -4307140.400 9  -3343524.28047  23060216.770    23060218.7524   23060223.8574
     -1757.056       -1369.135
 -12469557.862 9  -8719747.75247  22824512.050    22824514.0924   22824519.6314
      3333.394        2597.450
 97  5  7 17 46 59.9990000  0  6  2  9  7 27 26  4                  -0.000290671
   1123382.448 9    931322.69848  21442279.829    21442280.7134   21442285.5104
     -1024.666        -798.441
  -9877333.933 9  -7679181.26247  23025345.195    23025346.2204   23025351.2494
      2990.927        2330.592
 -11165116.193 9  -8685575.17248  20244453.422    20244454.6754   20244459.3524
      -764.964        -596.076
  14441030.128 9  11254256.81347  22907222.817    22907223.8444   22907229.0194
     -3547.703       -2764.444
  -4254250.179 9  -3302311.15847  23070281.766    23070283.4584   23070288.5474
     -1769.231       -1378.621
 -12569477.276 9  -8797607.02747  22805497.882    22805500.0434   22805505.5464
      3327.435        2592.806
 97  5  7 17 47 29.9990000  0  6  2  9  7 27 26  4                  -0.000290962
   1154216.185 9    955348.97548  21448147.517    21448148.2204   21448153.0494
     -1031.686        -803.911
  -9966958.593 9  -7749018.62647  23008290.261    23008291.1634   23008296.2284
      2983.373        2324.706
 -11141988.283 9  -8667553.42548  20248854.560    20248855.7474   20248860.4024
      -777.619        -605.937
  14547567.362 9  11337272.78547  22927496.153    22927497.2044   22927502.4024
     -3555.370       -2770.418
  -4201005.070 9  -3260821.48447  23080414.090    23080415.6734   23080420.7384
     -1780.935       -1387.742
 -12669221.383 9  -8875329.67047  22786516.796    22786519.3474   22786524.8284
      3321.405        2588.108
 97  5  7 17 47 59.9990000  0  6  2  9  7 27 26  4                  -0.000291269
   1185257.505 9    979536.99948  21454054.260    21454055.1494   21454059.9974
     -1038.214        -808.998
 -10056355.648 9  -7818678.64047  22991278.424    22991279.3624   22991284.5064
      2975.938        2318.913
 -11118478.028 9  -8649233.74948  20253328.520    20253329.5934   20253334.2104
      -790.237        -615.769
  14654320.360 9  11420456.87547  22947810.816    22947811.5994   22947816.7814
     -3561.990       -2775.577
  -4147421.174 9  -3219067.83747  23090610.991    23090612.3634   23090617.3994
     -1791.702       -1396.131
 -12768790.427 9  -8952915.91847  22767569.819    22767571.9994   22767577.4074
      3316.047        2583.933
 97  5  7 17 48 29.9990000  0  7 24  2  9  7 27 26  4               -0.000291594
  -1352433.82318  -1027276.08355  24922641.718    24922645.2395   24922654.4485
      3599.219        2804.586
   1216517.173 9   1003895.16748  21460002.719    21460003.6574   21460008.4974
     -1045.575        -814.734
 -10145513.952 9  -7888152.62047  22974311.759    22974313.0964   22974318.3154
      2968.113        2312.815
 -11094568.386 9  -8630602.86348  20257878.313    20257879.3974   20257884.0024
      -803.733        -626.285
  14761297.158 9  11503815.36947  22968167.384    22968168.5494   22968173.8224
     -3569.777       -2781.644
  -4093501.380 9  -3177052.44247  23100871.257    23100872.9534   23100878.0464
     -1802.794       -1404.774
 -12868172.747 9  -9030356.64947  22748658.694    22748660.2504   22748665.5714
      3309.405        2578.757
 97  5  7 17 48 59.9990000  0  7 24  2  9  7 27 26  4               -0.000291944
  -1460443.758 8  -1111439.59245  24902089.535    24902091.4864   24902101.0364
      3601.188        2806.120
   1247994.860 9   1028423.22648  21465992.819    21465993.6684   21465998.4604
     -1052.981        -820.505
 -10234441.250 9  -7957446.57947  22957388.917    22957390.7954   22957396.0554
      2960.439        2306.836
 -11070248.845 9  -8611652.58148  20262506.222    20262507.2514   20262511.8034
      -817.570        -637.067
  14868516.480 9  11587362.81747  22988570.073    22988571.6404   22988577.1064
     -3578.339       -2788.316
  -4039248.274 9  -3134777.32547  23111195.560    23111197.1584   23111202.1734
     -1814.237       -1413.691
 -12967338.177 9  -9107628.38847  22729787.591    22729789.6794   22729794.9594
      3301.564        2572.647
 97  5  7 17 49 29.9990000  0  7 24  2  9  7 27 26  4               -0.000292316
  -1568517.748 7  -1195653.03845  24881523.216    24881525.6584   24881534.8534
      3603.968        2808.287
   1279696.998 9   1053126.17148  21472025.575    21472026.3484   21472031.1434
     -1060.121        -826.068
 -10323146.192 9  -8026567.29847  22940508.822    22940510.8064   22940516.0914
      2953.347        2301.309
 -11045517.269 9  -8592381.23048  20267212.585    20267213.5464   20267218.0644
      -830.627        -647.242
  14975995.489 9  11671112.64046  23009022.938    23009024.1444   23009029.7244
     -3586.528       -2794.697
  -3984647.360 9  -3092231.18847  23121585.815    23121587.4454   23121592.4834
     -1825.491       -1422.461
 -13066257.552 9  -9184708.38747  22710964.080    22710965.9284   22710971.2084
      3293.422        2566.303
 97  5  7 17 49 59.9990000  0  7 24  2  9  7 27 26  4               -0.000292689
  -1676664.685 8  -1279923.34745  24860942.454    24860946.2754   24860955.1764
      3605.510        2809.488
   1311620.924 9   1078001.95248  21478100.555    21478101.3324   21478106.0004
     -1068.364        -832.491
 -10411613.761 9  -8095503.03947  22923674.373    22923675.9894   22923681.2404
      2944.335        2294.287
 -11020393.515 9  -8572804.27748  20271993.524    20271994.4354   20271998.9484
      -844.369        -657.950
  15083736.792 9  11755066.81847  23029525.593    23029526.6174   23029532.3154
     -3596.341       -2802.344
  -3929688.388 9  -3049406.03947  23132043.824    23132045.7614   23132050.8444
     -1838.659       -1432.721
 -13164922.112 9  -9261589.83047  22692189.057    22692190.6894   22692195.8854
      3284.056        2559.005
 97  5  7 17 50 29.9990000  0  7 24  2  9  7 27 26  4               -0.000293052
  -1784883.904 8  -1364249.89745  24840350.312    24840352.6594   24840361.6924
      3608.848        2812.089
   1343765.850 9   1103049.93448  21484217.627    21484218.3574   21484222.9284
     -1074.492        -837.266
 -10499841.917 9  -8164252.22547  22906885.563    22906886.7244   22906891.9254
      2937.513        2288.971
 -10994895.841 9  -8552935.96248  20276845.552    20276846.5334   20276851.0234
      -855.374        -666.525
  15191740.226 9  11839225.28447  23050077.856    23050079.0454   23050084.7294
     -3603.648       -2808.037
  -3874358.635 9  -3006291.98147  23142573.001    23142574.7094   23142579.7174
     -1849.820       -1441.418
 -13263330.672 9  -9338271.79247  22673462.694    22673464.1694   22673469.2534
      3276.654        2553.237
 97  5  7 17 50 59.9990000  0  7 24  2  9  7 27 26  4               -0.000293409
  -1893184.113 8  -1448639.65145  24819742.295    24819744.1764   24819752.8954
      3611.320        2814.015
   1376108.665 9   1128252.11248  21490372.176    21490372.9934   21490377.5604
     -1081.615        -842.817
 -10587841.415 9  -8232823.24047  22890139.655    22890140.9224   22890146.0594
      2929.221        2282.510
 -10969063.096 9  -8532806.56048  20281761.398    20281762.3924   20281766.8884
      -866.583        -675.259
  15299966.534 9  11923557.40846  23070672.882    23070673.7694   23070679.5984
     -3611.241       -2813.954
  -3818679.375 9  -2962905.57247  23153168.567    23153170.1364   23153175.1064
     -1861.941       -1450.863
 -13361508.814 9  -9414774.21347  22654779.976    22654781.4714   22654786.4114
      3268.785        2547.105
 97  5  7 17 51 29.9990000  0  7 24  2  9  7 27 26  4               -0.000293736
  -2001570.883 8  -1533096.81545  24799117.355    24799119.1334   24799127.5424
      3614.686        2816.638
   1408665.826 9   1153621.31648  21496567.532    21496568.4754   21496572.9674
     -1088.400        -848.104
 -10675587.250 9  -8301196.60047  22873442.263    22873443.4574   22873448.5084
      2920.825        2275.968
 -10942898.759 9  -8512418.76848  20286740.305    20286741.3184   20286745.8354
      -877.196        -683.529
  15408413.966 9  12008061.82646  23091309.642    23091310.5984   23091316.6924
     -3618.209       -2819.384
  -3762644.243 9  -2919241.87747  23163831.744    23163833.2494   23163838.2934
     -1873.210       -1459.644
 -13459464.412 9  -9491103.22747  22636139.431    22636141.1324   22636145.9204
      3262.141        2541.928
 97  5  7 17 51 59.9990000  0  7 24  2  9  7 27 26  4               -0.000294032
  -2110053.990 8  -1617629.10445  24778473.140    24778475.4504   24778483.6934
      3617.064        2818.491
   1441424.019 9   1179147.16748  21502801.324    21502802.1834   21502806.6514
     -1095.667        -853.766
 -10763077.739 9  -8369370.99047  22856793.270    22856794.5774   22856799.5854
      2911.740        2268.888
 -10916418.886 9  -8491785.10348  20291779.127    20291780.2364   20291784.8214
      -888.418        -692.274
  15517072.002 9  12092730.39046  23111986.619    23111987.5784   23111993.6744
     -3625.858       -2825.344
  -3706268.370 9  -2875312.65447  23174559.565    23174561.1914   23174566.2594
     -1885.308       -1469.071
 -13557234.944 9  -9567288.02547  22617534.171    22617536.0014   22617540.6684
      3255.550        2536.792
 97  5  7 17 52 29.9990000  0  7 24  2  9  7 27 26  4               -0.000294296
  -2218599.749 8  -1702210.11345  24757818.057    24757819.9654   24757827.9524
      3619.375        2820.292
   1474401.945 9   1204844.23748  21509076.785    21509077.6704   21509082.1774
     -1102.513        -859.101
 -10850293.217 9  -8437331.07847  22840196.644    22840197.9914   22840203.0054
      2902.853        2261.963
 -10889594.296 9  -8470882.82948  20296883.763    20296884.7874   20296889.3894
      -899.810        -701.151
  15625956.374 9  12177575.28846  23132706.833    23132707.7254   23132713.8384
     -3632.863       -2830.802
  -3649538.328 9  -2831107.44447  23185355.055    23185356.6134   23185361.5864
     -1896.273       -1477.615
 -13654803.424 9  -9643315.38047  22598966.977    22598969.2534   22598973.9714
      3249.194        2531.839
 97  5  7 17 52 59.9990000  0  7 24  2  9  7 27 26  4               -0.000294556
  -2327213.263 8  -1786844.01545  24737149.039    24737151.5264   24737159.3984
      3621.200        2821.714
   1507582.164 9   1230698.93848  21515390.596    21515391.6974   21515396.2194
     -1109.818        -864.793
 -10937239.768 9  -8505081.62447  22823650.776    22823652.6104   22823657.6114
      2893.364        2254.569
 -10862416.870 9  -8449705.62048  20302055.527    20302056.4824   20302061.1044
      -912.380        -710.945
  15735052.965 9  12262585.53447  23153467.314    23153468.3154   23153474.3574
     -3640.532       -2836.778
  -3592483.792 9  -2786649.39247  23196212.250    23196213.7144   23196218.7744
     -1907.545       -1486.399
 -13752178.816 9  -9719192.28547  22580436.891    22580439.3024   22580444.0194
      3242.168        2526.365
 97  5  7 17 53 29.9990000  0  7 24  2  9  7 27 26  4               -0.000294817
  -2435890.475 8  -1871527.45745  24716469.200    24716470.9194   24716478.8834
      3623.242        2823.305
   1540978.237 9   1256721.84148  21521745.742    21521746.8244   21521751.3164
     -1117.014        -870.401
 -11023908.664 9  -8572615.79847  22807158.192    22807159.9944   22807165.0794
      2884.184        2247.416
 -10834857.877 9  -8428231.08548  20307299.727    20307300.7414   20307305.3234
      -925.300        -721.013
  15844368.731 9  12347766.57346  23174269.300    23174270.4834   23174276.5144
     -3647.623       -2842.304
  -3535100.922 9  -2741935.49347  23207131.675    23207133.2864   23207138.5014
     -1918.288       -1494.770
 -13849342.144 9  -9794903.93947  22561947.337    22561949.7894   22561954.4824
      3234.835        2520.651
 97  5  7 17 53 59.9990000  0  7 24  2  9  7 27 26  4               -0.000295089
  -2544605.385 8  -1956240.34945  24695781.291    24695783.2564   24695791.0714
      3624.549        2824.324
   1574594.442 9   1282916.27248  21528142.788    21528143.7904   21528148.3414
     -1123.958        -875.811
 -11110294.052 9  -8639929.06647  22790720.120    22790721.3714   22790726.4674
      2875.053        2240.301
 -10806900.636 9  -8406446.22848  20312619.728    20312620.7814   20312625.3704
      -938.421        -731.237
  15953903.170 9  12433117.99146  23195113.190    23195114.2664   23195120.3374
     -3654.515       -2847.674
  -3477394.379 9  -2696969.39147  23218113.186    23218114.5334   23218119.6744
     -1928.509       -1502.734
 -13946261.868 9  -9870425.77647  22543504.608    22543506.6164   22543511.3164
      3226.402        2514.079
 97  5  7 17 54 29.9990000  0  7 24  2  9  7 27 26  4               -0.000295396
  -2653358.953 8  -2040983.30945  24675086.897    24675088.1174   24675095.6584
      3625.633        2825.169
   1608420.905 9   1309274.53248  21534579.715    21534580.7314   21534585.3894
     -1131.248        -881.492
 -11196414.268 9  -8707035.71347  22774332.221    22774333.2114   22774338.3074
      2866.430        2233.582
 -10778552.134 9  -8384356.49248  20318014.223    20318015.2904   20318019.9184
      -951.470        -741.405
  16063638.994 9  12518626.36446  23215995.643    23215996.3634   23216002.3524
     -3661.360       -2853.008
  -3419391.240 9  -2651772.16447  23229151.090    23229152.1664   23229157.2944
     -1938.433       -1510.467
 -14042920.162 9  -9945743.89047  22525110.958    22525113.1184   22525117.9064
      3217.487        2507.133
 97  5  7 17 54 59.9990000  0  7 24  2  9  7 27 26  4               -0.000295737
  -2762156.447 8  -2125760.50445  24654383.187    24654384.5864   24654392.1374
      3627.523        2826.641
   1642471.225 9   1335807.22848  21541059.356    21541060.3554   21541065.0154
     -1138.865        -887.427
 -11282284.901 9  -8773947.87747  22757991.717    22757992.5834   22757997.6154
      2858.312        2227.256
 -10749820.832 9  -8361968.46948  20323481.698    20323482.7414   20323487.3414
      -963.781        -750.998
  16173576.826 9  12604292.11046  23236915.801    23236916.8844   23236923.0234
     -3667.941       -2858.136
  -3361085.725 9  -2606339.34247  23240246.221    23240247.3594   23240252.6694
     -1948.644       -1518.424
 -14139313.454 9 -10020855.51647  22506768.236    22506770.0754   22506774.8884
      3208.784        2500.351
 97  5  7 17 55 29.9990000  0  7 24  2  9  7 27 26  4               -0.000296103
  -2871027.646 8  -2210595.10945  24633665.314    24633667.1734   24633674.7344
      3630.136        2828.677
   1676743.350 9   1362512.75948  21547581.165    21547582.1264   21547586.8294
     -1145.902        -892.911
 -11367922.122 9  -8840678.15547  22741695.351    22741696.3324   22741701.3554
      2850.760        2221.371
 -10720738.443 9  -8339306.87748  20329016.040    20329016.9984   20329021.6004
      -975.024        -759.759
  16283704.966 9  12690106.16346  23257872.460    23257873.6044   23257879.7074
     -3674.124       -2862.954
  -3302481.805 9  -2560673.98647  23251398.259    23251399.4124   23251404.7654
     -1958.308       -1525.954
 -14235452.037 9 -10095768.67347  22488473.741    22488475.5134   22488480.3814
      3200.519        2493.911
 97  5  7 17 55 59.9990000  0  7 24  2  9  7 27 26  4               -0.000296476
  -2979956.557 8  -2295474.70945  24612936.388    24612938.7494   24612946.1444
      3631.997        2830.128
   1711236.948 9   1389390.87248  21554144.749    21554145.9814   21554150.7244
     -1153.373        -898.732
 -11453315.311 9  -8907218.29247  22725445.654    22725446.5294   22725451.5434
      2842.390        2214.849
 -10691312.729 9  -8316377.75348  20334615.691    20334616.5424   20334621.1194
      -986.374        -768.603
  16394046.330 9  12776086.37346  23278869.878    23278870.8444   23278876.9494
     -3681.587       -2868.769
  -3243569.225 9  -2514768.10047  23262609.235    23262610.0524   23262615.4454
     -1968.937       -1534.237
 -14331331.344 9 -10170479.78247  22470228.489    22470230.2464   22470235.2134
      3191.876        2487.176
 97  5  7 17 56 29.9990000  0  7 24  2  9  7 27 26  4               -0.000296842
  -3088952.578 9  -2380406.54246  24592195.887    24592197.3944   24592205.0034
      3634.288        2831.913
   1745953.056 9   1416442.36648  21560750.858    21560752.1484   21560756.9694
     -1161.050        -904.714
 -11538462.723 9  -8973566.90247  22709242.328    22709243.4324   22709248.4794
      2834.010        2208.319
 -10661555.659 9  -8293190.43448  20340278.046    20340279.0924   20340283.7064
      -997.519        -777.288
  16504606.486 9  12862237.07246  23299908.773    23299909.6834   23299915.7814
     -3689.060       -2874.592
  -3184336.229 9  -2468612.55947  23273880.647    23273881.6644   23273887.0994
     -1979.898       -1542.778
 -14426968.648 9 -10245002.32847  22452029.357    22452031.0944   22452036.0454
      3183.921        2480.977
 97  5  7 17 56 59.9990000  0  7 24  2  9  7 27 26  4               -0.000297193
  -3198026.837 8  -2465399.34645  24571440.482    24571441.3304   24571448.8484
      3637.496        2834.412
   1780895.498 9   1443670.23048  21567400.042    21567401.3834   21567406.2684
     -1167.924        -910.071
 -11623345.499 9  -9039709.30347  22693089.768    22693090.7664   22693095.7704
      2825.131        2201.401
 -10631465.308 9  -8269743.41648  20346003.938    20346005.0944   20346009.7514
     -1008.105        -785.536
  16615383.876 9  12948557.03746  23320988.267    23320989.8614   23320996.1834
     -3695.628       -2879.710
  -3124789.053 9  -2422212.19747  23285212.376    23285213.0744   23285218.6134
     -1989.407       -1550.187
 -14522372.226 9 -10319342.75347  22433874.769    22433876.4014   22433881.2554
      3176.648        2475.310
 97  5  7 17 57 29.9990000  0  7 24  2  9  7 27 26  4               -0.000297515
  -3307161.341 8  -2550439.08745  24550672.572    24550673.7104   24550681.2604
      3637.932        2834.752
   1816057.540 9   1471069.21048  21574091.247    21574092.4834   21574097.3934
     -1176.182        -916.505
 -11707930.823 9  -9105619.92747  22676993.494    22676994.7294   22676999.6444
      2814.037        2192.756
 -10601041.350 9  -8246036.43948  20351793.674    20351794.6114   20351799.2454
     -1020.155        -794.926
  16726376.849 9  13035045.00246  23342109.037    23342111.1694   23342117.5224
     -3703.825       -2886.097
  -3064946.965 9  -2375582.03347  23296599.857    23296600.6714   23296606.2294
     -2000.081       -1558.505
 -14617532.756 9 -10393493.79147  22415766.335    22415767.9504   22415772.7204
      3167.405        2468.108
 97  5  7 17 57 59.9990000  0  7 24  2  9  7 27 26  4               -0.000297790
  -3416328.717 8  -2635504.48445  24529898.001    24529899.8094   24529907.3084
      3639.803        2836.210
   1851451.218 9   1498648.67948  21580826.589    21580827.7194   21580832.6774
     -1183.508        -922.214
 -11792204.023 9  -9171287.34847  22660956.795    22660958.1464   22660962.9644
      2804.226        2185.111
 -10570280.638 9  -8222067.06548  20357647.185    20357648.1724   20357652.8104
     -1030.759        -803.189
  16837588.962 9  13121703.70546  23363271.744    23363274.1694   23363280.5504
     -3710.240       -2891.096
  -3004806.394 9  -2328719.29447  23308044.337    23308045.0964   23308050.5204
     -2009.394       -1565.762
 -14712436.571 9 -10467444.79147  22397706.791    22397708.3534   22397713.0744
      3159.322        2461.809
 97  5  7 17 58 29.9990000  0  7 24  2  9  7 27 26  4               -0.000298045
  -3525548.468 8  -2720610.61545  24509113.134    24509115.7214   24509123.3334
      3641.392        2837.448
   1887076.546 9   1526408.65748  21587605.844    21587607.0514   21587612.0324
     -1191.333        -928.311
 -11876185.396 9  -9236727.35647  22644975.663    22644977.0584   22644981.8094
      2794.580        2177.595
 -10539186.838 9  -8197838.14048  20363564.157    20363565.1254   20363569.7564
     -1042.131        -812.050
  16948991.267 9  13208510.62146  23384471.024    23384473.3974   23384479.7464
     -3716.412       -2895.905
  -2944383.650 9  -2281636.66647  23319542.520    23319543.1834   23319548.5114
     -2018.684       -1573.001
 -14807086.242 9 -10541197.76647  22379695.343    22379697.0854   22379701.8384
      3150.651        2455.053
 97  5  7 17 58 59.9990000  0  7 24  2  9  7 27 26  4               -0.000298284
  -3634797.757 8  -2805739.81445  24488323.668    24488326.3254   24488333.9194
      3641.830        2837.790
   1922941.589 9   1554355.43348  21594430.865    21594432.0354   21594436.9424
     -1199.275        -934.500
 -11959865.208 9  -9301932.38047  22629052.216    22629053.3304   22629058.0834
      2784.456        2169.706
 -10507743.695 9  -8173336.99848  20369547.558    20369548.5484   20369553.1354
     -1053.772        -821.121
  17060581.158 9  13295463.68646  23405706.216    23405708.3234   23405714.6394
     -3722.730       -2900.829
  -2883672.678 9  -2234329.43847  23331094.916    23331096.1314   23331101.4704
     -2028.610       -1580.735
 -14901461.306 9 -10614736.75047  22361736.595    22361738.1514   22361742.9284
      3141.233        2447.714
 97  5  7 17 59 29.9990000  0  7 24  2  9  7 27 26  4               -0.000298520
  -3744050.951 8  -2890872.02945  24467534.975    24467536.0154   24467543.9374
      3641.774        2837.746
   1959036.671 9   1582481.45148  21601299.845    21601300.7434   21601305.5794
     -1206.988        -940.510
 -12043254.414 9  -9366910.95947  22613183.186    22613184.7804   22613189.6384
      2775.033        2162.363
 -10475958.485 9  -8148569.31148  20375596.272    20375597.1224   20375601.6184
     -1065.238        -830.056
  17172362.510 9  13382565.95246  23426978.072    23426979.7244   23426986.0504
     -3729.313       -2905.958
  -2822655.535 9  -2186783.63947  23342705.850    23342707.3864   23342712.7154
     -2039.130       -1588.932
 -14995552.582 9 -10688054.60747  22343831.107    22343833.1194   22343838.0094
      3131.645        2440.243
 97  5  7 17 59 59.9990000  0  7 24  2  9  7 27 26  4               -0.000298770
  -3853319.851 8  -2976016.52245  24446741.738    24446742.6804   24446750.6784
      3642.502        2838.313
   1995350.052 9   1610777.57248  21608210.110    21608210.9334   21608215.7994
     -1214.071        -946.029
 -12126372.518 9  -9431678.28647  22597366.455    22597367.8394   22597372.8134
      2765.928        2155.269
 -10443830.274 9  -8123534.34948  20381710.093    20381710.9734   20381715.3554
     -1076.843        -839.098
  17284334.491 9  13469816.75246  23448286.651    23448287.4584   23448293.7574
     -3735.704       -2910.938
  -2761333.211 9  -2139000.05547  23354374.979    23354376.6184   23354382.0214
     -2049.159       -1596.747
 -15089365.083 9 -10761155.23147  22325979.359    22325981.1754   22325986.1694
      3122.294        2432.956
 97  5  7 18  0 29.9990000  0  7 24  2  9  7 27 26  4               -0.000299051
  -3962610.680 8  -3061178.07345  24425944.206    24425945.0134   24425953.3724
      3643.549        2839.129
   2031864.508 9   1639230.37048  21615158.500    21615159.4224   21615164.2674
     -1220.250        -950.844
 -12209222.419 9  -9496236.62547  22581600.721    22581602.0344   22581607.0974
      2757.241        2148.499
 -10411365.626 9  -8098237.22548  20387888.005    20387888.7654   20387893.1644
     -1087.401        -847.325
  17396485.481 9  13557207.03146  23469628.744    23469629.3494   23469635.6374
     -3741.174       -2915.200
  -2699719.623 9  -2090989.49147  23366099.642    23366101.2774   23366106.7444
     -2058.430       -1603.971
 -15182906.577 9 -10834044.68147  22308178.936    22308180.7454   22308185.7924
      3113.770        2426.314
 97  5  7 18  0 59.9990000  0  7 24  2  9  7 27 26  4               -0.000299324
  -4071900.893 8  -3146339.18045  24405146.685    24405147.5054   24405156.1144
      3643.266        2838.909
   2068600.074 9   1667855.47248  21622148.856    21622149.9384   21622154.8294
     -1227.916        -956.818
 -12291769.465 9  -9560558.97147  22565892.324    22565893.8444   22565898.9704
      2746.772        2140.342
 -10378562.073 9  -8072676.02448  20394130.212    20394131.0004   20394135.5154
     -1098.699        -856.129
  17508835.406 9  13644752.34246  23491008.532    23491008.9684   23491015.2354
     -3747.992       -2920.513
  -2637793.357 9  -2042735.29047  23377884.218    23377885.4744   23377890.9574
     -2069.043       -1612.241
 -15276159.480 9 -10906709.25947  22290433.271    22290435.2854   22290440.3664
      3103.934        2418.650
 97  5  7 18  1 29.9990000  0  7 24  2  9  7 27 26  4               -0.000299595
  -4181224.738 8  -3231526.50545  24384342.562    24384343.5534   24384352.3284
      3645.019        2840.274
   2105536.317 9   1696636.94548  21629177.526    21629178.6604   21629183.5884
     -1234.667        -962.078
 -12374028.872 9  -9624657.18748  22550238.660    22550240.3904   22550245.5164
      2737.125        2132.825
 -10345445.737 9  -8046871.08748  20400431.760    20400432.7574   20400437.3964
     -1109.163        -864.283
  17621364.393 9  13732437.15046  23512422.187    23512422.7214   23512428.9074
     -3753.911       -2925.125
  -2575583.617 9  -1994260.21747  23389722.158    23389723.5884   23389729.1664
     -2078.093       -1619.293
 -15369148.821 9 -10979168.46647  22272738.005    22272740.0244   22272744.9874
      3095.408        2412.006
 97  5  7 18  1 59.9990000  0  7 24  2  9  7 27 26  4               -0.000299862
  -4290597.425 8  -3316751.86345  24363528.227    24363530.4474   24363539.3474
      3646.669        2841.560
   2142692.879 9   1725590.08748  21636248.440    21636249.3444   21636254.2764
     -1241.960        -967.761
 -12455983.684 9  -9688518.06147  22534642.929    22534644.9204   22534650.0434
      2726.913        2124.867
 -10312000.901 9  -8020810.18248  20406796.155    20406797.0674   20406801.8094
     -1119.975        -872.708
  17734069.807 9  13820259.47946  23533869.431    23533869.8334   23533876.1334
     -3759.348       -2929.362
  -2513097.811 9  -1945569.99847  23401613.145    23401614.3644   23401619.7994
     -2087.215       -1626.401
 -15461876.602 9 -11051423.86147  22255092.631    22255094.5694   22255099.3834
      3086.854        2405.341
 97  5  7 18  2 29.9990000  0  7 24  2  9  7 27 26  4               -0.000300118
  -4399999.047 8  -3401999.79245  24342710.585    24342711.8494   24342720.6604
      3647.224        2841.993
   2180078.251 9   1754721.53148  21643362.577    21643363.6174   21643368.5544
     -1249.865        -973.921
 -12537621.928 9  -9752132.25448  22519107.766    22519109.6874   22519114.7574
      2716.275        2116.578
 -10278221.477 9  -7994488.56048  20413224.267    20413225.1254   20413229.8474
     -1131.460        -881.657
  17846948.238 9  13908216.57546  23555349.292    23555349.8894   23555356.4714
     -3765.444       -2934.112
  -2450320.550 9  -1896652.68447  23413559.544    23413560.5974   23413565.9654
     -2097.319       -1634.274
 -15554333.614 9 -11123468.26647  22237498.738    22237500.5894   22237505.2874
      3077.430        2397.997
 97  5  7 18  2 59.9990000  0  7 24  2  9  7 27 26  4               -0.000300377
  -4509426.101 8  -3487267.48346  24321887.646    24321888.5534   24321897.3964
      3647.411        2842.138
   2217685.996 9   1784026.24648  21650519.269    21650520.2474   21650525.1214
     -1257.563        -979.919
 -12618957.669 9  -9815510.73548  22503630.683    22503632.0534   22503637.0214
      2705.844        2108.450
 -10244106.158 9  -7967905.20048  20419716.390    20419717.1424   20419721.7584
     -1143.227        -890.826
  17959999.777 9  13996308.60146  23576861.858    23576862.8134   23576869.4404
     -3771.627       -2938.930
  -2387257.061 9  -1847512.33047  23425560.138    23425561.2194   23425566.6234
     -2107.035       -1641.845
 -15646517.152 9 -11195299.57347  22219956.562    22219958.6064   22219963.2134
      3067.767        2390.468
 97  5  7 18  3 29.9990000  0  7 24  2  9  7 27 26  4               -0.000300655
  -4618870.855 8  -3572549.01346  24301060.757    24301061.8254   24301070.7164
      3648.578        2843.048
   2255505.036 9   1813495.61348  21657715.938    21657716.9524   21657721.9014
     -1264.062        -984.983
 -12700002.613 9  -9878662.61448  22488208.600    22488209.7264   22488214.6314
      2696.946        2101.516
 -10209651.964 9  -7941057.77548  20426272.747    20426273.5844   20426278.1394
     -1153.825        -899.084
  18073226.168 9  14084536.82346  23598408.463    23598409.0144   23598415.8484
     -3777.011       -2943.125
  -2323927.355 9  -1798164.52547  23437611.245    23437612.4454   23437617.9384
     -2115.122       -1648.147
 -15738426.201 9 -11266916.98847  22202467.053    22202468.8834   22202473.4104
      3059.093        2383.709
 97  5  7 18  3 59.9990000  0  7 24  2  9  7 27 26  4               -0.000300949
  -4728317.434 8  -3657831.94446  24280233.819    24280234.6894   24280243.7084
      3647.872        2842.498
   2293539.625 9   1843132.93948  21664953.828    21664954.6744   21664959.6694
     -1271.493        -990.774
 -12780761.584 9  -9941591.65948  22472840.688    22472841.8164   22472846.6394
      2687.039        2093.797
 -10174870.343 9  -7913955.21448  20432891.354    20432892.2934   20432896.8234
     -1164.760        -907.605
  18186627.275 9  14172901.23746  23619988.538    23619988.6504   23619995.4084
     -3782.976       -2947.774
  -2260331.947 9  -1748609.69547  23449712.795    23449714.2514   23449719.9664
     -2124.565       -1655.505
 -15830038.361 9 -11338303.06447  22185033.795    22185035.5814   22185040.2024
      3048.439        2375.407
 97  5  7 18  4 29.9990000  0  7 24  2  9  7 27 26  4               -0.000301263
  -4837768.861 9  -3743118.65246  24259406.115    24259406.7934   24259415.6864
      3648.229        2842.776
   2331781.752 9   1872931.97848  21672230.951    21672231.8954   21672236.9024
     -1278.674        -996.369
 -12861248.707 9 -10004308.87348  22457524.866    22457525.6674   22457530.4044
      2678.074        2086.811
 -10139786.977 9  -7886617.53048  20439567.575    20439568.4584   20439573.0214
     -1174.707        -915.356
  18300190.740 8  14261392.12846  23641598.800    23641599.2574   23641605.8614
     -3788.436       -2952.028
  -2196479.547 9  -1698854.61547  23461863.587    23461865.0054   23461870.7574
     -2132.776       -1661.903
 -15921349.030 9 -11409454.20747  22167657.693    22167659.6364   22167664.3734
      3038.367        2367.559
 97  5  7 18  4 59.9990000  0  7 24  2  9  7 27 26  4               -0.000301573
  -4947217.670 9  -3828403.33546  24238578.224    24238579.2524   24238588.1014
      3647.591        2842.279
   2370260.129 9   1902915.11748  21679553.079    21679554.0554   21679559.0594
     -1287.136       -1002.963
 -12941440.924 9 -10066796.29648  22442265.009    22442265.6554   22442270.3344
      2667.329        2078.438
 -10104391.729 9  -7859036.81848  20446303.089    20446303.9964   20446308.5814
     -1185.602        -923.846
  18413928.449 8  14350018.80546  23663242.268    23663242.7734   23663249.3464
     -3794.654       -2956.873
  -2132367.777 9  -1648897.42147  23474063.638    23474065.0744   23474070.8014
     -2141.794       -1668.930
 -16012345.808 9 -11480360.77247  22150341.743    22150343.4674   22150348.2294
      3027.492        2359.085
 97  5  7 18  5 29.9990000  0  7 24  2  9  7 27 26  4               -0.000301858
  -5056654.936 8  -3913679.03446  24217753.144    24217753.9904   24217762.6774
      3648.339        2842.861
   2408992.088 9   1933095.83948  21686923.730    21686924.4744   21686929.5204
     -1294.786       -1008.924
 -13021302.369 9 -10129025.97148  22427067.889    22427068.4384   22427073.1904
      2657.040        2070.421
 -10068673.189 9  -7831204.19948  20453100.212    20453101.0534   20453105.6494
     -1195.444        -931.515
  18527844.595 9  14438784.50246  23684919.128    23684920.2264   23684926.9334
     -3799.432       -2960.596
  -2067991.625 9  -1598734.22247  23486314.153    23486315.5694   23486321.1384
     -2149.778       -1675.152
 -16103016.735 9 -11551013.42047  22133087.435    22133089.3264   22133094.0984
      3017.508        2351.305
 97  5  7 18  5 59.9990000  0  7 24  2  9  7 27 26  4               -0.000302133
  -5166109.429 8  -3998968.14646  24196924.416    24196925.4904   24196934.0674
      3648.555        2843.030
   2447953.544 9   1963455.39848  21694337.586    21694338.6504   21694343.6444
     -1302.661       -1015.061
 -13100843.448 9 -10191006.01448  22411931.705    22411932.1764   22411936.9904
      2645.868        2061.715
 -10032655.542 9  -7803138.51248  20459954.126    20459955.0194   20459959.6094
     -1205.703        -939.509
  18641897.446 9  14527656.76146  23706623.313    23706623.8384   23706630.5584
     -3804.060       -2964.203
  -2003367.850 9  -1548378.06247  23498611.533    23498613.0564   23498618.5884
     -2158.267       -1681.766
 -16193386.906 9 -11621431.71147  22115890.316    22115892.4004   22115897.2114
      3007.383        2343.415
 97  5  7 18  6 29.9990000  0  7 24  2  9  7 27 26  4               -0.000302392
  -5275575.104 8  -4084265.98246  24176092.740    24176094.7844   24176103.2804
      3648.887        2843.289
   2487153.203 9   1994000.57148  21701797.140    21701798.1264   21701803.1224
     -1310.349       -1021.051
 -13180050.288 9 -10252725.61448  22396858.736    22396859.5484   22396864.3584
      2634.759        2053.059
  -9996324.788 9  -7774828.83848  20466867.620    20466868.5104   20466873.1244
     -1216.149        -947.649
  18756098.485 9  14616644.46646  23728354.861    23728355.7334   23728362.2104
     -3809.211       -2968.216
  -1938495.597 9  -1497828.29747  23510956.133    23510957.8484   23510963.3804
     -2166.498       -1688.180
 -16283458.364 9 -11691617.23547  22098749.929    22098752.3214   22098757.2104
      2997.397        2335.634
 97  5  7 18  6 59.9990000  0  7 24  2  9  7 27 26  4               -0.000302646
  -5385037.175 8  -4169560.98246  24155262.288    24155264.7124   24155273.3864
      3648.694        2843.138
   2526570.087 9   2024715.00848  21709297.792    21709298.8724   21709303.9764
     -1317.170       -1026.366
 -13258923.014 9 -10314184.86248  22381849.733    22381850.5544   22381855.3504
      2623.829        2044.542
  -9959684.741 9  -7746278.15848  20473839.932    20473840.8784   20473845.4794
     -1226.206        -955.485
  18870450.788 9  14705750.05546  23750115.183    23750116.4254   23750122.7724
     -3813.972       -2971.926
  -1873372.833 9  -1447083.32947  23523348.415    23523350.3094   23523355.8524
     -2174.698       -1694.570
 -16373220.705 9 -11761561.88847  22081668.598    22081671.0734   22081676.0824
      2986.930        2327.478
 97  5  7 18  7 29.9990000  0  7 24  2  9  7 27 26  4               -0.000302910
  -5494497.129 8  -4254854.37746  24134433.043    24134435.1544   24134443.7504
      3648.334        2842.858
   2566193.944 9   2055590.72148  21716837.907    21716839.0124   21716844.2114
     -1324.514       -1032.089
 -13337480.251 9 -10375398.28148  22366900.757    22366901.6524   22366906.3014
      2613.398        2036.414
  -9922750.352 9  -7717498.12848  20480868.332    20480869.2614   20480873.8814
     -1236.146        -963.231
  18984942.087 9  14794963.89446  23771903.484    23771903.5574   23771910.1144
     -3818.901       -2975.767
  -1808007.211 9  -1396149.11947  23535787.447    23535788.9844   23535794.4344
     -2183.316       -1701.285
 -16462657.287 9 -11831252.70447  22064649.625    22064651.7824   22064656.8664
      2975.519        2318.586
 97  5  7 18  7 59.9990000  0  7 24  2  9  7 27 26  4               -0.000303188
  -5603937.330 9  -4340132.33946  24113607.255    24113609.2844   24113617.8574
      3647.614        2842.297
   2606040.993 9   2086640.35748  21724420.765    21724421.6334   21724426.9354
     -1331.918       -1037.858
 -13415731.845 9 -10436373.52348  22352010.039    22352010.9354   22352015.4224
      2603.500        2028.701
  -9885523.113 9  -7688489.89648  20487952.319    20487953.3594   20487958.0084
     -1245.503        -970.522
  19099587.503 9  14884297.88946  23793718.614    23793720.0704   23793726.5414
     -3824.011       -2979.749
  -1742372.714 9  -1345005.39247  23548276.948    23548278.8604   23548284.2994
     -2192.016       -1708.064
 -16551751.257 9 -11900676.54447  22047695.884    22047697.7914   22047702.8094
      2964.245        2309.801
 97  5  7 18  8 29.9990000  0  7 24  2  9  7 27 26  4               -0.000303472
  -5713351.324 8  -4425389.90446  24092786.381    24092788.5164   24092797.0984
      3646.643        2841.540
   2646113.540 9   2117865.70148  21732046.123    21732047.2364   21732052.5464
     -1339.302       -1043.612
 -13493687.292 9 -10497118.01248  22337175.772    22337176.5464   22337180.9604
      2593.622        2021.004
  -9848013.229 9  -7659261.42948  20495090.160    20495091.2334   20495095.8904
     -1254.991        -977.915
  19214389.095 9  14973753.54546  23815565.115    23815566.1404   23815572.9024
     -3829.096       -2983.711
  -1676478.985 9  -1293659.68747  23560816.337    23560818.0054   23560823.6064
     -2200.734       -1714.858
 -16640503.720 9 -11969834.29147  22030807.199    22030808.8334   22030813.7624
      2952.845        2300.918
 97  5  7 18  8 59.9990000  0  7 24  2  9  7 27 26  4               -0.000303765
  -5822737.751 9  -4510626.02046  24071970.846    24071972.8964   24071981.3384
      3645.628        2840.749
   2686411.305 9   2149266.54048  21739714.690    21739715.7214   21739720.9744
     -1347.506       -1050.005
 -13571338.860 9 -10557625.70448  22322398.566    22322399.9024   22322404.3154
      2582.917        2012.663
  -9810215.062 9  -7629808.32148  20502282.989    20502284.0144   20502288.6384
     -1265.096        -985.789
  19329332.858 9  15063320.00746  23837439.052    23837439.4034   23837446.1414
     -3833.920       -2987.470
  -1610326.775 9  -1242112.54047  23573404.802    23573406.3784   23573411.9224
     -2209.342       -1721.565
 -16728921.066 9 -12038730.89647  22013981.983    22013983.6644   22013988.5204
      2941.597        2292.153
 97  5  7 18  9 29.9990000  0  7 24  2  9  7 27 26  4               -0.000304049
  -5932106.537 9  -4595848.37146  24051159.443    24051160.7804   24051169.0484
      3645.912        2840.970
   2726955.499 9   2180859.40148  21747430.094    21747431.1254   21747436.2564
     -1355.054       -1055.886
 -13648669.987 9 -10617883.71248  22307682.741    22307684.2134   22307688.6924
      2572.687        2004.691
  -9772119.711 9  -7600123.63948  20509532.539    20509533.3254   20509537.9184
     -1274.298        -992.959
  19444418.227 9  15152996.80246  23859338.503    23859339.5624   23859346.2934
     -3838.273       -2990.862
  -1543936.214 9  -1190379.68147  23586038.532    23586040.1674   23586045.6094
     -2216.426       -1727.085
 -16817022.528 9 -12107381.35148  21997216.851    21997218.6204   21997223.3704
      2932.313        2284.919
 97  5  7 18  9 59.9990000  0  7 24  2  9  7 27 26  4               -0.000304287
  -6041462.062 8  -4681060.39146  24030349.633    24030350.9984   24030359.3074
      3645.235        2840.443
   2767752.251 9   2212649.06448  21755193.466    21755194.5314   21755199.5964
     -1363.710       -1062.631
 -13725653.281 9 -10677870.68048  22293033.597    22293034.7354   22293039.2684
      2560.344        1995.073
  -9733719.558 9  -7570201.44948  20516839.588    20516840.5884   20516845.1874
     -1284.853       -1001.184
  19559666.065 9  15242800.14946  23881269.480    23881270.5614   23881277.2964
     -3844.005       -2995.329
  -1477310.925 9  -1138463.90447  23598716.679    23598718.4624   23598723.9344
     -2224.180       -1733.127
 -16904825.658 9 -12175799.34848  21980508.629    21980510.2434   21980514.9374
      2922.075        2276.941
 97  5  7 18 10 29.9990000  0  7 24  2  9  7 27 26  4               -0.000304499
  -6150825.902 8  -4766278.87846  24009538.534    24009539.4804   24009548.0384
      3645.662        2840.776
   2808779.726 9   2244618.51648  21763000.625    21763001.8234   21763006.8444
     -1371.127       -1068.411
 -13802281.335 9 -10737580.84148  22278451.797    22278452.8154   22278457.4074
      2548.410        1985.774
  -9695015.414 9  -7540042.37948  20524204.683    20524205.7034   20524210.3274
     -1295.098       -1009.167
  19675064.826 8  15332721.17846  23903228.933    23903230.1674   23903236.9714
     -3848.912       -2999.152
  -1410478.387 9  -1086386.63147  23611434.654    23611436.1894   23611441.8864
     -2231.049       -1738.480
 -16992337.711 9 -12243990.53348  21963855.446    21963857.2454   21963861.8864
      2912.256        2269.290
 97  5  7 18 10 59.9990000  0  7 24  2  9  7 27 26  4               -0.000304681
  -6260183.555 9  -4851492.55146  23988728.872    23988729.3734   23988737.7714
      3645.057        2840.304
   2850050.763 9   2276777.74348  21770854.474    21770855.4504   21770860.4754
     -1379.690       -1075.083
 -13878532.604 9 -10796997.41148  22263941.568    22263942.7444   22263947.2104
      2535.493        1975.709
  -9655986.480 9  -7509630.23648  20531631.762    20531632.7064   20531637.2624
     -1306.301       -1017.897
  19790624.620 8  15422767.60646  23925218.296    23925220.3634   23925227.3134
     -3854.554       -3003.549
  -1343430.529 9  -1034141.58847  23624193.546    23624195.0274   23624200.6234
     -2238.300       -1744.130
 -17079535.385 9 -12311936.74548  21947262.221    21947264.1514   21947268.6854
      2901.220        2260.691
 97  5  7 18 11 29.9990000  0  7 24  2  9  7 27 26  4               -0.000304842
  -6369532.247 9  -4936699.25946  23967920.364    23967921.0544   23967929.1724
      3644.951        2840.222
   2891554.686 9   2309118.43848  21778752.458    21778753.4234   21778758.4414
     -1386.850       -1080.662
 -13954416.512 9 -10856127.71448  22249501.370    22249502.5084   22249506.8834
      2523.914        1966.686
  -9616644.599 9  -7478974.22548  20539118.244    20539119.2264   20539123.7394
     -1316.060       -1025.501
  19906335.657 8  15512931.93446  23947237.163    23947239.5774   23947246.4364
     -3859.136       -3007.119
  -1276181.089 9   -981739.48347  23636990.869    23636992.2024   23636997.8314
     -2244.740       -1749.148
 -17166411.819 9 -12379632.63548  21930729.900    21930732.0524   21930736.6084
      2890.884        2252.637
 97  5  7 18 11 59.9990000  0  7 24  2  9  7 27 26  4               -0.000304991
  -6478840.850 9  -5021874.73746  23947119.463    23947120.4104   23947128.3154
      3643.335        2838.962
   2933303.790 9   2341650.18948  21786697.083    21786698.1044   21786702.9934
     -1394.964       -1086.985
 -14029925.159 9 -10914965.61648  22235132.502    22235133.7154   22235138.0004
      2511.413        1956.945
  -9576972.531 9  -7448060.93548  20546667.579    20546668.5494   20546673.0424
     -1327.353       -1034.301
  20022204.839 8  15603219.43246  23969287.404    23969288.9274   23969295.7824
     -3863.888       -3010.822
  -1208698.391 9   -929155.59947  23649832.241    23649833.8634   23649839.3894
     -2252.691       -1755.344
 -17252930.427 9 -12447049.68948  21914265.782    21914267.9874   21914272.7034
      2878.244        2242.787
 97  5  7 18 12 29.9990000  0  7 24  2  9  7 27 26  4               -0.000305174
  -6588102.958 9  -5107013.96946  23926328.795    23926328.5904   23926336.2774
      3641.202        2837.300
   2975279.962 9   2374358.87748  21794685.247    21794685.9574   21794690.7744
     -1402.911       -1093.177
 -14105077.066 9 -10973525.52748  22220831.820    22220832.7414   22220837.0704
      2499.357        1947.551
  -9536973.829 9  -7416893.11848  20554279.175    20554280.0784   20554284.5984
     -1338.412       -1042.918
  20138188.635 8  15693596.34246  23991358.499    23991360.1024   23991366.4524
     -3867.703       -3013.794
  -1140995.400 9   -876400.05747  23662715.586    23662717.3864   23662722.8794
     -2260.084       -1761.104
 -17339079.599 9 -12514178.88648  21897872.281    21897874.3154   21897879.0094
      2865.686        2233.002
 97  5  7 18 12 59.9990000  0  7 24  2  9  7 27 26  4               -0.000305387
  -6697304.035 9  -5192105.64046  23905547.906    23905548.2354   23905555.6934
      3638.930        2835.530
   3017492.089 9   2407251.43348  21802717.887    21802718.5874   21802723.4954
     -1411.086       -1099.548
 -14179875.995 9 -11031810.39648  22206598.211    22206598.9324   22206603.2434
      2487.393        1938.228
  -9496657.833 9  -7385478.06148  20561951.173    20561951.9834   20561956.5224
     -1349.019       -1051.184
  20254270.727 8  15784049.78046  24013448.398    24013449.8894   24013456.3194
     -3871.042       -3016.396
  -1073083.895 9   -823482.08147  23675638.935    23675640.5544   23675646.2734
     -2267.251       -1766.689
 -17424862.407 9 -12581022.60248  21881548.504    21881550.3194   21881555.0024
      2853.203        2223.275
 97  5  7 18 13 29.9990000  0  7 24  2  9  7 27 26  4               -0.000305621
  -6806453.443 9  -5277157.06646  23884776.134    23884777.7464   23884785.1204
      3637.204        2834.185
   3059932.555 9   2440321.90648  21810793.628    21810794.6104   21810799.6384
     -1418.864       -1105.608
 -14254331.391 9 -11089827.58448  22192429.471    22192430.5084   22192434.8434
      2475.909        1929.280
  -9456051.033 9  -7353836.40548  20569678.267    20569679.1854   20569683.7914
     -1358.507       -1058.577
  20370451.741 8  15874580.26846  24035557.468    24035558.4794   24035564.9594
     -3874.945       -3019.438
  -1004968.218 9   -770404.96947  23688600.755    23688602.5084   23688608.1684
     -2274.327       -1772.203
 -17510284.444 9 -12647585.19648  21865293.074    21865294.9514   21865299.7454
      2841.168        2213.897
 97  5  7 18 13 59.9990000  0  7 24  2  9  7 27 26  4               -0.000305860
  -6915549.687 9  -5362167.04746  23864015.543    23864017.2974   23864024.6244
      3635.665        2832.986
   3102612.041 9   2473578.63548  21818915.216    21818916.2484   21818921.3294
     -1426.445       -1111.515
 -14328437.394 9 -11147572.50348  22178327.110    22178328.6044   22178332.9974
      2464.492        1920.383
  -9415157.132 9  -7321971.03348  20577460.149    20577461.0594   20577465.7114
     -1367.748       -1065.778
  20486752.641 8  15965204.24046  24057689.044    24057690.0624   24057696.2704
     -3878.425       -3022.149
   -936633.765 9   -717157.40147  23701604.643    23701606.0894   23701611.8734
     -2281.227       -1777.579
 -17595333.837 9 -12713857.42848  21849108.708    21849110.5804   21849115.3374
      2828.825        2204.279
 97  5  7 18 14 29.9990000  0  7 24  2  9  7 27 26  4               -0.000306105
  -7024595.279 9  -5447137.57146  23843264.858    23843266.5624   23843274.0154
      3633.464        2831.271
   3145514.220 9   2507008.88348  21827079.228    21827080.3374   21827085.4324
     -1434.261       -1117.606
 -14402211.581 9 -11205058.86648  22164288.349    22164289.8394   22164294.2994
      2453.240        1911.616
  -9374003.183 9  -7289903.02848  20585291.630    20585292.3834   20585297.0664
     -1376.350       -1072.481
  20603156.747 8  16055908.58246  24079840.144    24079840.8874   24079847.3674
     -3882.482       -3025.311
   -868102.568 9   -663756.50046  23714645.431    23714647.0384   23714652.5804
     -2288.049       -1782.895
 -17680030.634 9 -12779854.91348  21832991.278    21832993.2574   21832997.9484
      2817.161        2195.190
 97  5  7 18 14 59.9990000  0  8 24  2  9  5  7 27 26  4            -0.000306333
  -7133580.050 9  -5532060.71346  23822526.130    23822527.4294   23822534.7934
      3631.653        2829.859
   3188650.203 9   2540621.32248  21835287.641    21835288.8954   21835293.9844
     -1441.814       -1123.491
 -14475649.917 9 -11262283.52448  22150313.519    22150314.9054   22150319.4754
      2442.291        1903.084
   -214461.39719   -147474.52755  24831026.695           0.0005          0.0005
      2772.100        2160.078
  -9332593.537 9  -7257635.78348  20593171.565    20593172.3724   20593177.0514
     -1384.647       -1078.946
  20719688.046 8  16146712.06446  24102015.552    24102016.1474   24102022.4414
     -3886.656       -3028.563
   -799358.622 9   -610189.84847  23727727.285    23727728.7364   23727734.1564
     -2295.201       -1788.468
 -17764374.312 9 -12845577.24148  21816941.381    21816943.1074   21816947.7714
      2805.344        2185.982
 97  5  7 18 15 29.9990000  0  8 24  2  9  5  7 27 26  4            -0.000306545
  -7242499.952 9  -5616933.29346  23801798.974    23801800.5234   23801808.0064
      3629.602        2828.261
   3232022.204 9   2574417.66348  21843541.133    21843542.3114   21843547.5054
     -1449.626       -1129.579
 -14548746.583 9 -11319241.96148  22136403.697    22136405.0464   22136409.6764
      2430.855        1894.173
   -297630.164 9   -212281.30556  24815204.534           0.0005   24815210.7425
      2772.739        2160.576
  -9290924.850 9  -7225166.68848  20601100.738    20601101.6854   20601106.3234
     -1393.345       -1085.723
  20836358.363 8  16237623.88246  24124217.548    24124217.8744   24124224.2444
     -3891.191       -3032.097
   -730389.392 9   -556447.63747  23740851.724    23740853.2194   23740858.5364
     -2302.639       -1794.264
 -17848350.451 9 -12911013.17148  21800961.059    21800962.8744   21800967.6134
      2793.059        2176.410
 97  5  7 18 15 59.9990000  0  8 24  2  9  5  7 27 26  4            -0.000306759
  -7351356.287 9  -5701756.36146  23781083.765    23781085.6944   23781093.0674
      3627.797        2826.855
   3275628.992 9   2608396.95948  21851839.525    21851840.4494   21851845.6644
     -1456.924       -1135.265
 -14621497.403 9 -11375930.89048  22122560.279    22122561.0574   22122565.7094
      2419.668        1885.456
   -380831.343 9   -277113.30756  24799372.981    24799370.7585   24799377.3905
      2774.535        2161.975
  -9248988.615 9  -7192489.10948  20609080.882    20609081.8454   20609086.4554
     -1401.971       -1092.445
  20953138.782 9  16328621.45546  24146439.520    24146440.6094   24146446.7864
     -3893.557       -3033.941
   -661203.208 9   -502536.40146  23754017.683    23754018.9914   23754024.2334
     -2309.110       -1799.306
 -17931953.466 9 -12976158.34948  21785051.819    21785053.6954   21785058.5394
      2781.064        2167.063
 97  5  7 18 16 29.9990000  0  8 24  2  9  5  7 27 26  4            -0.000306990
  -7460151.970 9  -5786532.15346  23760380.213    23760382.4114   23760389.8064
      3625.933        2825.402
   3319465.593 9   2642555.32848  21860181.441    21860182.3434   21860187.5624
     -1464.966       -1141.532
 -14693894.804 9 -11432344.44348  22108783.035    22108784.2874   22108788.9714
      2407.292        1875.812
   -464068.267 9   -341973.18246  24783532.243    24783530.7735   24783537.5984
      2775.089        2162.407
  -9206778.152 9  -7159597.85148  20617113.355    20617114.2884   20617118.8104
     -1411.427       -1099.813
  21070004.323 8  16419685.37546  24168678.869    24168679.4704   24168685.6534
     -3896.892       -3036.539
   -591817.530 9   -448469.69147  23767221.279    23767222.6964   23767227.7674
     -2315.874       -1804.577
 -18015189.446 9 -13041017.53348  21769212.397    21769214.3424   21769219.2994
      2768.538        2157.302
 97  5  7 18 16 59.9990000  0  8 24  2  9  5  7 27 26  4            -0.000307239
  -7568908.263 9  -5871277.28746  23739685.192    23739686.8254   23739693.9644
      3623.851        2823.780
   3363535.331 9   2676895.36148  21868567.496    21868568.4914   21868573.8554
     -1473.585       -1148.248
 -14765921.837 9 -11488469.39048  22095076.709    22095077.9824   22095082.6534
      2393.865        1865.349
   -547325.198 9   -406848.71345  24767688.474    24767687.9554   24767694.3184
      2774.880        2162.244
  -9164295.648 9  -7126494.61148  20625197.583    20625198.4254   20625202.9464
     -1421.091       -1107.344
  21186957.542 8  16510817.58945  24190933.915    24190935.1134   24190941.2624
     -3900.476       -3039.332
   -522246.241 9   -394258.29846  23780460.665    23780461.8454   23780466.5574
     -2322.611       -1809.827
 -18098043.350 9 -13105578.99548  21753445.954    21753447.7674   21753452.7854
      2754.651        2146.481
 97  5  7 18 17 29.9990000  0  8 24  2  9  5  7 27 26  4            -0.000307491
  -7677613.970 9  -5955982.96746  23718998.572    23719000.7094   23719008.0074
      3622.757        2822.928
   3407855.428 9   2711430.48148  21877001.501    21877002.3234   21877007.6964
     -1481.382       -1154.324
 -14837550.601 9 -11544283.98748  22081446.187    22081447.4514   22081452.1604
      2381.167        1855.455
   -630591.270 9   -471731.27446  24751843.031    24751842.8134   24751849.4374
      2775.914        2163.050
  -9121536.315 9  -7093175.65648  20633334.308    20633335.2724   20633339.7854
     -1429.858       -1114.175
  21304002.523 8  16602021.33846  24213206.572    24213208.2414   24213214.0954
     -3902.763       -3041.114
   -452488.335 9   -339901.56046  23793735.553    23793736.3864   23793741.3134
     -2328.172       -1814.160
 -18180496.786 9 -13169828.39448  21737755.646    21737757.3994   21737762.4724
      2742.023        2136.641
 97  5  7 18 17 59.9990000  0  8 24  2  9  5  7 27 26  4            -0.000307748
  -7786262.840 9  -6040644.37746  23698323.317    23698325.3684   23698332.8644
      3620.923        2821.498
   3452428.521 9   2746162.74948  21885483.482    21885484.3274   21885489.6714
     -1489.469       -1160.625
 -14908784.639 9 -11599791.01348  22067890.936    22067892.0714   22067896.7724
      2368.437        1845.535
   -713867.667 9   -536621.96645  24735996.016    24735995.7734   24736002.4594
      2776.377        2163.411
  -9078494.658 9  -7059636.71848  20641525.051    20641525.8274   20641530.3494
     -1439.113       -1121.387
  21421134.016 8  16693292.49146  24235496.207    24235497.5514   24235503.6194
     -3905.507       -3043.252
   -382547.781 9   -285402.48246  23807044.212    23807045.5814   23807050.5734
     -2333.902       -1818.625
 -18262556.264 9 -13233770.81948  21722140.096    21722141.9544   21722147.0884
      2729.275        2126.708
 97  5  7 18 18 29.9990000  0  8 24  2  9  5  7 27 26  4            -0.000308006
  -7894849.189 9  -6125257.05146  23677659.608    23677661.9364   23677669.6044
      3618.827        2819.865
   3497246.421 9   2781085.77448  21894012.007    21894012.9004   21894018.1884
     -1497.564       -1166.933
 -14979632.347 9 -11654997.01248  22054409.255    22054410.2114   22054414.8814
      2355.552        1835.495
   -797153.929 9   -601520.27946  24720146.628    24720146.7234   24720153.5054
      2776.954        2163.860
  -9035171.360 9  -7025878.31448  20649769.144    20649770.0024   20649774.5374
     -1448.160       -1128.436
  21538364.832 8  16784641.00146  24257805.415    24257806.0934   24257812.3154
     -3909.113       -3046.062
   -312430.633 9   -230765.81847  23820387.327    23820388.6504   23820393.7614
     -2339.870       -1823.275
 -18344230.071 9 -13297412.72648  21706598.256    21706599.9664   21706605.0794
      2716.413        2116.685
 97  5  7 18 18 59.9990000  0  8 24  2  9  5  7 27 26  4            -0.000308261
  -8003367.816 9  -6209816.94846  23657008.885    23657011.4014   23657019.2434
      3615.428        2817.217
   3542305.183 9   2816196.47648  21902586.168    21902587.2504   21902592.5594
     -1506.455       -1173.861
 -15050096.209 9 -11709903.89348  22041000.195    22041001.3424   22041006.0014
      2342.013        1824.945
   -880467.860 9   -666440.17346  24704291.704    24704292.6774   24704299.5744
      2777.203        2164.054
  -8991580.761 9  -6991911.62448  20658064.151    20658065.0624   20658069.6424
     -1458.129       -1136.204
  21655705.451 8  16876075.10445  24280135.263    24280135.3374   24280141.5904
     -3913.768       -3049.689
   -242129.799 9   -175985.98147  23833765.143    23833766.5014   23833771.5854
     -2347.062       -1828.879
 -18425515.575 9 -13360752.05948  21691130.103    21691131.8504   21691136.9684
      2702.681        2105.985
 97  5  7 18 19 29.9990000  0  8 24  2  9  5  7 27 26  4            -0.000308505
  -8111796.952 9  -6294307.12946  23636375.878    23636377.9694   23636385.8554
      3613.152        2815.443
   3587607.522 9   2851496.97048  21911206.798    21911207.9474   21911213.3354
     -1513.702       -1179.508
 -15120179.306 9 -11764514.08748  22027663.376    22027664.9414   22027669.5604
      2330.271        1815.796
   -963811.272 8   -731383.05245  24688431.753    24688432.9674   24688439.6134
      2779.110        2165.540
  -8947697.809 9  -6957717.12848  20666414.903    20666415.7604   20666420.3494
     -1467.474       -1143.486
  21773170.086 8  16967605.82145  24302487.582    24302488.2944   24302494.7494
     -3917.150       -3052.325
   -171624.533 9   -121046.86247  23847181.862    23847183.1754   23847188.3704
     -2353.182       -1833.648
 -18506421.626 9 -13423795.71148  21675734.220    21675735.9454   21675741.1144
      2690.970        2096.860
 97  5  7 18 19 59.9990000  0  8 24  2  9  5  7 27 26  4            -0.000308752
  -8220153.467 9  -6378740.70746  23615756.110    23615758.3104   23615766.3184
      3612.421        2814.874
   3633127.048 9   2886966.71148  21919869.009    21919870.0314   21919875.4204
     -1518.915       -1183.570
 -15189904.884 9 -11818845.69148  22014394.971    22014396.5674   22014401.1424
      2319.862        1807.685
  -1047212.284 9   -796370.79645  24672560.880    24672562.0354   24672568.7244
      2782.763        2168.387
  -8903531.747 9  -6923302.02448  20674819.341    20674820.2864   20674824.8794
     -1475.075       -1149.409
  21890744.933 8  17059222.41845  24324861.365    24324862.2064   24324868.7144
     -3919.252       -3053.963
   -100936.003 9    -65964.95847  23860633.588    23860634.8444   23860640.2544
     -2357.514       -1837.024
 -18586966.111 9 -13486557.62148  21660407.091    21660408.8184   21660413.9994
      2680.544        2088.736
 97  5  7 18 20 29.9990000  0  8 24  2  9  5  7 27 26  4            -0.000308891
  -8328500.401 9  -6463166.83746  23595138.731    23595140.5584   23595148.5864
      3610.253        2813.184
   3678795.896 9   2922552.81348  21928559.379    21928560.5924   21928565.9074
     -1525.916       -1189.025
 -15259309.419 9 -11872927.13448  22001187.704    22001189.2994   22001193.8554
      2306.923        1797.602
  -1130724.805 8   -861445.40946  24656669.239    24656670.0404   24656676.8154
      2784.466        2169.714
  -8859147.841 9  -6888717.16848  20683265.397    20683266.2594   20683270.8304
     -1483.935       -1156.313
  22008376.295 8  17150883.07445  24347245.704    24347246.9714   24347253.5074
     -3923.001       -3056.884
    -30117.935 9    -10782.08947  23874110.071    23874111.1704   23874116.7114
     -2363.937       -1842.029
 -18667202.508 9 -13549079.47048  21645138.786    21645140.3414   21645145.4514
      2668.430        2079.296
 97  5  7 18 20 59.9990000  0  8 24  2  9  5  7 27 26  4            -0.000309197
  -8436777.360 9  -6547538.41346  23574534.977    23574536.1394   23574544.2594
      3607.739        2811.225
   3724678.385 9   2958305.38048  21937290.982    21937291.7824   21937297.0634
     -1533.204       -1194.704
 -15328324.621 9 -11926705.19748  21988054.513    21988056.1714   21988060.7234
      2293.859        1787.423
  -1214281.002 8   -926554.11946  24640768.671    24640769.8574   24640776.6314
      2785.513        2170.530
  -8814494.817 9  -6853922.61348  20691762.543    20691763.3994   20691767.9414
     -1493.182       -1163.518
  22126115.743 8  17242627.92845  24369650.988    24369652.0904   24369658.8184
     -3926.401       -3059.533
     40891.174 9     44549.62946  23887622.829    23887623.7544   23887629.3654
     -2370.093       -1846.826
 -18747073.323 9 -13611316.44248  21629939.753    21629941.4014   21629946.5414
      2656.060        2069.657
 97  5  7 18 21 29.9990000  0  8 24  2  9  5  7 27 26  4            -0.000309528
  -8544995.854 9  -6631864.43546  23553941.555    23553942.8874   23553951.0614
      3606.770        2810.470
   3770767.748 9   2994219.15248  21946061.467    21946062.2334   21946067.5394
     -1539.325       -1199.474
 -15396963.003 9 -11980189.63648  21974993.540    21974994.7584   21974999.2944
      2282.157        1778.304
  -1297877.809 8   -991694.41446  24624860.917    24624861.9134   24624868.5874
      2787.863        2172.361
  -8769581.446 9  -6818925.19448  20700309.181    20700310.1324   20700314.7044
     -1500.757       -1169.421
  22243929.000 8  17334430.32645  24392069.718    24392071.2164   24392077.9874
     -3927.575       -3060.448
    112060.646 9    100006.29947  23901165.718    23901166.8084   23901172.7914
     -2374.381       -1850.167
 -18826582.060 9 -13673271.27748  21614809.642    21614811.4024   21614816.5444
      2644.479        2060.633
 97  5  7 18 21 59.9990000  0  8 24  2  9  5  7 27 26  4            -0.000309873
  -8653149.162 9  -6716139.64946  23533361.266    23533361.9684   23533370.1224
      3603.313        2807.776
   3817079.538 9   3030306.24848  21954873.976    21954875.0274   21954880.3494
     -1548.102       -1206.313
 -15465207.297 9 -12033366.99048  21962007.153    21962008.3284   21962012.8524
      2267.597        1766.959
  -1381505.052 8  -1056858.39745  24608947.310    24608947.9374   24608954.8354
      2787.227        2171.865
  -8724414.216 9  -6783729.95848  20708904.117    20708905.1774   20708909.7744
     -1510.412       -1176.944
  22361812.722 8  17426287.62645  24414501.710    24414503.7284   24414510.7474
     -3931.309       -3063.358
    183396.935 9    155593.02446  23914740.700    23914741.7674   23914747.5874
     -2381.414       -1855.647
 -18905698.650 9 -13734920.53948  21599754.334    21599755.9814   21599761.1834
      2630.013        2049.361
 97  5  7 18 22 29.9990000  0  8 24  2  9  5  7 27 26  4            -0.000310216
  -8761227.441 9  -6800356.41246  23512793.977    23512795.4344   23512803.5074
      3601.512        2806.373
   3863630.302 9   3066579.55848  21963732.746    21963733.3784   21963738.6724
     -1555.506       -1212.082
 -15533059.045 9 -12086238.47048  21949095.341    21949096.6194   21949101.1104
      2255.863        1757.815
  -1465140.967 8  -1122029.21845  24593032.104    24593032.2844   24593039.3724
      2788.476        2172.838
  -8678990.915 9  -6748335.19048  20717547.894    20717548.9474   20717553.5424
     -1517.926       -1182.799
  22479769.517 8  17518201.82845  24436947.924    24436950.1764   24436957.1864
     -3932.626       -3064.384
    254912.750 9    211319.55547  23928349.452    23928350.7684   23928356.8064
     -2386.282       -1859.441
 -18984410.644 9 -13796254.53448  21584775.979    21584777.5444   21584782.7924
      2617.327        2039.476
 97  5  7 18 22 59.9990000  0  8 24  2  9  5  7 27 26  4            -0.000310541
  -8869214.007 9  -6884501.71946  23492244.162    23492246.3034   23492254.2984
      3597.587        2803.314
   3910436.964 9   3103052.26648  21972639.646    21972640.4184   21972645.7024
     -1564.895       -1219.399
 -15600538.539 9 -12138819.87148  21936254.358    21936255.7554   21936260.2254
      2242.716        1747.571
  -1548791.066 8  -1187211.03046  24577113.562    24577114.1004   24577121.4234
      2788.280        2172.686
  -8633313.056 9  -6712742.06548  20726240.257    20726241.1864   20726245.7204
     -1527.240       -1190.057
  22597789.628 8  17610165.42245  24459406.560    24459408.5124   24459415.7454
     -3935.502       -3066.625
    326590.916 9    267172.62746  23941989.363    23941990.5934   23941996.6444
     -2392.136       -1864.002
 -19062708.492 9 -13857265.81848  21569876.329    21569878.0034   21569883.2454
      2602.503        2027.924
 97  5  7 18 23 29.9990000  0  8 24  2  9  5  7 27 26  4            -0.000310852
  -8977105.630 9  -6968573.04446  23471713.772    23471715.2974   23471723.1184
      3594.262        2800.724
   3957502.237 9   3139726.48448  21981596.208    21981596.7414   21981601.9684
     -1573.564       -1226.154
 -15667644.622 9 -12191110.31848  21923484.735    21923485.8144   21923490.3414
      2230.237        1737.847
  -1632469.052 8  -1252414.59845  24561189.930    24561190.7694   24561198.1694
      2789.540        2173.668
  -8587384.476 9  -6676953.57548  20734980.197    20734981.1324   20734985.5654
     -1535.387       -1196.405
  22715881.865 8  17702185.12645  24481878.619    24481880.7854   24481888.3614
     -3938.315       -3068.817
    398423.079 9    323145.68346  23955658.195    23955659.8154   23955665.9094
     -2397.486       -1868.171
 -19140587.536 9 -13917950.77248  21555056.202    21555058.0804   21555063.3974
      2588.743        2017.202
 97  5  7 18 23 59.9990000  0  8 24  2  9  5  7 27 26  4            -0.000311130
  -9084880.146 9  -7052553.09746  23451204.527    23451206.4514   23451214.1444
      3590.186        2797.548
   4004838.215 9   3176611.64548  21990603.744    21990604.5424   21990609.6764
     -1582.615       -1233.206
 -15734362.250 9 -12243098.06248  21910788.751    21910789.7964   21910794.4054
      2217.139        1727.641
  -1716167.245 9  -1317633.91746  24545262.742    24545263.3264   24545270.9234
      2789.959        2173.994
  -8541205.902 9  -6640970.27748  20743767.716    20743768.6564   20743773.0144
     -1543.635       -1202.832
  22834078.343 8  17794286.13445  24504372.291    24504372.9494   24504380.3644
     -3941.787       -3071.522
    470426.891 9    379252.50146  23969359.717    23969361.7184   23969367.7564
     -2403.020       -1872.483
 -19218054.876 9 -13978314.91348  21540314.920    21540316.5244   21540321.8124
      2575.199        2006.649
